[[{"header":{"parameterUnit":"m.s-1","parameterCategory":1,"la1":30.6,"la2":29.2853,"lo1":-89.7004,"lo2":-87.6739,"dy":0.0162,"dx":0.0183,"nx":112,"ny":82,"refTime":"2026-04-07T12:00:00:Z","depth":0,"parameterNumber":2,"parameterNumberName":"U-component_of_WINDS"},"data":[0.0,0.0,0.0,0.0,0.0,0.0,0.0,0.0,0.0,0.0,0.0,0.0,0.0,0.0,0.0,0.0,0.0,0.0,0.0,0.0,0.0,0.0,0.0,0.0,0.0,0.0,0.0,0.0,0.0,0.0,0.0,0.0,0.0,0.0,0.0,0.0,0.0,0.0,0.0,0.0,0.0,0.0,0.0,0.0,0.0,0.0,0.0,0.0,0.0,0.0,0.0,0.0,0.0,0.0,0.0,0.0,0.0,0.0,0.0,0.0,0.0,0.0,0.0,0.0,0.0,0.0,0.0,0.0,0.0,0.0,0.0,0.0,0.0,0.0,0.0,0.0,0.0,0.0,0.0,0.0,0.0,0.0,0.0,0.0,0.0,0.0,0.0,0.0,0.0,0.0,0.3282,0.4822,0.4,0.3197,0.2909,0.4583,0.5188,0.4218,0.0,0.0,0.0,0.0,0.0,0.0,0.0,0.0,0.0,0.0,0.0,0.0,0.0,0.0,0.0,0.0,0.0,0.0,0.0,0.0,0.0,0.0,0.0,0.0,0.0,0.0,0.0,0.0,0.0,0.0,0.0,0.0,0.0,0.0,0.0,0.0,0.0,0.0,0.0,0.0,0.0,0.0,0.0,0.0,0.0,0.0,0.0,0.0,0.0,0.0,0.0,0.0,0.0,0.0,0.0,0.0,0.0,0.0,0.0,0.0,0.0,0.0,0.0,0.0,0.0,0.0,0.0,0.0,0.0,0.0,0.0,0.0,0.0,0.0,0.0,0.0,0.0,0.0,0.0,0.0,0.0,0.0,0.0,0.0,0.0,0.0,0.0,0.0,0.0,0.0,0.0,0.0,0.0,0.0,0.0,0.0,0.0,0.0,0.0,0.0,0.0,0.0,0.0,0.0,0.2802,0.3074,0.4451,0.4721,0.3052,0.4545,0.543,0.4969,0.0,0.0,0.0,0.0,0.0,0.0,0.0,0.0,0.0,0.0,0.0,0.0,0.0,0.0,0.0,0.0,0.0,0.0,0.0,0.0,0.0,0.0,0.0,0.0,0.0,0.0,0.0,0.0,0.0,0.0,0.0,0.0,0.0,0.0,0.0,0.0,0.0,0.0,0.0,0.0,0.0,0.0,0.0,0.0,0.0,0.0,0.0,0.0,0.0,0.0,0.0,0.0,0.0,0.0,0.0,0.0,0.0,0.0,0.0,0.0,0.0,0.0,0.0,0.0,0.0,0.0,0.0,0.0,0.0,0.0,0.0,0.0,0.0,0.0,0.0,0.0,0.0,0.0,0.0,0.0,0.0,0.0,0.0,0.0,0.0,0.0,0.0,0.0,0.0,0.0,0.0,0.0,0.0,0.0,0.0,0.0,0.0,0.0,0.0,0.0,0.0,0.0,0.0,0.261,0.3023,0.4173,0.3319,0.2692,0.2909,0.3619,0.3869,0.3473,0.5712,0.0,0.0,0.0,0.0,0.0,0.0,0.0,0.0,0.0,0.0,0.0,0.0,0.0,0.0,0.0,0.0,0.0,0.0,0.0,0.0,0.0,0.0,0.0,0.0,0.0,0.0,0.0,0.0,0.0,0.0,0.0,0.0,0.0,0.0,0.0,0.0,0.0,0.0,0.0,0.0,0.0,0.0,0.0,0.0,0.0,0.0,0.0,0.0,0.0,0.0,0.0,0.0,0.0,0.0,0.0,0.0,0.0,0.0,0.0,0.0,0.0,0.0,0.0,0.0,0.0,0.0,0.0,0.0,0.0,0.0,0.0,0.0,0.0,0.0,0.0,0.0,0.0,0.0,0.0,0.0,0.0,0.0,0.0,0.0,0.0,0.0,0.0,0.0,0.0,0.0,0.0,0.0,0.0,0.0,0.0,0.0,0.0,0.0,0.0,0.0,0.0,0.0,0.2289,0.298,0.4129,0.1737,0.0583,0.21,0.2122,0.2032,0.2024,0.3047,0.0,0.0,0.0,0.0,0.0,0.0,0.0,0.0,0.0,0.0,0.0,0.0,0.0,0.0,0.0,0.0,0.0,0.0,0.0,0.0,0.0,0.0,0.0,0.0,0.0,0.0,0.0,0.0,0.0,0.0,0.0,0.0,0.0,0.0,0.0,0.0,0.0,0.0,0.0,0.0,0.0,0.0,0.0,0.0,0.0,0.0,0.0,0.0,0.0,0.0,0.0,0.0,0.0,0.0,0.0,0.0,0.0,0.0,0.0,0.0,0.0,0.0,0.0,0.0,0.0,0.0,0.0,0.0,0.0,0.0,0.0,0.0,0.0,0.0,0.0,0.0,0.0,0.0,0.0,0.0,0.0,0.0,0.0,0.0,0.0,0.0,0.0,0.0,0.0,0.0,0.0,0.0,0.0,0.0,0.0,0.0,0.0,0.0,0.0,0.0,0.0,0.0,0.1523,0.1946,0.058,0.0146,0.0073,0.0215,0.021,0.0739,0.2086,0.1028,0.0,0.0,0.0,0.0,0.0,0.0,0.0,0.0,0.0,0.0,0.0,0.0,0.0,0.0,0.0,0.0,0.0,0.0,0.0,0.0,0.0,0.0,0.0,0.0,0.0,0.0,0.0,0.0,0.0,0.0,0.0,0.0,0.0,0.0,0.0,0.0,0.0,0.0,0.0,0.0,0.0,0.0,0.0,0.0,0.0,0.0,0.0,0.0,0.0,0.0,0.0,0.0,0.0,0.0,0.0,0.0,0.0,0.0,0.0,0.0,0.0,0.0,0.0,0.0,0.0,0.0,0.0,0.0,0.0,0.0,0.0,0.0,0.0,0.0,0.0,0.0,0.0,0.0,0.0,0.0,0.0,0.0,0.0,0.0,0.0,0.0,0.0,0.0,0.0,0.0,0.0,0.0,0.0,0.0,0.0,0.0,0.0,0.0,0.0,0.0,0.0,0.0,0.053,0.0691,0.0073,0.0,0.0,0.0,0.0,0.0204,0.0771,0.0,0.0,0.0,0.0,0.0,0.0,0.0,0.0,0.0,0.0,0.0,0.0,0.0,0.0,0.0,0.0,0.0,0.0,0.0,0.0,0.0,0.0,0.0,0.0,0.0,0.0,0.0,0.0,0.0,0.0,0.0,0.0,0.0,0.0,0.0,0.0,0.0,0.0,0.0,0.0,0.0,0.0,0.0,0.0,0.0,0.0,0.0,0.0,0.0,0.0,0.0,0.0,0.0,0.0,0.0,0.0,0.0,0.0,0.0,0.0,0.0,0.0,0.0,0.0,0.0,0.0,0.0,0.0,0.0,0.0,0.0,0.0,0.0,0.0,0.0,0.0,0.0,0.0,0.0,0.0,0.0,0.0,0.0,0.0,0.0,0.0,0.0,0.0,0.0,0.0,0.0,0.0,0.0,0.0,0.0,0.0,0.0,0.0,0.0,0.0,0.0,0.0,0.0,0.0,0.0,0.0,0.0,0.0,0.0,0.0,0.0,0.0,0.0,0.0,0.0,0.0,0.0,0.0,0.0,0.0,0.0,0.0,0.0,0.0,0.0,0.0,0.0,0.0,0.0,0.0,0.0,0.0,0.0,0.0,0.0,0.0,0.0,0.0,0.0,0.0,0.0,0.0,0.0,0.0,0.0,0.0,0.0,0.0,0.0,0.0,0.0,0.0,0.0,0.0,0.0,0.0,0.0,0.0,0.0,0.0,0.0,0.0,0.0,0.0,0.0,0.0,0.0,0.0,0.0,0.0,0.0,0.0,0.0,0.0,0.0,0.0,0.0,0.0,0.0,0.0,0.0,0.0,0.0,0.0,0.0,0.0,0.0,0.0,0.0,0.0,0.0,0.0,0.0,0.0,0.0,0.0,0.0,0.0,0.0,0.0,0.0,0.0,0.0,0.0,0.0,0.0,0.0,0.0,0.0,0.0,0.0,0.0,0.0,0.0,0.0,0.0,0.0,0.0,0.0,0.0,0.0,0.0,0.0,0.0,0.0,0.0,0.0,0.0,0.0,0.0,0.0,0.0,0.0,0.0,0.0,0.0,0.0,0.0,0.0,0.0,0.0,0.0,0.0,0.0,0.0,0.0,0.0,0.0,0.0,0.0,0.0,0.0,0.0,0.0,0.0,0.0,0.0,0.0,0.0,0.0,0.0,0.0,0.0,0.0,0.0,0.0,0.0,0.0,0.0,0.0,0.0,0.0,0.0,0.0,0.0,0.0,0.0,0.0,0.0,0.0,0.0,0.0,0.0,0.0,0.0,0.0,0.0,0.0,0.0,0.0,0.0,0.0,0.0,0.0,0.0,0.0,0.0,0.0,0.0,0.0,0.0,0.0,0.0,0.0,0.0,0.0,0.0,0.0,0.0,0.0,0.0,0.0,0.0,0.0,0.0,0.0,0.0,0.0,0.0,0.0,0.0,0.0,0.0,0.0,0.0,0.0,0.0,0.0,0.0,0.0,0.0,0.0,0.0,0.0,0.0,0.0,0.0,0.0,0.0,0.0,0.0,0.0,0.0,0.0,0.0,0.0,0.0,0.0,0.0,0.0,0.0,0.0,0.0,0.0,0.0,0.0,0.0,0.0,0.0,0.0,0.0,0.0,0.0,0.0,0.0,0.0,0.0,0.0,0.0,0.0,0.0,0.0,0.0,0.0,0.0,0.0,0.0,0.0,0.0,0.0,0.0,0.0,0.0,0.0,0.0,0.0,0.0,0.0,0.0,0.0,0.0,0.0,0.0,0.0,0.0,0.0,0.0,0.0,0.0,0.0,0.0,0.0,0.0,0.0,0.0,0.0,0.0,0.0,0.0,0.0,0.0,0.0,0.0,0.0,0.0,0.0,0.0,0.0,0.0,0.0,0.0,0.0,0.0,0.0,0.0,0.0,0.0,0.0,0.0,0.0,0.0,0.0,0.0,0.0,0.0,0.0,0.0,0.0,0.0,0.0,0.0,0.0,0.0,0.0,0.0,0.0,0.0,0.0,0.0,0.0,0.0,0.0,0.0,0.0,0.0,0.0,0.0,0.0,0.0,0.0,0.0,0.0,0.0,0.0,0.0,0.0,0.0,0.0,0.0,0.0,0.0,0.0,0.0,0.0,0.0,0.0,0.0,0.0,0.0,0.0,0.0,0.0,0.0,0.0,0.0,0.0,0.0,0.0,0.0,0.0,0.0,0.0,0.0,0.0,0.0,0.0,0.0,0.0,0.0,0.0,0.0,0.0,0.0,0.0,0.0,0.0,0.0,0.0,0.0,0.0,0.0,0.0,0.0,0.0,0.0,0.0,0.0,0.0,0.0,0.0,0.0,0.0,0.0,0.0,0.0,0.0,0.0,0.0,0.0,0.0,0.0,0.0,0.0,0.0,0.0,0.0,0.0,0.0,0.0,0.0,0.0,0.0,0.0,0.0,0.0,0.0,0.0,0.0,0.0,0.0,-0.0451,-0.0486,-0.051,-0.051,-0.0365,-0.0292,-0.0292,-0.0072,0.0,0.0,0.0,0.0,0.0,0.0,0.0,0.0,0.0,0.0,0.0,0.0,0.0,0.0,0.0,0.0,0.0,0.0,0.0,0.0,0.0,0.0,0.0,0.0,0.0,0.0,0.0,0.0,0.0,0.0,0.0,0.0,0.0,0.0,0.0,0.0,0.0,0.0,0.0,0.0,0.0,0.0,0.0,0.0,0.0,0.0,0.0,0.0,0.0,0.0,0.0,0.0,0.0,0.0,0.0,0.0,0.0,0.0,0.0,0.0,0.0,0.0,-1.394,-1.1603,0.0,0.0,0.0,0.0,0.0,0.0,0.0,0.0,0.0,0.0,0.0,0.0,0.0,0.0,0.0,0.0,0.0,0.0,0.0,0.0,0.0,0.0,0.0,0.0,0.0,0.0,0.0,0.0,0.0,0.0,0.0,0.0,0.0,0.0,0.0,0.0,0.0,0.0,0.0,0.0,-0.404,-0.4359,-0.4579,-0.4579,-0.3199,-0.2254,-0.2254,-0.0864,0.0,0.0,0.0,0.0,0.0,0.0,0.0,0.0,0.0,0.0,0.0,0.0,0.0,0.0,0.0,0.0,0.0,0.0,0.0,0.0,0.0,0.0,0.0,0.0,0.0,0.0,0.0,0.0,0.0,0.0,0.0,0.0,0.0,0.0,0.0,0.0,0.0,0.0,0.0,0.0,0.0,0.0,0.0,0.0,0.0,0.0,0.0,0.0,0.0,0.0,0.0,0.0,0.0,0.0,0.0,0.0,0.0,0.0,0.0,0.0,0.0,0.0,-1.7076,-1.5156,0.0,0.0,0.0,0.0,0.0,0.0,0.0,0.0,0.0,0.0,0.0,0.0,0.0,0.0,0.0,0.0,0.0,0.0,0.0,0.0,0.0,0.0,0.0,0.0,0.0,0.0,0.0,0.0,0.0,0.0,0.0,0.0,0.0,0.0,0.0,0.0,0.0,0.0,0.0,0.0,-0.5246,-0.5553,-0.5808,-0.5808,-0.4866,-0.4286,-0.4286,-0.3395,-0.2761,-0.2784,-0.2771,0.0,0.0,0.0,0.0,0.0,0.0,0.0,0.0,0.0,0.0,0.0,0.0,0.0,0.0,0.0,0.0,0.0,0.0,0.0,0.0,0.0,0.0,0.0,0.0,0.0,0.0,0.0,0.0,0.0,0.0,0.0,0.0,0.0,0.0,0.0,0.0,0.0,0.0,0.0,0.0,0.0,0.0,0.0,0.0,0.0,0.0,0.0,0.0,0.0,0.0,0.0,0.0,0.0,-2.3668,-2.3846,-2.3858,-2.4163,-2.3396,-2.1659,-1.9722,-1.8772,-1.8424,-1.6533,0.0,0.0,0.0,0.0,0.0,0.0,0.0,0.0,0.0,0.0,0.0,0.0,0.0,0.0,0.0,0.0,0.0,0.0,0.0,0.0,0.0,0.0,-1.1246,-1.1369,-1.0447,-0.9045,-0.7312,0.0,0.0,0.0,0.0,0.0,0.0,0.0,0.0,0.0,0.0,0.0,-0.6308,-0.6631,-0.6821,-0.6821,-0.6532,-0.6322,-0.6337,-0.6036,-0.5829,-0.5842,-0.5823,-0.5103,0.0,0.0,0.0,0.0,0.0,0.0,0.0,0.0,0.0,0.0,0.0,0.0,0.0,0.0,0.0,0.0,0.0,0.0,0.0,0.0,0.0,0.0,0.0,0.0,0.0,0.0,0.0,0.0,0.0,0.0,0.0,0.0,-2.0121,-2.0674,0.0,0.0,0.0,0.0,0.0,0.0,0.0,0.0,0.0,0.0,0.0,0.0,0.0,-1.8501,-1.8648,-1.9252,-1.9654,-1.9684,-2.0456,-2.0835,-2.0835,-2.095,-2.0968,-2.0942,-2.0383,0.0,-1.943,-1.8898,0.0,0.0,0.0,0.0,0.0,0.0,0.0,0.0,0.0,0.0,0.0,0.0,0.0,0.0,0.0,0.0,0.0,0.0,0.0,0.0,0.0,0.0,-1.2305,-1.2318,-1.2079,-1.1815,-1.1512,-0.8526,-0.5931,-0.5919,-0.5797,-0.563,0.0,0.0,0.0,0.0,0.0,0.0,-1.0003,-1.0461,-1.0815,-1.0815,-0.9357,-0.8382,-0.8475,-0.6865,-0.5874,-0.5997,-0.5849,-0.5686,-0.5454,-0.3806,0.0,0.0,0.0,0.0,0.0,0.0,0.0,0.0,0.0,0.0,0.0,0.0,0.0,0.0,0.0,0.0,0.0,0.0,0.0,0.0,0.0,0.0,0.0,0.0,0.0,0.0,0.0,0.0,0.0,-2.0651,-2.0129,-1.9371,-1.8374,-1.7605,0.0,0.0,0.0,0.0,0.0,0.0,0.0,0.0,0.0,-1.8299,-1.8591,-1.8862,-1.9284,-1.9766,-2.0115,-2.0233,-2.0809,-2.1094,-2.1094,-2.1223,-2.1351,-2.1321,-2.1134,-2.1024,-2.068,-1.8746,-1.8277,-1.8541,0.0,0.0,0.0,0.0,-1.2705,-1.2115,-1.2311,-1.2413,-1.2474,-1.2542,0.0,0.0,0.0,0.0,0.0,0.0,0.0,-1.1918,-1.2149,-1.2352,-1.2549,-1.2718,-1.2712,-1.2671,-1.2671,-1.1114,-0.9657,-0.9243,-0.8951,-0.8717,-0.8336,-0.8793,0.0,0.0,0.0,-1.0833,-1.107,-1.147,-1.1769,-1.1857,-1.1123,-1.0626,-1.0681,-0.9888,-0.9339,-0.9413,-0.9389,-0.8817,-0.7733,-0.681,-0.5224,0.0,0.0,0.0,0.0,0.0,0.0,0.0,0.0,0.0,0.0,0.0,0.0,0.0,0.0,0.0,0.0,0.0,0.0,0.0,0.0,0.0,0.0,0.0,0.0,0.0,0.0,0.0,0.0,-1.9799,-1.9315,-1.8058,-1.7571,-1.7024,0.0,0.0,0.0,0.0,0.0,0.0,-1.6863,-1.6933,-1.7225,-1.7891,-1.8135,-1.8574,-1.9057,-1.929,-1.9435,-1.967,-1.9915,-2.0078,-2.0078,-2.0226,-2.0216,-2.0078,-2.0078,-2.0078,-1.9915,-1.8587,-1.8514,-1.8952,-1.5745,-1.4916,-1.5224,-1.3949,-1.3141,-1.2786,-1.3085,-1.3186,-1.3193,-1.3234,-1.2963,-1.2569,-1.2311,0.0,0.0,0.0,0.0,-1.2311,-1.2644,-1.2759,-1.2861,-1.3125,-1.3159,-1.3119,-1.3085,-1.2922,-1.2603,-1.1965,-1.1633,-1.1294,-1.0806,-1.0724,0.0,-1.0527,-1.0826,-1.1172,-1.1463,-1.1728,-1.1932,-1.2047,-1.2135,-1.2081,-1.2115,-1.2088,-1.2081,-1.2121,-1.2081,-1.1486,-0.9962,-0.934,-0.7345,-0.3894,0.0,0.0,0.0,0.0,0.0,0.0,0.0,0.0,0.0,0.0,0.0,0.0,0.0,0.0,0.0,0.0,0.0,0.0,0.0,0.0,0.0,0.0,0.0,0.0,0.0,0.0,0.0,0.0,0.0,-1.6653,-1.5325,0.0,0.0,0.0,0.0,-1.3255,-1.3555,-1.3873,-1.4025,-1.4177,-1.4467,-1.4923,-1.4944,-1.5096,-1.5494,-1.5501,-1.5507,-1.5521,-1.5528,-1.5528,-1.5528,-1.5535,-1.5535,-1.5528,-1.5528,-1.5528,-1.5767,-1.9464,-2.0908,-2.068,-2.0187,-1.8705,-1.6759,-1.6576,-1.5401,-1.3966,-1.3838,-1.3797,-1.3817,-1.3966,-1.3526,-1.2908,-1.2745,-1.2393,0.0,0.0,-1.2576,-1.28,-1.3241,-1.3464,-1.3607,-1.3763,-1.3695,-1.3553,-1.341,-1.3152,-1.2854,-1.2522,-1.2338,-1.2047,-1.145,0.0,-1.1294,-1.1138,-1.126,-1.1477,-1.1769,-1.1952,-1.2054,-1.2135,-1.2135,-1.2121,-1.2264,-1.2149,-1.2121,-1.2271,-1.2142,-1.206,-1.1972,-1.0145,-0.8164,-0.5867,-0.4024,0.0,0.0,0.0,0.0,0.0,0.0,0.0,0.0,0.0,0.0,0.0,0.0,0.0,0.0,0.0,0.0,0.0,0.0,0.0,0.0,0.0,0.0,0.0,0.0,0.0,0.0,0.0,0.0,-1.5223,-1.472,0.0,-1.3729,-1.3912,-1.3953,-1.3695,-1.4089,-1.4448,-1.4692,-1.4848,-1.5052,-1.5309,-1.5316,-1.5371,-1.5479,-1.5479,-1.5479,-1.5479,-1.5479,-1.5479,-1.5479,-1.5479,-1.5425,-1.533,-1.533,-1.5276,-1.5355,-1.6742,-1.7207,-1.7026,-1.6734,-1.6064,-1.5308,-1.5337,-1.4868,-1.436,-1.4407,-1.4421,-1.438,-1.415,-1.3824,-1.3485,-1.3234,-1.3119,-1.3091,-1.32,-1.3336,-1.3478,-1.3641,-1.3722,-1.3777,-1.3831,-1.3804,-1.3749,-1.3695,-1.36,-1.3437,-1.3139,-1.2725,-1.2298,-1.1891,-1.1904,-1.185,-1.1511,-1.1748,-1.204,-1.2237,-1.24,-1.2528,-1.2708,-1.2549,-1.2515,-1.2569,-1.2433,-1.2366,-1.242,-1.2372,-1.2345,-1.2345,-1.1637,-0.9645,-0.6251,-0.536,-0.3317,0.0,0.0,0.0,0.0,0.0,0.0,0.0,0.0,0.0,0.0,0.0,0.0,0.0,0.0,0.0,0.0,0.0,0.0,0.0,0.0,0.0,0.0,0.0,0.0,0.0,-1.5617,-1.5585,-1.4531,-1.4767,-1.4869,-1.4421,-1.4604,-1.4685,-1.4536,-1.4848,-1.5126,-1.5323,-1.5432,-1.5554,-1.571,-1.5662,-1.5662,-1.571,-1.5662,-1.5642,-1.5642,-1.5642,-1.5642,-1.5642,-1.5642,-1.5581,-1.5486,-1.5486,-1.4947,-1.3988,-1.3988,-1.3364,-1.2693,-1.4113,-1.474,-1.474,-1.474,-1.474,-1.4746,-1.4801,-1.4821,-1.476,-1.4414,-1.3569,-1.2712,-1.2539,-1.2515,-1.2558,-1.2607,-1.3294,-1.4082,-1.4129,-1.4143,-1.4143,-1.4143,-1.4068,-1.3994,-1.3994,-1.3912,-1.3783,-1.3587,-1.3146,-1.2691,-1.2345,-1.2372,-1.2318,-1.1972,-1.2216,-1.2474,-1.2569,-1.2712,-1.2847,-1.2949,-1.2868,-1.2807,-1.2807,-1.2617,-1.2522,-1.2576,-1.2433,-1.2379,-1.2427,-1.2244,-1.0289,-0.6258,-0.476,-0.2692,0.0,0.0,0.0,0.0,0.0,0.0,0.0,0.0,0.0,0.0,0.0,0.0,0.0,0.0,0.0,0.0,0.0,0.0,0.0,0.0,0.0,0.0,0.0,0.0,-1.3779,-1.4373,-1.4608,-1.448,-1.5013,-1.5281,-1.4852,-1.5099,-1.5292,-1.5138,-1.5265,-1.5351,-1.5351,-1.5358,-1.5431,-1.5663,-1.5438,-1.5431,-1.5669,-1.5431,-1.5365,-1.5358,-1.5365,-1.5365,-1.5358,-1.5358,-1.5358,-1.5351,-1.5351,-1.3873,-1.1523,-1.1523,-0.9963,-0.8095,-1.3003,-1.4999,-1.4999,-1.4993,-1.4993,-1.4973,-1.4839,-1.4792,-1.4765,-1.4519,-1.2721,-1.062,-1.062,-1.054,-1.0392,-1.0585,-1.2339,-1.428,-1.4517,-1.4557,-1.4557,-1.4649,-1.4523,-1.4312,-1.4306,-1.4075,-1.3858,-1.3851,-1.362,-1.3281,-1.2827,-1.2752,-1.2698,-1.2542,-1.2644,0.0,-1.2745,-1.2881,-1.2983,-1.2983,-1.2976,-1.2976,-1.2976,-1.2691,-1.2491,-1.2633,-1.2235,-1.206,-1.2132,-1.1777,-0.9792,-0.597,-0.2035,0.0,0.0,0.0,0.0,0.0,0.0,0.0,0.0,0.0,0.0,0.0,0.0,0.0,0.0,0.0,0.0,0.0,0.0,0.0,0.0,0.0,0.0,0.0,-0.9666,-1.014,-1.3951,-1.4733,-1.43,-1.2735,-1.2725,-1.1999,-0.9954,-0.9917,-0.9926,-0.9738,-0.9913,-0.9964,-0.9964,-0.9998,-1.0083,-1.0209,-1.0083,-1.0083,-1.0209,-1.0083,-1.0136,-1.0072,-1.014,-1.0136,-1.0067,-1.0067,-1.0033,-0.9964,-0.9964,-0.9436,-0.8697,-0.8697,-0.8308,-0.7713,-0.9156,-0.9685,-0.9677,-0.9703,-0.9677,-0.9672,-0.9646,-0.9637,-0.9624,-0.9432,-0.8922,-0.8243,-0.8091,-0.8057,-0.8046,-0.8068,-0.8624,-0.9543,-1.1501,-1.1964,-1.2426,-1.4277,-1.4679,-1.459,-1.4475,-1.4387,-1.4265,-1.4048,-1.3939,-1.3743,-1.3295,-1.322,-1.3132,-1.2874,-1.2956,-1.3051,-1.3051,-1.3281,-1.3444,-1.3444,-1.3349,-1.3281,-1.3281,-1.2901,-1.2005,-1.0526,-1.0261,-0.9482,-0.7982,-0.7853,-0.655,-0.3912,-0.1334,0.0,0.0,0.0,0.0,0.0,0.0,0.0,0.0,0.0,0.0,0.0,0.0,0.0,0.0,0.0,0.0,0.0,0.0,0.0,0.0,0.0,0.0,0.0,-0.7781,-0.8243,-1.1362,-1.191,-1.1569,-1.0235,-1.0136,-0.9581,-0.8069,-0.7867,-0.7851,-0.7811,-0.7844,-0.7867,-0.7867,-0.7947,-0.7994,-0.7994,-0.7994,-0.7994,-0.7994,-0.7994,-0.7974,-0.8035,-0.7974,-0.7974,-0.8032,-0.8032,-0.7907,-0.7867,-0.7867,-0.7227,-0.6073,-0.6073,-0.5464,-0.4648,0.0,0.0,0.0,0.0,-0.7619,-0.7595,-0.7595,-0.7595,-0.7589,-0.7541,-0.6776,-0.5831,-0.58,-0.5696,-0.5696,-0.5696,-0.6442,-0.7931,-1.0445,-1.1094,-1.1748,-1.427,-1.4882,-1.4814,-1.4726,-1.4652,-1.4536,-1.4299,-1.4258,0.0,-1.3749,-1.3627,-1.3505,-1.3275,-1.3363,-1.3431,-1.337,-1.3573,-1.3715,-1.3715,-1.3641,-1.316,-1.2221,-1.1685,0.0,0.0,0.0,-0.7333,-0.6053,-0.5295,0.0,0.0,0.0,0.0,0.0,0.0,0.0,0.0,0.0,0.0,0.0,0.0,0.0,0.0,0.0,0.0,0.0,0.0,0.0,0.0,0.0,0.0,0.0,0.0,0.0,0.0,-0.6557,-0.6623,-0.6841,-0.697,-0.7074,-0.7361,-0.747,-0.7441,-0.7132,-0.7132,-0.7132,-0.7132,-0.7132,-0.7132,-0.7132,-0.7138,0.0,0.0,0.0,-0.7144,-0.7144,-0.7144,-0.7141,-0.7132,-0.7141,-0.7138,-0.7132,-0.7132,-0.7132,-0.7132,-0.7132,-0.5764,-0.3578,-0.3578,-0.2138,-0.0404,-0.4938,-0.6753,-0.6738,-0.6779,-0.6714,-0.6752,-0.6752,0.0,0.0,-0.6743,-0.5225,-0.3329,-0.3329,-0.3329,-0.3329,-0.3329,-0.5036,-0.7311,-0.987,-1.0536,-1.1291,-1.4134,-1.4706,-1.4706,-1.4977,-1.4862,-1.4719,-1.457,-1.426,-1.4001,-1.3745,-1.3814,-1.3817,-1.3675,-1.3756,-1.3619,-1.3238,-1.3344,-1.3343,-1.3079,-1.2993,0.0,-1.0047,-0.9593,-0.8501,-0.6259,-0.5534,-0.5117,-0.5006,-0.3442,-0.2548,-0.2398,-0.0827,0.0,0.0,0.0,0.0,0.0,0.0,0.0,0.0,0.0,0.0,0.0,0.0,0.0,0.0,0.0,0.0,0.0,0.0,0.0,0.0,0.0,0.0,-0.4061,-0.2588,-0.1426,-0.1545,-0.1462,-0.2304,-0.4432,-0.4747,-0.3934,-0.1762,-0.1556,-0.1556,-0.1556,-0.1556,-0.1556,-0.1556,-0.1567,-0.1573,-0.1573,-0.1573,-0.1573,-0.1573,-0.1573,-0.1567,-0.1556,-0.1567,0.0,-0.1556,-0.1556,-0.1556,-0.1556,-0.1556,-0.1244,-0.0724,-0.0724,-0.0515,-0.0102,-0.11,-0.1481,-0.1471,-0.1467,-0.1458,-0.1446,-0.1446,-0.1439,-0.143,-0.143,-0.1144,-0.0763,-0.0763,-0.0763,0.0,-0.0763,-0.1048,-0.2096,-0.4563,-0.5225,-0.6456,-1.1008,-1.2129,-1.2653,-1.462,-1.495,-1.4882,-1.4726,-1.3035,-1.155,-1.1502,-1.2939,-1.3973,-1.3824,-1.3824,-1.3133,-1.1207,-1.1053,-1.0421,-0.8411,-0.8237,-0.8062,-0.7625,-0.7291,-0.6214,-0.4129,-0.2173,-0.1108,-0.1103,-0.0716,-0.056,-0.056,-0.0161,0.0,0.0,0.0,0.0,0.0,0.0,0.0,0.0,0.0,0.0,0.0,0.0,0.0,0.0,0.0,0.0,0.0,0.0,-0.4698,-0.3574,0.0,-0.1668,-0.1708,-0.072,0.0,0.0,0.0,-0.0536,-0.1789,-0.2011,-0.1491,-0.0107,0.0,0.0,0.0,0.0,0.0,0.0,0.0,0.0,0.0,0.0,0.0,0.0,0.0,0.0,0.0,0.0,0.0,0.0,0.0,0.0,0.0,0.0,0.0,0.0,0.0,0.0,0.0,0.0,0.0,0.0,0.0,0.0,0.0,0.0,0.0,0.0,0.0,0.0,0.0,0.0,0.0,0.0,0.0,0.0,-0.0572,-0.3139,-0.3803,-0.4751,-0.8637,-0.9492,-0.9857,-1.1033,-1.1304,-1.1268,-1.1058,-1.0018,-0.9078,-0.9032,-0.9911,-1.058,-1.047,-1.045,-0.999,-0.8882,-0.874,-0.8329,-0.7092,-0.7003,-0.6561,-0.5322,-0.4005,-0.282,-0.1767,-0.0663,0.0,0.0,0.0,0.0,0.0,0.0,0.0,0.0,0.0,0.0,0.0,0.0,0.0,0.0,0.0,0.0,0.0,0.0,0.0,0.0,-0.6173,-0.5482,-0.3158,-0.2642,-0.2123,-0.0297,0.0,0.0,0.0,0.0,0.0,0.0,0.0,0.0,0.0,0.0,0.0,0.0,0.0,0.0,0.0,0.0,0.0,0.0,0.0,0.0,0.0,0.0,0.0,0.0,0.0,0.0,0.0,0.0,0.0,0.0,0.0,0.0,0.0,0.0,0.0,0.0,0.0,0.0,0.0,0.0,0.0,0.0,0.0,0.0,0.0,0.0,0.0,0.0,0.0,0.0,0.0,0.0,0.0,0.0,0.0,0.0,-0.0477,-0.257,-0.3044,-0.3708,-0.6269,-0.6838,-0.7027,-0.7501,-0.7595,-0.7575,-0.742,-0.7032,-0.6643,-0.6499,-0.603,-0.6005,-0.6932,-0.7101,-0.6896,-0.6482,-0.6383,-0.6204,-0.5758,-0.5755,-0.4944,-0.3055,-0.1149,0.0,0.0,0.0,0.0,0.0,0.0,0.0,0.0,0.0,0.0,0.0,0.0,0.0,0.0,0.0,0.0,-0.7292,-0.7177,-0.7043,-0.7026,-0.7011,-0.6501,0.0,-0.4083,-0.3423,-0.09,-0.0406,-0.0309,0.0,0.0,0.0,0.0,0.0,0.0,0.0,0.0,0.0,0.0,0.0,0.0,0.0,0.0,0.0,0.0,0.0,0.0,0.0,0.0,0.0,0.0,0.0,0.0,0.0,0.0,0.0,0.0,0.0,0.0,0.0,0.0,0.0,0.0,0.0,0.0,0.0,0.0,0.0,0.0,0.0,0.0,0.0,0.0,0.0,0.0,0.0,0.0,0.0,0.0,0.0,0.0,0.0,0.0,0.0,0.0,0.0,-0.0095,-0.0382,-0.0382,-0.1048,-0.3613,-0.4183,-0.4846,-0.7122,-0.7595,-0.7592,-0.7582,-0.5784,-0.4174,-0.417,-0.2277,-0.2264,-0.646,-0.7085,-0.6348,-0.4232,-0.3956,-0.313,-0.1014,-0.083,-0.0643,-0.0455,-0.018,0.0,0.0,0.0,0.0,0.0,0.0,0.0,0.0,0.0,0.0,0.0,0.0,0.0,0.0,0.0,0.0,-0.5347,-0.4977,-0.4698,-0.3313,-0.2998,-0.2758,-0.1848,-0.157,-0.1274,-0.021,0.0,0.0,0.0,0.0,0.0,0.0,0.0,0.0,0.0,0.0,0.0,0.0,0.0,0.0,0.0,0.0,0.0,0.0,0.0,0.0,0.0,0.0,0.0,0.0,0.0,0.0,0.0,0.0,0.0,0.0,0.0,0.0,0.0,0.0,0.0,0.0,0.0,0.0,0.0,0.0,0.0,0.0,0.0,0.0,0.0,0.0,0.0,0.0,0.0,0.0,0.0,0.0,0.0,0.0,0.0,0.0,0.0,0.0,0.0,0.0,0.0,0.0,-0.0291,-0.1356,-0.1543,-0.1921,-0.2974,-0.3152,-0.3141,-0.3141,-0.2285,-0.162,-0.162,-0.0668,-0.0666,-0.2636,-0.2994,-0.2604,-0.1666,-0.1479,-0.111,-0.0093,0.0,0.0,0.0,0.0,0.0,0.0,0.0,0.0,0.0,0.0,0.0,0.0,0.0,0.0,0.0,0.0,0.0,0.0,0.1505,0.2257,-0.3247,-0.2745,-0.2308,-0.051,0.0,0.0,0.0,0.0,0.0,0.0,0.0,0.0,0.0,0.0,0.0,0.0,0.0,0.0,0.0,0.0,0.0,0.0,0.0,0.0,0.0,0.0,0.0,0.0,0.0,0.0,0.0,0.0,0.0,0.0,0.0,0.0,0.0,0.0,0.0,0.0,0.0,0.0,0.0,0.0,0.0,0.0,0.0,0.0,0.0,0.0,0.0,0.0,0.0,0.0,0.0,0.0,0.0,0.0,0.0,0.0,0.0,0.0,0.0,0.0,0.0,0.0,0.0,0.0,0.0,0.0,0.0,0.0,0.0,0.0,0.0,0.0,0.0,0.0,0.0,0.0,0.0,0.0,0.0,0.0,0.0,0.0,0.0,0.0,0.0,0.0,0.0,0.0,0.0,0.0,0.0,0.0,0.0,0.0,0.0,0.0,0.0,0.0,0.0,0.0,0.0,0.0375,0.1037,0.1037,0.142,0.2096,0.3993,0.5225,-0.0095,-0.01,-0.0105,0.0,0.0,0.0,0.0,0.0,0.0,0.0,0.0,0.0,0.0,0.0,0.0,0.0,0.0,0.0,0.0,0.0,0.0,0.0,0.0,0.0,0.0,0.0,0.0,0.0,0.0,0.0,0.0,0.0,0.0,0.0,0.0,0.0,0.0,0.0,0.0,0.0,0.0,0.0,0.0,0.0,0.0,0.0,0.0,0.0,0.0,0.0,0.0,0.0,0.0,0.0,0.0,0.0,0.0,0.0,0.0,0.0,0.0,0.0,0.0,0.0,0.0,0.0,0.0,0.0,0.0,0.0,0.0,0.0,0.0,0.0,0.0,0.0,0.0,0.0,0.0,0.0,0.0,0.0,0.0,0.0,0.0,0.0,0.0,0.0,0.0,0.0,0.0,0.0,0.0,0.0,0.0,0.0,0.0,0.0,0.0,0.0,0.0,0.0,0.0,0.0,0.0,0.1238,0.3706,0.3706,0.4941,0.7406,0.7406,0.8826,0.0,0.0,0.0,0.0,0.0,0.0,0.0,0.0,0.0,0.0,0.0,0.0,0.0,0.0,0.0,0.0,0.0,0.0,0.0,0.0,0.0,0.0,0.0,0.0,0.0,0.0,0.0,0.0,0.0,0.0,0.0,0.0,0.0,0.0,0.0,0.0,0.0,0.0,0.0,0.0,0.0,0.0,0.0,0.0,0.0,0.0,0.0,0.0,0.0,0.0,0.0,0.0,0.0,0.0,0.0,0.0,0.0,0.0,0.0,0.0,0.0,0.0,0.0,0.0,0.0,0.0,0.0,0.0,0.0,0.0,0.0,0.0,0.0,0.0,0.0,0.0,0.0,0.0,0.0,0.0,0.0,0.0,0.0,0.0,0.0,0.0,0.0,0.0,0.0,0.0,0.0,0.0,0.0,0.0,0.0,0.0,0.0,0.0,0.0,0.0,0.0,0.1612,0.2562,0.2475,0.4183,0.551,0.6364,0.6364,0.6743,0.7595,0.9299,1.0531,0.0,0.0,0.0,0.0,0.0,0.0,0.0,0.0,0.0,0.0,0.0,0.0,0.0,0.0,0.0,0.0,0.0,0.0,0.0,0.0,0.0,0.0,0.0,0.0,0.0,0.0,0.0,0.0,0.0,0.0,0.0,0.0,0.0,0.0,0.0,0.0,0.0,0.0,0.0,0.0,0.0,0.0,0.0,0.0,0.0,0.0,0.0,0.0,0.0,0.0,0.0,0.0,0.0,0.0,0.0,0.0,0.0,0.0,0.0,0.0,0.0,0.0,0.0,0.0,0.0,0.0,0.0,0.0,0.0,0.0,0.0,0.0,0.0,0.0,0.0,0.0,0.0,0.0,0.0,0.0,0.0,0.0,0.0,0.0,0.0,0.0,0.0,0.0,0.0,0.0,0.0,0.0,0.0,0.0,0.0,0.0,0.0,0.0,0.0858,0.1334,0.1334,0.3803,0.514,0.5253,0.6871,0.8123,0.9108,0.9076,0.9534,1.0393,1.1972,1.2716,0.0,0.0,0.0,0.0,0.0,0.0,0.0,0.0,0.0,0.0,0.0,0.0,0.0,0.0,0.0,0.0,0.0,0.0,0.0,0.0,0.0,0.0,0.0,0.0,0.0,0.0,0.0,0.0,0.0,0.0,0.0,0.0,0.0,0.0,0.0,0.0,0.0,0.0,0.0,0.0,0.0,0.0,0.0,0.0,0.0,0.0,0.0,0.0,0.0,0.0,0.0,0.0,0.0,0.0,0.0,0.0,0.0,0.0,0.0,0.0,0.0,0.0,0.0,0.0,0.0,0.0,0.0,0.0,0.0,0.0,0.0,0.0,0.0,0.0,0.0,0.0,0.0,0.0,0.0,0.0,0.0,0.0,0.0,0.0,0.0,0.0,0.0,0.0,0.0,0.0,0.0,0.0,0.0,0.0,0.0,0.0095,0.0191,0.0191,0.2572,0.3995,0.3995,0.6464,0.7827,0.7996,0.8096,0.9486,1.2008,1.1898,1.3005,1.5418,1.5276,1.5208,0.0,0.0,0.0,0.0,0.0,0.0,0.0,0.0,0.0,0.0,0.0,0.0,0.0,0.0,0.0,0.0,0.0,0.0,0.0,0.0,0.0,0.0,0.0,0.0,0.0,0.0,0.0,0.0,0.0,0.0,0.0,0.0,0.0,0.0,0.0,0.0,0.0,0.0,0.0,0.0,0.0,0.0,0.0,0.0,0.0,0.0,0.0,0.0,0.0,0.0,0.0,0.0,0.0,0.0,0.0,0.0,0.0,0.0,0.0,0.0,0.0,0.0,0.0,0.0,0.0,0.0,0.0,0.0,0.0,0.0,0.0,0.0,0.0,0.0,0.0,0.0,0.0,0.0,0.0,0.0,0.0,0.0,0.0,0.0,0.0,0.0,0.0,0.0,0.0,0.0,0.0,0.0,0.0,0.0,0.0,0.1715,0.2864,0.2981,0.538,0.6818,0.6818,0.9273,1.0734,1.0586,1.2604,1.394,1.4654,1.4616,1.4899,1.5581,1.554,1.552,0.0,0.0,0.0,0.0,0.0,0.0,0.0,0.0,0.0,0.0,0.0,0.0,0.0,0.0,0.0,0.0,0.0,0.0,0.0,0.0,0.0,0.0,0.0,0.0,0.0,0.0,0.0,0.0,0.0,0.0,0.0,0.0,0.0,0.0,0.0,0.0,0.0,0.0,0.0,0.0,0.0,0.0,0.0,0.0,0.0,0.0,0.0,0.0,0.0,0.0,0.0,0.0,0.0,0.0,0.0,0.0,0.0,0.0,0.0,0.0,0.0,0.0,0.0,0.0,0.0,0.0,0.0,0.0,0.0,0.0,0.0,0.0,0.0,0.0,0.0,0.0,0.0,0.0,0.0,0.0,0.0,0.0,0.0,0.0,0.0,0.0,0.0,0.0393,0.1644,0.0773,0.0,0.0,0.1062,0.1737,0.1737,0.4141,0.5688,0.572,0.8142,0.9595,0.9595,1.2079,1.3468,1.345,1.4996,1.5764,1.5832,1.5764,1.5737,1.573,1.5669,1.5642,0.0,0.0,0.0,0.0,0.0,0.0,0.0,0.0,0.0,0.0,0.0,0.0,0.0,0.0,0.0,0.0,0.0,0.0,0.0,0.0,0.0,0.0,0.0,0.0,0.0,0.0,0.0,0.0,0.0,0.0,0.0,0.0,0.0,0.0,0.0,0.0,0.0,0.0,0.0,0.0,0.0,0.0,0.0,0.0,0.0,0.0,0.0,0.0,0.0,0.0,0.0,0.0,0.0,0.0,0.0,0.0,0.0,0.0,0.0,0.0,0.0,0.0,0.0,0.0,0.0,0.0,0.0,0.0,0.0,0.0,0.0,0.0,0.0,0.0,0.0,0.0,0.0,0.0309,0.0512,0.0507,0.081,0.1113,0.1114,0.1113,0.1109,0.11,0.1099,0.1889,0.4231,0.216,0.0687,0.0981,0.3134,0.4502,0.4502,0.6939,0.8502,0.8514,1.0959,1.2326,1.2326,1.4504,1.575,1.5852,1.5872,1.5947,1.6083,1.5967,1.5906,1.5879,1.5778,1.5716,0.0,0.0,0.0,0.0,0.0,0.0,0.0,0.0,0.0,0.0,0.0,0.0,0.0,0.0,0.0,0.0,0.0,0.0,0.0,0.0,0.0,0.0,0.0,0.0,0.0,0.0,0.0,0.0,0.0,0.0,0.0,0.0,0.0,0.0,0.0,0.0,0.0,0.0,0.0,0.0,0.0,0.0,0.0,0.0,0.0,0.0,0.0,0.0,0.0,0.0,0.0,0.0,0.0,0.0,0.0,0.0,0.0,0.0,0.0,0.0,0.0,0.0,0.0,0.0,0.0,0.0,0.0,0.0,0.0,0.0,0.0,0.0,0.0,0.0,0.0,0.0,0.0,0.1864,0.351,0.3505,0.5322,0.6933,0.6982,0.6951,0.6811,0.6901,0.6901,0.6979,0.7311,0.494,0.4111,0.6354,0.7034,0.7329,0.7329,0.9667,1.1173,1.1358,1.3736,1.5218,1.5218,1.5736,1.5954,1.5852,1.5981,1.6056,1.6083,1.6185,1.6164,1.6042,1.6144,1.6123,0.0,0.0,0.0,0.0,0.0,0.0,0.0,0.0,0.0,0.0,0.0,0.0,0.0,0.0,0.0,0.0,0.0,0.0,0.0,0.0,0.0,0.0,0.0,0.0,0.0,0.0,0.0,0.0,0.0,0.0,0.0,0.0,0.0,0.0,0.0,0.0,0.0,0.0,0.0,0.0,0.0,0.0,0.0,0.0,0.0,0.0,0.0,0.0,0.0,0.0,0.0,0.0,0.0,0.0,0.0,0.0,0.0,0.0,0.0,0.0,0.0,0.0,0.0,0.0,0.0,0.0,0.0,0.0,0.0,0.0,0.0,0.1065,0.2232,0.2223,0.3382,0.4426,0.4385,0.5519,0.6444,0.6412,0.7517,0.8427,0.8462,0.8437,0.8413,0.8413,0.8413,0.8913,1.0198,0.9206,0.8321,0.8038,0.9316,1.0106,1.0106,1.2644,1.418,1.4174,1.5412,1.6171,1.6096,1.6232,1.6273,1.6205,1.6273,1.6313,1.6313,1.6381,1.6381,1.6313,1.6388,1.6381,0.0,0.0,0.0,0.0,0.0,0.0,0.0,0.0,0.0,0.0,0.0,0.0,0.0,0.0,0.0,0.0,0.0,0.0,0.0,0.0,0.0,0.0,0.0,0.0,0.0,0.0,0.0,0.0,0.0,0.0,0.0,0.0,0.0,0.0,0.0,0.0,0.0,0.0,0.0,0.0,0.0,0.0,0.0,0.0,0.0,0.0,0.0,0.0,0.0,0.0,0.0,0.0,0.0,0.0,0.0,0.0,0.0,0.0112,0.0785,0.1003,0.1107,0.1659,0.1091,0.0,0.0,0.043,0.0856,0.0862,0.1394,0.181,0.1814,0.3513,0.5101,0.5101,0.6899,0.847,0.8517,0.9027,0.9423,0.9358,0.9847,1.0256,1.0273,1.026,1.0248,1.0248,1.0248,1.0965,1.3113,1.3319,1.2426,1.0121,1.1698,1.3001,1.3028,1.5032,1.6273,1.6185,1.6395,1.6469,1.6361,1.6463,1.6524,1.6524,1.6524,1.6524,1.6524,1.6558,1.6551,1.6524,1.6558,1.6551,0.0,0.0,0.0,0.0,0.0,0.0,0.0,0.0,0.0,0.0,0.0,0.0,0.0,0.0,0.0,0.0,0.0,0.0,0.0,0.0,0.0,0.0,0.0,0.0,0.0,0.0,0.0,0.0,0.0,0.0,0.0,0.0,0.0,0.0,0.0,0.0,0.0,0.0,0.0,0.0,0.0,0.0,0.0,0.0,0.0,0.0,0.0,0.0,0.0,0.0,0.0,0.0,0.0,0.0,0.0,0.0,0.0,0.0337,0.3135,0.4119,0.4529,0.7173,0.4387,0.0,0.0,0.1736,0.3768,0.3771,0.5668,0.7759,0.7824,0.8006,0.8064,0.8064,0.8276,0.8484,0.8477,1.0484,1.2275,1.2265,1.429,1.6035,1.6171,1.608,1.5996,1.5996,1.5996,1.5944,1.6121,1.6108,1.5993,1.5762,1.5855,1.5929,1.6055,1.6172,1.6361,1.6476,1.6503,1.6517,1.6503,1.6517,1.6524,1.6524,1.6524,1.6524,1.6524,1.6659,1.6659,1.6524,1.6666,1.6653,0.0,0.0,0.0,0.0,0.0,0.0,0.0,0.0,0.0,0.0,0.0,0.0,0.0,0.0,0.0,0.0,0.0,0.0,0.0,0.0,0.0,0.0,0.0,0.0,0.0,0.0,0.0,0.0,0.0,0.0,0.0,0.0,0.0,0.0,0.0,0.0,0.0,0.0,0.0,0.0,0.0,0.0,0.0,0.0,0.0,0.0,0.0,0.0,0.0,0.0,0.0,0.0,0.0,0.0,0.0224,0.2017,0.2689,0.3135,0.6151,0.7134,0.7334,0.8553,0.732,0.5309,0.5393,0.6112,0.7051,0.6981,0.7812,0.8735,0.8766,1.0044,1.1728,1.337,1.3784,1.3656,1.3586,1.4528,1.5271,1.5271,1.6184,1.691,1.6971,1.6931,1.689,1.689,1.689,1.687,1.6809,1.6795,1.6795,1.6795,1.6585,1.6463,1.6517,1.6558,1.6558,1.6524,1.6693,1.6754,1.6659,1.6748,1.6795,1.6795,1.6795,1.6795,1.6802,1.6856,1.6856,1.6802,1.6863,1.6856,0.0,0.0,0.0,0.0,0.0,0.0,0.0,0.0,0.0,0.0,0.0,0.0,0.0,0.0,0.0,0.0,0.0,0.0,0.0,0.0,0.0,0.0,0.0,0.0,0.0,0.0,0.0,0.0,0.0,0.0,0.0,0.0,0.0,0.0,0.0,0.0,0.0,0.0,0.0,0.0,0.0,0.0,0.0,0.0,0.0,0.0,0.0,0.0,0.0112,0.1009,0.1346,0.1458,0.2241,0.2577,0.2911,0.5035,0.5815,0.6257,0.9156,1.0269,1.0384,1.1274,1.1608,1.1586,1.1519,1.0883,1.0171,1.0121,1.0753,1.146,1.1429,1.2975,1.4935,1.6862,1.7256,1.7229,1.7134,1.7114,1.7114,1.7114,1.7114,1.7114,1.7114,1.7114,1.7114,1.7114,1.7114,1.7114,1.7114,1.7114,1.7114,1.7114,1.6917,1.6754,1.6666,1.6714,1.672,1.6659,1.6863,1.6931,1.6822,1.6924,1.6978,1.6978,1.6978,1.6978,1.6978,1.7026,1.7039,1.7046,1.7087,1.7114,0.0,0.0,0.0,0.0,0.0,0.0,0.0,0.0,0.0,0.0,0.0,0.0,0.0,0.0,0.0,0.0,0.0,0.0,0.0,0.0,0.0,0.0,0.0,0.0,0.0,0.0,0.0,0.0,0.0,0.0,0.0,0.0,0.0,0.0,0.0,0.0,0.0,0.0,0.0,0.0,0.0,0.0,0.0,0.0,0.0,0.0,0.0,0.0,0.0224,0.3247,0.4474,0.47,0.7708,0.8819,0.8819,0.8822,0.8822,0.9271,1.2274,1.3389,1.3843,1.6852,1.786,1.786,1.786,1.5643,1.3121,1.3121,1.5213,1.75,1.7352,1.7426,1.75,1.7453,1.7419,1.7419,1.7419,1.7412,1.7412,1.7412,1.7412,1.7412,1.7412,1.7412,1.7412,1.7412,1.7412,1.7412,1.7412,1.7412,1.7412,1.7412,1.7412,1.7297,1.6998,1.6836,1.6815,1.6965,1.6978,1.6978,1.6978,1.6978,1.6978,1.6978,1.6978,1.6978,1.6978,1.7121,1.7188,1.7195,1.7344,1.7412,0.0,0.0,0.0,0.0,0.0,0.0,0.0,0.0,0.0,0.0,0.0,0.0,0.0,0.0,0.0,0.0,0.0,0.0,0.0,0.0,0.0,0.0,0.0,0.0,0.0,0.0,0.0,0.0,0.0,0.0,0.0,0.0,0.0,0.0,0.0,0.0,0.0,0.0,0.0,0.0,0.0,0.0,0.0,0.0,0.0,0.0,0.0,0.0,0.0112,0.1009,0.1458,0.157,0.2465,0.4027,0.6151,0.8157,1.0158,1.2385,1.5395,1.6514,1.6631,1.7632,1.786,1.786,1.786,1.7164,1.6451,1.6451,1.7125,1.7792,1.7738,1.7758,1.7758,1.7609,1.7575,1.7548,1.7446,1.7419,1.7419,1.7419,1.7419,1.7419,1.7419,1.7419,1.7419,1.7419,1.7419,1.7419,1.7419,1.7419,1.7419,1.7419,1.7419,1.7385,1.729,1.7236,1.7229,1.7277,1.7283,1.7283,1.7283,1.7182,1.7127,1.7127,1.7127,1.7127,1.7127,1.7277,1.7351,1.7351,1.7399,1.7419,0.0,0.0,0.0,0.0,0.0,0.0,0.0,0.0,0.0,0.0,0.0,0.0,0.0,0.0,0.0,0.0,0.0,0.0,0.0,0.0,0.0,0.0,0.0,0.0,0.0,0.0,0.0,0.0,0.0,0.0,0.0,0.0,0.0,0.0,0.0,0.0,0.0,0.0,0.0,0.0,0.0,0.0,0.0,0.0,0.0,0.0,0.0,0.0,0.0,0.1234,0.2353,0.3471,0.4588,0.693,0.982,1.1612,1.35,1.5395,1.7197,1.786,1.786,1.786,1.786,1.786,1.786,1.786,1.786,1.786,1.786,1.786,1.786,1.786,1.7846,1.7758,1.7738,1.7704,1.7609,1.7589,1.7589,1.7589,1.7589,1.7589,1.7589,1.7589,1.7589,1.7589,1.7589,1.7589,1.7589,1.7589,1.7589,1.7589,1.7589,1.7589,1.7589,1.7487,1.7419,1.7419,1.7419,1.7419,1.7419,1.7331,1.7277,1.7277,1.7277,1.7277,1.7277,1.7433,1.7534,1.7589,1.7589,1.7589,0.0,0.0,0.0,0.0,0.0,0.0,0.0,0.0,0.0,0.0,0.0,0.0,0.0,0.0,0.0,0.0,0.0,0.0,0.0,0.0,0.0,0.0,0.0,0.0,0.0,0.0,0.0,0.0,0.0,0.0,0.0,0.0,0.0,0.0,0.0,0.0,0.0,0.0,0.0,0.0,0.0,0.0,0.0,0.0,0.0,0.0,0.0224,0.0337,0.0561,0.3583,0.6481,0.9156,1.1937,1.4958,1.7632,1.7632,1.7749,1.786,1.786,1.786,1.786,1.786,1.786,1.786,1.786,1.786,1.786,1.786,1.786,1.786,1.786,1.786,1.786,1.786,1.786,1.786,1.786,1.786,1.786,1.786,1.786,1.786,1.786,1.786,1.786,1.786,1.786,1.786,1.786,1.786,1.786,1.786,1.786,1.786,1.786,1.7609,1.7453,1.7453,1.7453,1.7453,1.7453,1.7439,1.7439,1.7439,1.7439,1.7439,1.7453,1.7595,1.7738,1.786,1.786,1.786,0.0,0.0,0.0,0.0,0.0,0.0,0.0,0.0,0.0,0.0,0.0,0.0,0.0,0.0,0.0,0.0,0.0,0.0,0.0,0.0,0.0,0.0,0.0,0.0,0.0,0.0,0.0,0.0,0.0,0.0,0.0,0.0,0.0,0.0,0.0,0.0,0.0,0.0,0.0,0.0,0.0,0.0,0.0,0.0,0.0,0.0112,0.2465,0.3471,0.3695,0.6592,0.8268,0.8933,0.9709,1.1825,1.4503,1.4503,1.596,1.786,1.786,1.786,1.786,1.786,1.786,1.786,1.786,1.786,1.786,1.786,1.786,1.786,1.786,1.786,1.786,1.786,1.786,1.786,1.786,1.786,1.786,1.786,1.786,1.786,1.786,1.786,1.786,1.786,1.786,1.786,1.786,1.786,1.786,1.786,1.786,1.786,1.786,1.7792,1.7758,1.7758,1.7758,1.7758,1.7758,1.765,1.7595,1.7595,1.7595,1.765,1.7758,1.7792,1.7826,1.786,1.786,1.786,0.0,0.0,0.0,0.0,0.0,0.0,0.0,0.0,0.0,0.0,0.0,0.0,0.0,0.0,0.0,0.0,0.1003,0.1829,0.187,0.0747,0.0,0.0,0.0,0.0,0.0,0.0,0.0,0.0,0.0,0.0,0.0,0.0,0.0,0.0,0.0,0.0,0.0,0.0,0.0,0.0,0.0,0.0,0.0,0.1458,0.2017,0.2241,0.5255,0.6481,0.6592,0.8268,0.9709,1.0937,1.0937,1.2839,1.5506,1.5506,1.6514,1.786,1.786,1.786,1.786,1.786,1.786,1.786,1.786,1.786,1.786,1.786,1.786,1.786,1.786,1.786,1.786,1.786,1.786,1.786,1.786,1.786,1.786,1.786,1.786,1.786,1.786,1.786,1.786,1.786,1.786,1.786,1.786,1.786,1.786,1.786,1.786,1.786,1.786,1.786,1.786,1.786,1.786,1.786,1.786,1.7792,1.7758,1.7758,1.7758,1.7792,1.786,1.786,1.786,1.786,1.786,1.786,0.0,0.0,0.0,0.0,0.0,0.0,0.0,0.0,0.0,0.0,0.0,0.0,0.0,0.0,0.0099,0.0595,0.2908,0.4706,0.4769,0.281,0.1323,0.1359,0.1362,0.1368,0.1388,0.0921,0.0685,0.0681,0.0227,0.0,0.0,0.0,0.0,0.0,0.0,0.0,0.0,0.0,0.0,0.0,0.0449,0.0673,0.0785,0.3806,0.5143,0.5366,0.8268,0.9598,0.9598,1.0047,1.1821,1.4054,1.4054,1.5622,1.786,1.786,1.786,1.786,1.786,1.786,1.786,1.786,1.786,1.786,1.786,1.786,1.786,1.786,1.786,1.786,1.786,1.786,1.786,1.786,1.786,1.786,1.786,1.786,1.786,1.786,1.786,1.786,1.786,1.786,1.786,1.786,1.786,1.786,1.786,1.786,1.786,1.786,1.786,1.786,1.786,1.786,1.786,1.786,1.786,1.786,1.786,1.786,1.786,1.786,1.786,1.786,1.786,1.786,1.786,1.786,1.786,1.786,0.0,0.0,0.0,0.0,0.0,0.0,0.0,0.0,0.0,0.0,0.0,0.0,0.0,0.0,0.0793,0.3145,0.6047,0.8,0.8016,0.7683,0.7587,0.7556,0.7533,0.7527,0.7485,0.5301,0.3818,0.3814,0.1461,0.0,0.0,0.0,0.0,0.0,0.0,0.0,0.0,0.0,0.0,0.0,0.2577,0.3806,0.3918,0.693,0.8268,0.8373,1.1385,1.2723,1.2935,1.5506,1.6741,1.7197,1.7197,1.7522,1.786,1.786,1.786,1.786,1.786,1.786,1.786,1.786,1.786,1.786,1.786,1.786,1.786,1.786,1.786,1.786,1.786,1.786,1.786,1.786,1.786,1.786,1.786,1.786,1.786,1.786,1.786,1.786,1.786,1.786,1.786,1.786,1.786,1.786,1.786,1.786,1.786,1.786,1.786,1.786,1.786,1.786,1.786,1.786,1.786,1.786,1.786,1.786,1.786,1.786,1.786,1.786,1.786,1.786,1.786,1.786,1.786,1.786,0.0,0.0,0.0,0.0,0.0,0.0,0.0,0.0,0.0408,0.1807,0.0994,0.0887,0.3721,0.3256,0.3892,0.82,0.8921,0.9341,1.0797,0.9848,0.8879,0.8916,0.8899,0.8899,0.8933,0.7631,0.693,0.693,0.559,0.4812,0.4812,0.4812,0.4812,0.4812,0.4812,0.4812,0.4812,0.4812,0.4027,0.2465,0.5478,0.693,0.693,0.9935,1.1385,1.1497,1.4503,1.585,1.596,1.7307,1.786,1.786,1.786,1.786,1.786,1.786,1.786,1.786,1.786,1.786,1.786,1.786,1.786,1.786,1.786,1.7914,1.7968,1.788,1.786,1.786,1.786,1.786,1.786,1.786,1.786,1.786,1.786,1.786,1.788,1.7968,1.7914,1.7914,1.8077,1.8036,1.7989,1.7989,1.7989,1.7948,1.788,1.786,1.786,1.786,1.786,1.786,1.786,1.786,1.786,1.786,1.786,1.786,1.786,1.786,1.786,1.786,1.786,1.786,1.786,1.786,1.786,1.786,1.7948,1.7989,0.0,0.0,0.0,0.0,0.0,0.0,0.0,0.0519,0.1642,0.3543,0.2902,0.3274,0.7228,0.7184,0.7911,1.2216,1.1838,1.1694,1.3739,1.2277,1.0966,1.1032,1.1041,1.1041,1.1041,1.0424,0.9935,0.9935,0.9271,0.8933,0.8933,0.8933,0.8933,0.8933,0.8933,0.8933,0.8933,0.9598,0.8485,0.559,0.8485,0.9935,1.0047,1.3051,1.4503,1.462,1.6858,1.786,1.786,1.786,1.786,1.786,1.786,1.786,1.786,1.786,1.786,1.786,1.786,1.788,1.7914,1.7914,1.7935,1.7968,1.7968,1.8057,1.8111,1.7948,1.7914,1.7914,1.788,1.786,1.786,1.786,1.786,1.786,1.786,1.7901,1.7948,1.8077,1.8023,1.8036,1.8287,1.8213,1.8145,1.8145,1.8145,1.8111,1.7989,1.7968,1.7968,1.7968,1.7968,1.7968,1.7968,1.7968,1.7968,1.7968,1.7968,1.7968,1.7968,1.7968,1.7968,1.7968,1.7968,1.7948,1.7914,1.7914,1.7914,1.7914,1.8036,1.8111,0.0,0.0,0.0,0.0,0.0,0.0,0.0,0.2215,0.4197,0.4439,0.6358,0.8229,0.8536,1.0669,1.2444,1.2685,1.5153,1.7064,1.7295,1.7209,1.7197,1.7197,1.7216,1.7216,1.7216,1.473,1.3051,1.3051,1.0496,0.8933,0.8933,0.8933,0.8933,0.8933,0.8933,0.8933,0.8933,1.1723,1.1608,0.8596,1.1612,1.3051,1.3162,1.6188,1.7632,1.7632,1.786,1.786,1.786,1.786,1.786,1.786,1.786,1.786,1.786,1.786,1.786,1.786,1.786,1.7948,1.8077,1.8077,1.8179,1.8287,1.8287,1.8301,1.8267,1.8124,1.8077,1.8036,1.7901,1.786,1.786,1.786,1.786,1.786,1.786,1.7968,1.8077,1.8091,1.8199,1.8301,1.8321,1.8301,1.8301,1.8301,1.8301,1.8301,1.8287,1.8287,1.8287,1.8287,1.8287,1.8287,1.8287,1.8287,1.8287,1.8287,1.8287,1.8287,1.8287,1.8287,1.8287,1.8287,1.8287,1.8213,1.8077,1.8077,1.8077,1.8077,1.8091,1.8165,0.0,0.1204,0.2522,0.2566,0.3908,0.4743,0.3152,0.3698,0.5494,0.8944,0.9206,0.9388,1.1222,1.3741,1.5605,1.572,1.6839,1.7772,1.7772,1.7826,1.786,1.786,1.786,1.786,1.786,1.6858,1.6188,1.6188,1.5243,1.4619,1.4619,1.4691,1.4707,1.4619,1.4619,1.4592,1.4503,1.5622,1.5622,1.4503,1.5622,1.6188,1.6286,1.7405,1.786,1.786,1.786,1.786,1.786,1.786,1.786,1.788,1.7968,1.8002,1.8023,1.8111,1.8145,1.8145,1.8145,1.8179,1.8233,1.8233,1.8267,1.8321,1.8321,1.8375,1.8423,1.8267,1.8301,1.8287,1.7948,1.786,1.786,1.786,1.7935,1.8002,1.8002,1.8124,1.8267,1.8355,1.8335,1.8375,1.8565,1.8511,1.8443,1.8443,1.8443,1.8423,1.8335,1.8321,1.8321,1.8321,1.8321,1.8321,1.8321,1.8409,1.8443,1.8443,1.8375,1.8321,1.8321,1.8321,1.8321,1.8321,1.8321,1.8287,1.8233,1.8233,1.8233,1.8233,1.8321,1.8389,0.1295,0.3179,0.5288,0.5406,0.6849,0.8,0.7354,0.7217,0.8316,1.2166,1.2228,1.2184,1.4101,1.5954,1.7317,1.748,1.7704,1.786,1.786,1.786,1.786,1.786,1.786,1.786,1.786,1.786,1.786,1.786,1.7968,1.8023,1.8023,1.8124,1.8124,1.8023,1.8023,1.7968,1.786,1.786,1.786,1.786,1.786,1.786,1.786,1.786,1.786,1.786,1.786,1.786,1.786,1.786,1.786,1.788,1.8036,1.8091,1.8111,1.8267,1.8321,1.8321,1.8321,1.8355,1.8389,1.8389,1.8423,1.8464,1.8464,1.8531,1.8565,1.8423,1.8464,1.8443,1.8091,1.8002,1.8002,1.8002,1.8091,1.8158,1.8158,1.8287,1.8409,1.8511,1.8498,1.8531,1.8728,1.8674,1.8599,1.8599,1.8599,1.8565,1.8477,1.8464,1.8464,1.8464,1.8464,1.8464,1.8464,1.8552,1.8599,1.8599,1.8511,1.8464,1.8464,1.8464,1.8464,1.8464,1.8464,1.8443,1.8389,1.8389,1.8389,1.8389,1.8477,1.8552,0.3982,0.5851,0.7946,0.8225,0.82,0.8954,1.2475,1.3215,1.3207,1.3433,1.5536,1.7331,1.7039,1.7222,1.7372,1.7222,1.7575,1.786,1.786,1.786,1.786,1.786,1.786,1.786,1.786,1.786,1.786,1.786,1.786,1.786,1.786,1.786,1.786,1.786,1.786,1.786,1.786,1.786,1.786,1.786,1.786,1.786,1.786,1.786,1.786,1.786,1.786,1.786,1.786,1.786,1.786,1.788,1.8036,1.8091,1.8111,1.8267,1.8321,1.8321,1.8321,1.8409,1.8531,1.8531,1.864,1.8762,1.8762,1.8762,1.8728,1.8586,1.8531,1.8498,1.8355,1.8321,1.8321,1.8321,1.8321,1.8321,1.8321,1.8423,1.8531,1.8531,1.8654,1.8762,1.8762,1.8762,1.8762,1.8762,1.8762,1.8762,1.8762,1.8762,1.8762,1.8762,1.8762,1.8762,1.8762,1.8762,1.8762,1.8762,1.8762,1.8762,1.8762,1.8762,1.8762,1.8762,1.8762,1.8694,1.8531,1.8531,1.8531,1.8531,1.8531,1.862,0.3904,0.7263,1.0937,1.1215,1.279,1.468,1.5985,1.4702,1.3847,1.6126,1.7046,1.7555,1.7467,1.7521,1.7568,1.7521,1.7704,1.786,1.786,1.786,1.786,1.786,1.786,1.786,1.786,1.7968,1.8023,1.8023,1.8213,1.8335,1.8335,1.8443,1.8443,1.8335,1.8335,1.8287,1.8179,1.8077,1.8077,1.8179,1.7968,1.786,1.786,1.786,1.786,1.786,1.786,1.786,1.786,1.786,1.786,1.788,1.8145,1.8247,1.8287,1.8531,1.864,1.864,1.864,1.8654,1.8694,1.8694,1.8728,1.8762,1.8762,1.8762,1.8742,1.8708,1.8694,1.8694,1.864,1.864,1.8586,1.8375,1.8389,1.8464,1.8464,1.8586,1.8694,1.8694,1.8728,1.8762,1.8762,1.8762,1.8762,1.8762,1.8762,1.8762,1.8762,1.8762,1.8762,1.8762,1.8762,1.8796,1.8918,1.8918,1.8972,1.9061,1.8972,1.8871,1.8762,1.8762,1.8762,1.8762,1.8762,1.8796,1.885,1.885,1.8905,1.9006,1.9006,1.9027,0.6904,1.0429,1.3801,1.4212,1.5575,1.7019,1.7534,1.63,1.5663,1.7488,1.7758,1.765,1.765,1.765,1.765,1.765,1.7772,1.786,1.786,1.7914,1.7935,1.786,1.7968,1.8002,1.788,1.8002,1.8077,1.8002,1.8165,1.8267,1.8267,1.8409,1.8443,1.8355,1.8409,1.8375,1.8233,1.8145,1.8111,1.8145,1.8023,1.7914,1.786,1.786,1.786,1.786,1.786,1.786,1.786,1.7935,1.7948,1.7989,1.8287,1.8409,1.8423,1.8674,1.8762,1.8762,1.8762,1.8762,1.8762,1.8762,1.8762,1.8762,1.8762,1.8762,1.8762,1.8762,1.8762,1.8762,1.8762,1.8816,1.8796,1.8552,1.8565,1.862,1.862,1.8694,1.8762,1.8762,1.8762,1.8762,1.8762,1.8762,1.8762,1.8762,1.8762,1.8782,1.885,1.885,1.8871,1.8938,1.8938,1.8972,1.9061,1.9081,1.9115,1.9203,1.9115,1.9027,1.8938,1.883,1.8762,1.8762,1.8816,1.8905,1.8993,1.904,1.9115,1.9203,1.9203,1.9203,1.1651,1.4262,1.6456,1.689,1.6937,1.7019,1.7561,1.7806,1.7901,1.786,1.7758,1.767,1.767,1.767,1.767,1.7684,1.7792,1.786,1.788,1.7989,1.8023,1.788,1.8111,1.8165,1.7901,1.8002,1.8036,1.7901,1.7914,1.7914,1.7914,1.8077,1.8145,1.8145,1.8287,1.8287,1.8158,1.8124,1.8057,1.7935,1.8023,1.8002,1.788,1.788,1.788,1.786,1.786,1.786,1.788,1.8023,1.8091,1.8124,1.8409,1.8531,1.8552,1.8708,1.8762,1.8762,1.8762,1.8762,1.8762,1.8762,1.8762,1.8762,1.8762,1.8762,1.8762,1.8762,1.8762,1.8762,1.8762,1.8871,1.8959,1.8816,1.8796,1.8796,1.8782,1.8796,1.8796,1.8796,1.8796,1.8782,1.8796,1.8782,1.8762,1.8762,1.8782,1.883,1.8972,1.9006,1.9061,1.9183,1.9203,1.9203,1.9217,1.9217,1.9237,1.9237,1.9237,1.9217,1.9217,1.8959,1.8796,1.8796,1.8938,1.9006,1.9027,1.9169,1.9237,1.9237,1.9237,1.9237,1.1931,1.4357,1.6734,1.7066,1.748,1.7846,1.7968,1.8111,1.8158,1.7914,1.7846,1.7812,1.7812,1.7812,1.786,1.7982,1.7914,1.7901,1.8023,1.7968,1.7901,1.786,1.7914,1.7935,1.786,1.8002,1.8077,1.8036,1.8247,1.8389,1.8389,1.8531,1.862,1.862,1.8654,1.8654,1.862,1.8389,1.8301,1.8389,1.8057,1.7948,1.8036,1.8036,1.7968,1.786,1.786,1.786,1.788,1.8023,1.8091,1.8124,1.8409,1.8531,1.8552,1.8708,1.8762,1.8762,1.8762,1.8762,1.8762,1.8762,1.8762,1.8762,1.8762,1.8762,1.8762,1.8762,1.8762,1.8762,1.8762,1.8871,1.8993,1.8952,1.9027,1.9081,1.8972,1.9027,1.9115,1.9115,1.9027,1.8972,1.9094,1.8918,1.8762,1.8762,1.8871,1.8959,1.8993,1.9094,1.9169,1.9203,1.9203,1.9257,1.9379,1.9379,1.9434,1.9556,1.9447,1.9379,1.9379,1.9203,1.9115,1.9115,1.9128,1.9217,1.9339,1.9359,1.9447,1.9556,1.9556,1.9556,1.3673,1.538,1.6856,1.7304,1.7758,1.8077,1.8002,1.8158,1.8247,1.8023,1.7968,1.7948,1.788,1.7914,1.8002,1.8077,1.8023,1.8002,1.8077,1.8023,1.7968,1.7968,1.8091,1.8158,1.8091,1.8213,1.8267,1.8213,1.8335,1.8423,1.8423,1.8565,1.8654,1.8654,1.8728,1.8728,1.8654,1.8423,1.8321,1.8321,1.8091,1.8023,1.8091,1.8023,1.7935,1.786,1.7935,1.7968,1.7989,1.8145,1.8233,1.8321,1.8477,1.8586,1.8654,1.8728,1.8762,1.8762,1.8762,1.8762,1.8762,1.8762,1.8762,1.8762,1.8762,1.8762,1.8782,1.885,1.8871,1.8884,1.8959,1.9081,1.9183,1.9115,1.9149,1.9183,1.9115,1.9149,1.9203,1.9203,1.9149,1.9115,1.9183,1.9081,1.8972,1.8972,1.904,1.9115,1.9183,1.9271,1.9345,1.9413,1.9413,1.9447,1.9535,1.9535,1.9576,1.9664,1.959,1.9535,1.9535,1.9468,1.9359,1.9203,1.9271,1.9345,1.9434,1.9501,1.959,1.9664,1.9664,1.9664,1.5459,1.6544,1.6998,1.7548,1.7894,1.8057,1.7935,1.8145,1.8301,1.8124,1.8091,1.8057,1.7968,1.8023,1.8111,1.8158,1.8145,1.8145,1.8165,1.8145,1.8124,1.8091,1.8335,1.8443,1.8301,1.8409,1.8443,1.8335,1.8335,1.8355,1.8355,1.8498,1.8565,1.8565,1.8694,1.8694,1.8531,1.8389,1.8247,1.8091,1.8057,1.8057,1.8057,1.7914,1.786,1.786,1.8023,1.8091,1.8111,1.8287,1.8423,1.8531,1.8565,1.8654,1.8762,1.8762,1.8762,1.8762,1.8762,1.8762,1.8762,1.8762,1.8762,1.8762,1.8762,1.8782,1.883,1.8959,1.9006,1.9061,1.9169,1.9305,1.9393,1.9271,1.9257,1.9271,1.9257,1.9257,1.9271,1.9271,1.9271,1.9271,1.9217,1.9217,1.9237,1.9203,1.9217,1.9291,1.9413,1.9447,1.9522,1.9644,1.9664,1.9664,1.9664,1.9664,1.9664,1.9664,1.9664,1.9664,1.9664,1.9664,1.9535,1.9291,1.9413,1.9468,1.9468,1.959,1.9664,1.9664,1.9664,1.9678,1.5653,1.6605,1.7412,1.7758,1.7968,1.8091,1.8077,1.8287,1.8423,1.8145,1.8091,1.8124,1.8233,1.8165,1.8179,1.8423,1.8375,1.8335,1.8464,1.8375,1.8233,1.8111,1.8247,1.8287,1.8145,1.8267,1.8335,1.8321,1.8423,1.8498,1.8498,1.8654,1.8728,1.8728,1.8742,1.8694,1.8531,1.8389,1.8247,1.8091,1.7948,1.7901,1.7901,1.788,1.786,1.786,1.8023,1.8091,1.8111,1.8389,1.8511,1.8552,1.8674,1.8742,1.8762,1.8762,1.8762,1.8762,1.8762,1.8762,1.8762,1.8762,1.8762,1.8762,1.8762,1.885,1.8972,1.8993,1.9081,1.9183,1.9203,1.9305,1.9434,1.9413,1.9501,1.9556,1.9434,1.9501,1.961,1.961,1.961,1.9522,1.9257,1.9305,1.9359,1.9217,1.9305,1.9413,1.9434,1.9556,1.9644,1.9664,1.9664,1.9664,1.9664,1.9664,1.9664,1.9664,1.9664,1.9664,1.9664,1.9664,1.9644,1.961,1.9624,1.9624,1.9624,1.9644,1.9664,1.9664,1.9664,1.9732,1.575,1.6748,1.7582,1.7704,1.7914,1.8077,1.7989,1.8199,1.8355,1.8145,1.8158,1.8213,1.8199,1.8267,1.8375,1.8511,1.8477,1.8464,1.8531,1.8409,1.8321,1.8335,1.8389,1.8443,1.8464,1.8531,1.8565,1.8565,1.862,1.8654,1.8654,1.8728,1.8762,1.8762,1.8674,1.8599,1.8531,1.8301,1.8111,1.7968,1.7901,1.786,1.786,1.7948,1.7989,1.8002,1.8145,1.8267,1.8355,1.8477,1.8586,1.8654,1.864,1.8694,1.8762,1.8762,1.8762,1.8762,1.8762,1.8762,1.8762,1.8762,1.8762,1.8762,1.8762,1.8871,1.9006,1.9081,1.9217,1.9345,1.9434,1.9501,1.9556,1.9556,1.961,1.9644,1.9576,1.961,1.9664,1.9664,1.9664,1.9624,1.9488,1.9522,1.9535,1.9468,1.9522,1.9556,1.9556,1.9624,1.9664,1.9664,1.9664,1.9664,1.9664,1.9664,1.9664,1.9664,1.9664,1.9664,1.9664,1.9664,1.9664,1.9664,1.9664,1.9664,1.9664,1.9664,1.9698,1.9786,1.9786,1.9854,1.5622,1.6537,1.7277,1.7392,1.767,1.7894,1.7826,1.8036,1.8213,1.8057,1.8179,1.8287,1.8179,1.8355,1.8552,1.8586,1.862,1.864,1.8599,1.8531,1.8498,1.8531,1.8565,1.862,1.8694,1.8742,1.8762,1.8762,1.8762,1.8762,1.8762,1.8762,1.8762,1.8762,1.8654,1.8565,1.8531,1.8233,1.8023,1.786,1.786,1.786,1.786,1.8023,1.8111,1.8158,1.8301,1.8423,1.8531,1.8565,1.8654,1.8742,1.864,1.8654,1.8762,1.8762,1.8762,1.8762,1.8762,1.8762,1.8762,1.8762,1.8782,1.8816,1.8782,1.8918,1.9115,1.9183,1.9345,1.9522,1.9624,1.9664,1.9664,1.9664,1.9664,1.9664,1.9664,1.9664,1.9664,1.9664,1.9664,1.9664,1.9664,1.9664,1.9664,1.9664,1.9664,1.9664,1.9664,1.9664,1.9664,1.9664,1.9664,1.9664,1.9664,1.9664,1.9664,1.9664,1.9698,1.9712,1.9712,1.9712,1.9712,1.9712,1.9678,1.9664,1.9664,1.9664,1.9732,1.9875,1.9875,1.9976,1.514,1.5689,1.6266,1.6686,1.7127,1.7494,1.7629,1.7894,1.8057,1.7901,1.8111,1.8321,1.8301,1.8423,1.8586,1.8728,1.8871,1.8918,1.8762,1.8871,1.885,1.8565,1.8654,1.8694,1.8552,1.8674,1.8762,1.8762,1.8762,1.8762,1.8762,1.8762,1.8762,1.8762,1.8762,1.8674,1.8531,1.8233,1.8023,1.786,1.786,1.786,1.786,1.8023,1.8179,1.8321,1.8464,1.8531,1.8545,1.8694,1.8762,1.8762,1.8762,1.8762,1.8762,1.8762,1.8762,1.8762,1.8762,1.8762,1.8762,1.8762,1.8871,1.8959,1.8816,1.9061,1.9379,1.9237,1.9413,1.9644,1.9664,1.9664,1.9664,1.9664,1.9664,1.9664,1.9664,1.9664,1.9664,1.9664,1.9664,1.9664,1.9664,1.9664,1.9664,1.9664,1.9664,1.9664,1.9664,1.9664,1.9664,1.9664,1.9664,1.9664,1.9664,1.9664,1.9664,1.9664,1.9786,1.9854,1.9854,1.9854,1.9854,1.9854,1.9732,1.9664,1.9664,1.9664,1.9732,1.9875,1.9875,2.0031,1.5018,1.5479,1.6022,1.6381,1.6809,1.7202,1.7446,1.7738,1.7935,1.788,1.8023,1.8179,1.8179,1.8375,1.862,1.8871,1.8959,1.9006,1.904,1.9006,1.8952,1.883,1.8796,1.8742,1.8694,1.8728,1.8762,1.8762,1.885,1.8871,1.8762,1.885,1.8871,1.8762,1.8674,1.8498,1.8247,1.8036,1.7914,1.786,1.7968,1.8002,1.8023,1.8267,1.8409,1.8464,1.862,1.8674,1.8694,1.8742,1.8762,1.8762,1.8762,1.8762,1.8762,1.8762,1.8762,1.8762,1.8762,1.883,1.8905,1.8905,1.9006,1.9115,1.9061,1.9217,1.9413,1.9359,1.9501,1.9664,1.9664,1.9664,1.9664,1.9664,1.9664,1.9664,1.9664,1.9664,1.9664,1.9664,1.9664,1.9664,1.9664,1.9664,1.9698,1.9786,1.9712,1.9698,1.9786,1.9712,1.9664,1.9664,1.9664,1.9664,1.9664,1.9752,1.98,1.98,1.9942,2.001,2.001,1.9929,1.9875,1.9875,1.9732,1.9712,1.98,1.98,1.9922,2.0173,2.0173,2.0275,1.4746,1.5106,1.5574,1.5981,1.6347,1.6748,1.7297,1.7534,1.7684,1.7826,1.7948,1.8036,1.8077,1.8287,1.8565,1.8871,1.8993,1.9094,1.9183,1.9169,1.9094,1.9006,1.8905,1.8816,1.8762,1.8762,1.8762,1.8762,1.8905,1.8938,1.885,1.8938,1.8918,1.8762,1.862,1.8409,1.8165,1.8023,1.7914,1.786,1.8023,1.8091,1.8111,1.8389,1.8531,1.8531,1.8694,1.8762,1.8762,1.8762,1.8762,1.8762,1.8762,1.8762,1.8762,1.8762,1.8762,1.8762,1.8816,1.8905,1.8993,1.904,1.9169,1.9271,1.9217,1.9345,1.9501,1.9447,1.9535,1.9664,1.9664,1.9664,1.9664,1.9664,1.9664,1.9678,1.9712,1.9732,1.9732,1.9732,1.9766,1.98,1.98,1.98,1.9841,1.9942,1.9875,1.9841,1.9942,1.982,1.9732,1.9732,1.9698,1.9678,1.9732,1.982,1.9888,1.9942,2.0098,2.0173,2.0173,2.0085,2.0031,2.0031,1.9841,1.9841,2.0031,1.9922,2.0031,2.0329,2.0329,2.0397,0.0,0.0,0.0,1.5466,1.5723,1.6103,1.7141,1.727,1.7304,1.7758,1.7846,1.7901,1.8057,1.8213,1.8409,1.8708,1.9006,1.9203,1.9203,1.9325,1.9305,1.9027,1.8993,1.8938,1.8782,1.8762,1.8762,1.8762,1.8905,1.8993,1.8993,1.8993,1.8918,1.8762,1.862,1.8464,1.8321,1.8165,1.8023,1.786,1.8023,1.8091,1.8111,1.8409,1.8531,1.8552,1.8694,1.8762,1.8762,1.8762,1.8762,1.8762,1.8762,1.8762,1.8762,1.8762,1.8762,1.8796,1.8938,1.9006,1.9027,1.9169,1.9305,1.9413,1.9257,1.9434,1.9624,1.9481,1.9535,1.9664,1.9664,1.9664,1.9664,1.9664,1.9664,1.9698,1.9841,1.9875,1.9888,1.9875,1.9997,2.0098,2.0098,2.0098,2.0098,2.0098,2.0098,2.0098,2.0098,1.9976,1.9875,1.9875,1.9752,1.9732,1.9875,1.9888,1.9942,2.0098,2.0261,2.0329,2.0329,2.0329,2.0329,2.0329,2.0031,2.0031,2.0329,2.0031,2.0031,2.0329,2.0329,2.0417,1.4272,0.0,0.0,0.0,0.0,0.0,1.6144,1.6592,1.6971,1.7311,1.7555,1.7758,1.7901,1.8057,1.8247,1.8552,1.885,1.9081,1.9183,1.9237,1.9203,1.9006,1.8993,1.8938,1.8782,1.8762,1.8762,1.8762,1.8905,1.8993,1.8993,1.8993,1.8918,1.8762,1.862,1.8464,1.8321,1.8165,1.8023,1.786,1.8124,1.8247,1.8267,1.8565,1.8694,1.8708,1.8742,1.8762,1.8762,1.8762,1.8762,1.8762,1.8762,1.8762,1.8782,1.8884,1.8918,1.8952,1.9094,1.9217,1.9305,1.9359,1.9468,1.959,1.9556,1.959,1.9644,1.961,1.9624,1.9664,1.9664,1.9664,1.9664,1.9664,1.9732,1.982,1.9875,2.0051,2.0173,2.0064,2.0064,2.0098,2.0098,2.0098,2.0139,2.0241,2.0173,2.0139,2.0261,2.0139,2.0031,2.0031,1.9997,1.9997,2.0031,2.0139,2.0227,2.0261,2.0397,2.0485,2.0485,2.0383,2.0329,2.0329,2.0139,2.0139,2.0329,2.0139,2.0187,2.0485,2.0485,2.0505,1.4278,1.4299,1.4387,1.4746,0.0,0.0,1.5872,1.6266,1.6625,1.7175,1.748,1.7684,1.7846,1.8036,1.8247,1.8409,1.8694,1.8993,1.9257,1.9291,1.9271,1.9183,1.9115,1.9027,1.8871,1.8796,1.8762,1.8762,1.8905,1.9006,1.9081,1.9081,1.9006,1.8871,1.864,1.8464,1.8321,1.8165,1.8023,1.786,1.8179,1.8321,1.8335,1.862,1.8762,1.8762,1.8762,1.8762,1.8762,1.8762,1.8762,1.8762,1.8762,1.8762,1.8782,1.8938,1.8993,1.9027,1.9217,1.9359,1.9447,1.9501,1.959,1.9664,1.9664,1.9664,1.9664,1.9664,1.9664,1.9664,1.9664,1.9664,1.9664,1.9664,1.9732,1.982,1.9942,2.0098,2.0227,2.0207,2.0241,2.0275,2.0275,2.0275,2.0315,2.0397,2.0349,2.0315,2.0397,2.0295,2.0187,2.0187,2.0139,2.0119,2.0187,2.0275,2.0349,2.0417,2.0485,2.0539,2.0539,2.0451,2.0417,2.0417,2.0275,2.0241,2.0329,2.0241,2.0315,2.0539,2.0539,2.0539,1.4292,1.4299,0.0,1.4794,1.4699,0.0,1.5866,1.6069,1.6266,1.708,1.7405,1.7595,1.7738,1.7989,1.8179,1.8199,1.8464,1.883,1.9305,1.9379,1.9393,1.9393,1.9271,1.9128,1.9027,1.8884,1.8782,1.8782,1.8918,1.904,1.9169,1.9183,1.9115,1.8993,1.8708,1.8498,1.8335,1.8199,1.8057,1.7914,1.8199,1.8321,1.8355,1.864,1.8762,1.8762,1.8762,1.8762,1.8762,1.8762,1.8762,1.8762,1.8782,1.8782,1.8816,1.8972,1.904,1.9081,1.9359,1.9447,1.9481,1.961,1.9664,1.9664,1.9664,1.9664,1.9664,1.9664,1.9664,1.9664,1.9664,1.9664,1.9664,1.9664,1.9678,1.9752,2.001,2.0098,2.0173,2.0295,2.0438,2.0539,2.0539,2.0539,2.0539,2.0539,2.0539,2.0539,2.0539,2.0438,2.0349,2.0349,2.0227,2.0207,2.0349,2.0349,2.0397,2.0539,2.0539,2.0539,2.0539,2.0539,2.0539,2.0539,2.0417,2.0349,2.0349,2.0349,2.0417,2.0539,2.0539,2.0539,1.4265,1.4299,1.4319,1.4407,1.4468,0.0,1.4808,1.5309,1.5805,1.6096,1.6564,1.6971,1.7127,1.7202,1.7277,1.7392,1.7758,1.8287,1.8972,1.9081,1.9115,1.9237,1.9115,1.9061,1.9149,1.9027,1.8938,1.8938,1.8972,1.9006,1.9027,1.9027,1.9027,1.8993,1.8816,1.864,1.8498,1.8355,1.8267,1.8233,1.8287,1.8375,1.8498,1.8674,1.8762,1.8762,1.8762,1.8762,1.8762,1.8762,1.8762,1.8782,1.8905,1.8938,1.8972,1.9257,1.9345,1.9379,1.9556,1.961,1.9624,1.9644,1.9664,1.9664,1.9664,1.9664,1.9664,1.9664,1.9664,1.9664,1.9664,1.9664,1.9664,1.9664,1.9752,1.9854,1.9908,2.0119,2.0295,2.0329,2.0438,2.0539,2.0539,2.0539,2.0539,2.0539,2.0539,2.0539,2.0539,2.0526,2.0505,2.0505,2.0471,2.0471,2.0505,2.0505,2.0505,2.0539,2.0539,2.0539,2.0539,2.0539,2.0539,2.0539,2.0505,2.0505,2.0505,2.0505,2.0505,2.0539,2.0539,2.0539,1.4278,1.4299,1.4319,1.4387,1.4407,0.0,0.0,1.5031,1.5391,1.5689,1.6103,1.6463,1.6619,1.6768,1.6937,1.7154,1.7568,1.8057,1.8586,1.885,1.9006,1.9094,1.9094,1.9094,1.9094,1.9027,1.8959,1.8884,1.8952,1.8993,1.8993,1.8993,1.8993,1.8993,1.885,1.8694,1.8531,1.8389,1.8287,1.8213,1.8287,1.8355,1.8423,1.8654,1.8762,1.8762,1.8762,1.8762,1.8762,1.8762,1.8816,1.8871,1.8884,1.8972,1.9115,1.9257,1.9359,1.9447,1.961,1.9664,1.9664,1.9664,1.9664,1.9664,1.9664,1.9664,1.9664,1.9664,1.9664,1.9664,1.9664,1.9664,1.9664,1.9664,1.9712,1.9786,1.9854,1.9997,2.0153,2.0295,2.0383,2.0451,2.0526,2.0539,2.0539,2.0539,2.0539,2.0539,2.0539,2.0471,2.0438,2.0438,2.0438,2.0438,2.0438,2.0505,2.0539,2.0539,2.0539,2.0539,2.0539,2.0539,2.0539,2.0539,2.0539,2.0539,2.0539,2.0539,2.0539,2.0539,2.0539,2.0539,1.4387,1.4407,1.4441,1.4496,1.4468,1.4502,0.0,0.0,0.0,1.5398,1.5703,1.5947,1.6069,1.6313,1.6578,1.6849,1.7317,1.7724,1.7948,1.8443,1.883,1.8972,1.9006,1.9027,1.9027,1.8972,1.8905,1.8816,1.8871,1.8918,1.8938,1.8938,1.8938,1.8938,1.883,1.8708,1.8586,1.8423,1.8301,1.8179,1.8301,1.8355,1.8375,1.864,1.8762,1.8762,1.8762,1.8762,1.8762,1.8762,1.885,1.8972,1.8884,1.9006,1.9257,1.9271,1.9359,1.9501,1.9624,1.9664,1.9664,1.9664,1.9664,1.9664,1.9664,1.9664,1.9664,1.9664,1.9664,1.9664,1.9664,1.9664,1.9664,1.9664,1.9664,1.9698,1.98,1.9854,1.9942,2.0187,2.0261,2.0349,2.0505,2.0539,2.0539,2.0539,2.0539,2.0539,2.0539,2.0417,2.0329,2.0329,2.0329,2.0329,2.0329,2.0451,2.0539,2.0539,2.0539,2.0539,2.0539,2.0539,2.0539,2.0539,2.0539,2.0539,2.0539,2.0539,2.0539,2.0539,2.0539,2.0539,1.4692,1.4787,1.4835,1.4577,1.4706,1.4801,1.4455,0.0,1.4943,1.4862,0.0,1.5289,1.5309,0.0,0.0,1.5784,1.6408,1.6842,1.6741,1.746,1.8233,1.8905,1.8654,1.862,1.9128,1.8938,1.883,1.8959,1.8728,1.864,1.8782,1.8782,1.8782,1.8782,1.8782,1.8762,1.8742,1.8586,1.8498,1.8477,1.8498,1.8511,1.8511,1.8694,1.8762,1.8762,1.8762,1.8762,1.8762,1.8762,1.885,1.9006,1.9115,1.9257,1.9413,1.9556,1.9624,1.9644,1.9664,1.9664,1.9664,1.9664,1.9664,1.9664,1.9664,1.9664,1.9664,1.9664,1.9664,1.9664,1.9664,1.9664,1.9664,1.9664,1.9664,1.9664,1.9678,1.9786,1.9888,1.9922,2.0031,2.0207,2.0485,2.0539,2.0539,2.0539,2.0539,2.0539,2.0539,2.0417,2.0329,2.0329,2.0329,2.0329,2.0329,2.0451,2.0539,2.0539,2.0539,2.0539,2.0539,2.0539,2.0539,2.0539,2.0539,2.0539,2.0539,2.0539,2.0539,2.0539,2.0539,2.0539,1.4848,1.4923,1.4916,1.4699,1.474,1.476,1.4489,1.4502,1.4563,1.4496,0.0,0.0,0.0,0.0,0.0,0.0,1.6062,1.6503,1.6517,1.7073,1.7623,1.8036,1.8145,1.8355,1.8776,1.862,1.8599,1.883,1.8586,1.8511,1.8742,1.8674,1.8674,1.8762,1.8674,1.8674,1.8762,1.8531,1.8409,1.8409,1.8498,1.8498,1.8409,1.8654,1.8762,1.8762,1.8762,1.8762,1.8762,1.8762,1.885,1.8993,1.9061,1.9169,1.9305,1.9379,1.9447,1.9535,1.9624,1.9664,1.9664,1.9664,1.9664,1.9664,1.9664,1.9664,1.9664,1.9664,1.9664,1.9664,1.9664,1.9664,1.9664,1.9664,1.9664,1.9664,1.9664,1.9712,1.98,1.9976,2.0051,2.0187,2.0485,2.0471,2.0451,2.0526,2.0539,2.0505,2.0438,2.0295,2.0187,2.0187,2.0119,2.0139,2.0315,2.0383,2.0451,2.0539,2.0539,2.0539,2.0539,2.0539,2.0539,2.0539,2.0539,2.0539,2.0539,2.0539,2.0539,2.0539,2.0539,2.0539,1.5059,1.512,1.5099,1.4862,1.4801,1.474,1.4509,1.4468,1.4468,1.4428,1.4604,0.0,0.0,0.0,1.516,1.5377,0.0,1.6205,1.6273,1.6666,1.7053,1.7324,1.7758,1.8091,1.8267,1.8233,1.8301,1.8552,1.8342,1.8301,1.8565,1.8552,1.8552,1.8586,1.8552,1.8565,1.864,1.8464,1.8355,1.8321,1.8511,1.8511,1.8389,1.864,1.8762,1.8762,1.8762,1.8762,1.8762,1.8762,1.883,1.8918,1.8918,1.8993,1.9094,1.9169,1.9305,1.9447,1.9556,1.9624,1.9664,1.9664,1.9664,1.9664,1.9664,1.9664,1.9664,1.9664,1.9664,1.9664,1.9664,1.9664,1.9664,1.9664,1.9664,1.9664,1.9664,1.9664,1.9732,1.9942,1.9976,2.0064,2.0363,2.0397,2.0417,2.0526,2.0505,2.0451,2.0349,2.0187,2.0098,2.0098,1.9997,2.0051,2.0309,2.0329,2.0383,2.0526,2.0539,2.0539,2.0539,2.0539,2.0539,2.0539,2.0539,2.0539,2.0539,2.0539,2.0539,2.0539,2.0539,2.0539,1.5398,1.5506,1.5513,1.5072,1.4964,1.4848,1.4407,1.4638,1.4909,1.4753,1.5072,1.5337,1.5187,1.5289,0.0,0.0,1.5669,0.0,0.0,1.6056,1.6551,1.7127,1.7595,1.7826,1.7684,1.7792,1.7948,1.8111,1.7968,1.7948,1.8111,1.8375,1.8409,1.8124,1.8389,1.8464,1.8335,1.8464,1.8464,1.8321,1.862,1.8674,1.8531,1.8694,1.8762,1.8762,1.8762,1.8762,1.8762,1.8762,1.8762,1.8762,1.8762,1.8782,1.8816,1.9094,1.9305,1.9434,1.9434,1.9535,1.9664,1.9664,1.9664,1.9664,1.9664,1.9664,1.9664,1.9664,1.9664,1.9664,1.9664,1.9664,1.9664,1.9664,1.9664,1.9664,1.9664,1.9664,1.9664,1.9678,1.9678,1.9766,2.0064,2.0349,2.0539,2.0539,2.0417,2.0329,2.0329,2.0187,2.0098,2.0098,2.0098,2.0153,2.0315,2.0329,2.0383,2.0526,2.0539,2.0539,2.0539,2.0539,2.0539,2.0539,2.0539,2.0539,2.0539,2.0539,2.0539,2.0539,2.0539,2.0539,1.5798,1.5893,1.5845,1.5499,1.5337,1.5147,1.4692,1.4787,1.4957,1.4903,1.5167,1.5398,1.5343,1.5377,0.0,0.0,0.0,0.0,0.0,1.5771,1.6083,1.668,1.706,1.7297,1.7344,1.748,1.7629,1.7792,1.765,1.7717,1.8077,1.8091,1.8145,1.8233,1.8247,1.8301,1.8464,1.8409,1.8409,1.8464,1.8674,1.8674,1.8531,1.8694,1.8762,1.8762,1.8762,1.8762,1.8762,1.8762,1.8762,1.8762,1.8762,1.8762,1.8782,1.8993,1.9149,1.9305,1.9522,1.9624,1.9664,1.9664,1.9664,1.9664,1.9664,1.9664,1.9664,1.9664,1.9664,1.9664,1.9664,1.9664,1.9664,1.9664,1.9664,1.9664,1.9664,1.9664,1.9698,1.9786,1.98,1.9875,2.0064,2.0187,2.0275,2.0383,2.0275,2.0173,2.0173,2.0139,2.0139,2.0241,2.0153,2.0207,2.0451,2.0471,2.0485,2.0539,2.0539,2.0539,2.0539,2.0539,2.0539,2.0539,2.0539,2.0539,2.0539,2.0539,2.0539,2.0539,2.0648,2.0702,1.611,1.6198,1.6178,1.594,1.5805,1.5628,1.5228,1.5337,1.5506,1.5459,1.5635,1.5825,1.5879,1.5757,0.0,0.0,0.0,0.0,0.0,1.5601,1.5839,1.6381,1.6666,1.6897,1.71,1.7154,1.7243,1.7399,1.727,1.7358,1.7758,1.7826,1.7935,1.807,1.8145,1.8233,1.8375,1.8389,1.8443,1.8531,1.8694,1.8708,1.862,1.8708,1.8762,1.8762,1.8762,1.8762,1.8762,1.8762,1.8762,1.8762,1.8762,1.8762,1.8782,1.8871,1.9027,1.9237,1.9488,1.961,1.9664,1.9664,1.9664,1.9664,1.9664,1.9664,1.9664,1.9664,1.9664,1.9664,1.9664,1.9664,1.9664,1.9664,1.9664,1.9664,1.9664,1.9664,1.9698,1.9786,1.98,1.9841,1.9997,1.9976,2.001,2.0227,2.0119,2.0031,2.0098,2.0051,2.0085,2.0227,2.0119,2.0119,2.0363,2.0485,2.0539,2.0539,2.0539,2.0539,2.0539,2.0539,2.0539,2.0539,2.0539,2.0539,2.0539,2.0539,2.0573,2.0627,2.0716,2.0824]},{"header":{"parameterUnit":"m.s-1","parameterCategory":1,"la1":30.6,"la2":29.2853,"lo1":-89.7004,"lo2":-87.6739,"dy":0.0162,"dx":0.0183,"nx":112,"ny":82,"refTime":"2026-04-07T12:00:00:Z","depth":0,"parameterNumber":3,"parameterNumberName":"V-component_of_WINDS"},"data":[0.0,0.0,0.0,0.0,0.0,0.0,0.0,0.0,0.0,0.0,0.0,0.0,0.0,0.0,0.0,0.0,0.0,0.0,0.0,0.0,0.0,0.0,0.0,0.0,0.0,0.0,0.0,0.0,0.0,0.0,0.0,0.0,0.0,0.0,0.0,0.0,0.0,0.0,0.0,0.0,0.0,0.0,0.0,0.0,0.0,0.0,0.0,0.0,0.0,0.0,0.0,0.0,0.0,0.0,0.0,0.0,0.0,0.0,0.0,0.0,0.0,0.0,0.0,0.0,0.0,0.0,0.0,0.0,0.0,0.0,0.0,0.0,0.0,0.0,0.0,0.0,0.0,0.0,0.0,0.0,0.0,0.0,0.0,0.0,0.0,0.0,0.0,0.0,0.0,0.0,5.6702,6.0433,6.425,6.6564,6.6616,6.5543,6.2441,5.6757,0.0,0.0,0.0,0.0,0.0,0.0,0.0,0.0,0.0,0.0,0.0,0.0,0.0,0.0,0.0,0.0,0.0,0.0,0.0,0.0,0.0,0.0,0.0,0.0,0.0,0.0,0.0,0.0,0.0,0.0,0.0,0.0,0.0,0.0,0.0,0.0,0.0,0.0,0.0,0.0,0.0,0.0,0.0,0.0,0.0,0.0,0.0,0.0,0.0,0.0,0.0,0.0,0.0,0.0,0.0,0.0,0.0,0.0,0.0,0.0,0.0,0.0,0.0,0.0,0.0,0.0,0.0,0.0,0.0,0.0,0.0,0.0,0.0,0.0,0.0,0.0,0.0,0.0,0.0,0.0,0.0,0.0,0.0,0.0,0.0,0.0,0.0,0.0,0.0,0.0,0.0,0.0,0.0,0.0,0.0,0.0,0.0,0.0,0.0,0.0,0.0,0.0,0.0,0.0,5.8331,6.3989,6.5709,6.6473,6.6571,6.4997,6.2067,5.752,0.0,0.0,0.0,0.0,0.0,0.0,0.0,0.0,0.0,0.0,0.0,0.0,0.0,0.0,0.0,0.0,0.0,0.0,0.0,0.0,0.0,0.0,0.0,0.0,0.0,0.0,0.0,0.0,0.0,0.0,0.0,0.0,0.0,0.0,0.0,0.0,0.0,0.0,0.0,0.0,0.0,0.0,0.0,0.0,0.0,0.0,0.0,0.0,0.0,0.0,0.0,0.0,0.0,0.0,0.0,0.0,0.0,0.0,0.0,0.0,0.0,0.0,0.0,0.0,0.0,0.0,0.0,0.0,0.0,0.0,0.0,0.0,0.0,0.0,0.0,0.0,0.0,0.0,0.0,0.0,0.0,0.0,0.0,0.0,0.0,0.0,0.0,0.0,0.0,0.0,0.0,0.0,0.0,0.0,0.0,0.0,0.0,0.0,0.0,0.0,0.0,0.0,0.0,5.6932,6.0197,6.4748,6.6088,6.6664,6.6616,6.4977,6.2145,5.7825,5.6116,0.0,0.0,0.0,0.0,0.0,0.0,0.0,0.0,0.0,0.0,0.0,0.0,0.0,0.0,0.0,0.0,0.0,0.0,0.0,0.0,0.0,0.0,0.0,0.0,0.0,0.0,0.0,0.0,0.0,0.0,0.0,0.0,0.0,0.0,0.0,0.0,0.0,0.0,0.0,0.0,0.0,0.0,0.0,0.0,0.0,0.0,0.0,0.0,0.0,0.0,0.0,0.0,0.0,0.0,0.0,0.0,0.0,0.0,0.0,0.0,0.0,0.0,0.0,0.0,0.0,0.0,0.0,0.0,0.0,0.0,0.0,0.0,0.0,0.0,0.0,0.0,0.0,0.0,0.0,0.0,0.0,0.0,0.0,0.0,0.0,0.0,0.0,0.0,0.0,0.0,0.0,0.0,0.0,0.0,0.0,0.0,0.0,0.0,0.0,0.0,0.0,0.0,5.9917,6.2038,6.5182,6.6344,6.6755,6.6373,6.4809,6.2076,5.7972,5.5815,0.0,0.0,0.0,0.0,0.0,0.0,0.0,0.0,0.0,0.0,0.0,0.0,0.0,0.0,0.0,0.0,0.0,0.0,0.0,0.0,0.0,0.0,0.0,0.0,0.0,0.0,0.0,0.0,0.0,0.0,0.0,0.0,0.0,0.0,0.0,0.0,0.0,0.0,0.0,0.0,0.0,0.0,0.0,0.0,0.0,0.0,0.0,0.0,0.0,0.0,0.0,0.0,0.0,0.0,0.0,0.0,0.0,0.0,0.0,0.0,0.0,0.0,0.0,0.0,0.0,0.0,0.0,0.0,0.0,0.0,0.0,0.0,0.0,0.0,0.0,0.0,0.0,0.0,0.0,0.0,0.0,0.0,0.0,0.0,0.0,0.0,0.0,0.0,0.0,0.0,0.0,0.0,0.0,0.0,0.0,0.0,0.0,0.0,0.0,0.0,0.0,0.0,6.0684,6.3681,6.6482,6.6836,6.6562,6.5742,6.4062,6.1558,5.7931,5.542,0.0,0.0,0.0,0.0,0.0,0.0,0.0,0.0,0.0,0.0,0.0,0.0,0.0,0.0,0.0,0.0,0.0,0.0,0.0,0.0,0.0,0.0,0.0,0.0,0.0,0.0,0.0,0.0,0.0,0.0,0.0,0.0,0.0,0.0,0.0,0.0,0.0,0.0,0.0,0.0,0.0,0.0,0.0,0.0,0.0,0.0,0.0,0.0,0.0,0.0,0.0,0.0,0.0,0.0,0.0,0.0,0.0,0.0,0.0,0.0,0.0,0.0,0.0,0.0,0.0,0.0,0.0,0.0,0.0,0.0,0.0,0.0,0.0,0.0,0.0,0.0,0.0,0.0,0.0,0.0,0.0,0.0,0.0,0.0,0.0,0.0,0.0,0.0,0.0,0.0,0.0,0.0,0.0,0.0,0.0,0.0,0.0,0.0,0.0,0.0,0.0,0.0,6.0701,6.3355,6.6562,6.6914,6.6758,6.6445,6.4805,6.2343,5.8862,0.0,0.0,0.0,0.0,0.0,0.0,0.0,0.0,0.0,0.0,0.0,0.0,0.0,0.0,0.0,0.0,0.0,0.0,0.0,0.0,0.0,0.0,0.0,0.0,0.0,0.0,0.0,0.0,0.0,0.0,0.0,0.0,0.0,0.0,0.0,0.0,0.0,0.0,0.0,0.0,0.0,0.0,0.0,0.0,0.0,0.0,0.0,0.0,0.0,0.0,0.0,0.0,0.0,0.0,0.0,0.0,0.0,0.0,0.0,0.0,0.0,0.0,0.0,0.0,0.0,0.0,0.0,0.0,0.0,0.0,0.0,0.0,0.0,0.0,0.0,0.0,0.0,0.0,0.0,0.0,0.0,0.0,0.0,0.0,0.0,0.0,0.0,0.0,0.0,0.0,0.0,0.0,0.0,0.0,0.0,0.0,0.0,0.0,0.0,0.0,0.0,0.0,5.8437,6.1211,6.3945,6.6601,6.6914,6.6797,6.6523,6.4883,6.2305,5.8594,0.0,0.0,0.0,0.0,0.0,0.0,0.0,0.0,0.0,0.0,0.0,0.0,0.0,0.0,0.0,0.0,0.0,0.0,0.0,0.0,0.0,0.0,0.0,0.0,0.0,0.0,0.0,0.0,0.0,0.0,0.0,0.0,0.0,0.0,0.0,0.0,0.0,0.0,0.0,0.0,0.0,0.0,0.0,0.0,0.0,0.0,0.0,0.0,0.0,0.0,0.0,0.0,0.0,0.0,0.0,0.0,0.0,0.0,0.0,0.0,0.0,0.0,0.0,0.0,0.0,0.0,0.0,0.0,0.0,0.0,0.0,0.0,0.0,0.0,0.0,0.0,0.0,0.0,0.0,0.0,0.0,0.0,0.0,0.0,0.0,0.0,0.0,0.0,0.0,0.0,0.0,0.0,0.0,0.0,0.0,0.0,0.0,0.0,0.0,0.0,0.0,0.0,5.7812,6.2422,6.5937,6.6797,6.6914,6.6562,6.5703,6.4023,6.1172,0.0,0.0,0.0,0.0,0.0,0.0,0.0,0.0,0.0,0.0,0.0,0.0,0.0,0.0,0.0,0.0,0.0,0.0,0.0,0.0,0.0,0.0,0.0,0.0,0.0,0.0,0.0,0.0,0.0,0.0,0.0,0.0,0.0,0.0,0.0,0.0,0.0,0.0,0.0,0.0,0.0,0.0,0.0,0.0,0.0,0.0,0.0,0.0,0.0,0.0,0.0,0.0,0.0,0.0,0.0,0.0,0.0,0.0,0.0,0.0,0.0,0.0,0.0,0.0,0.0,0.0,0.0,0.0,0.0,0.0,0.0,0.0,0.0,0.0,0.0,0.0,0.0,0.0,0.0,0.0,0.0,0.0,0.0,0.0,0.0,0.0,0.0,0.0,0.0,0.0,0.0,0.0,0.0,0.0,0.0,0.0,0.0,0.0,0.0,0.0,0.0,0.0,0.0,5.8633,6.2773,6.5937,6.6797,6.6914,6.6797,6.6523,6.4922,6.2109,5.7773,0.0,0.0,0.0,0.0,0.0,0.0,0.0,0.0,0.0,0.0,0.0,0.0,0.0,0.0,0.0,0.0,0.0,0.0,0.0,0.0,0.0,0.0,0.0,0.0,0.0,0.0,0.0,0.0,0.0,0.0,0.0,0.0,0.0,0.0,0.0,0.0,0.0,0.0,0.0,0.0,0.0,0.0,0.0,0.0,0.0,0.0,0.0,0.0,0.0,0.0,0.0,0.0,0.0,0.0,0.0,0.0,0.0,0.0,0.0,0.0,0.0,0.0,0.0,0.0,0.0,0.0,0.0,0.0,0.0,0.0,0.0,0.0,0.0,0.0,0.0,0.0,0.0,0.0,0.0,0.0,0.0,0.0,0.0,0.0,0.0,0.0,0.0,0.0,0.0,0.0,0.0,0.0,0.0,0.0,0.0,0.0,0.0,0.0,0.0,0.0,0.0,0.0,5.9023,6.3242,6.6328,6.6836,6.6914,6.6914,6.6914,6.5625,6.3008,5.8672,0.0,0.0,0.0,0.0,0.0,0.0,0.0,0.0,0.0,0.0,0.0,0.0,0.0,0.0,0.0,0.0,0.0,0.0,0.0,0.0,0.0,0.0,0.0,0.0,0.0,0.0,0.0,0.0,0.0,0.0,0.0,0.0,0.0,0.0,0.0,0.0,0.0,0.0,0.0,0.0,0.0,0.0,0.0,0.0,0.0,0.0,0.0,0.0,0.0,0.0,0.0,0.0,0.0,0.0,0.0,0.0,0.0,0.0,0.0,0.0,0.0,0.0,0.0,0.0,0.0,0.0,0.0,0.0,0.0,0.0,0.0,0.0,0.0,0.0,0.0,0.0,0.0,0.0,0.0,0.0,0.0,0.0,0.0,0.0,0.0,0.0,0.0,0.0,0.0,0.0,0.0,0.0,0.0,0.0,0.0,0.0,0.0,0.0,0.0,0.0,0.0,0.0,5.9022,6.367,6.6834,6.6834,6.6874,6.6874,6.6874,6.6094,6.3789,5.957,0.0,0.0,0.0,0.0,0.0,0.0,0.0,0.0,0.0,0.0,0.0,0.0,0.0,0.0,0.0,0.0,0.0,0.0,0.0,0.0,0.0,0.0,0.0,0.0,0.0,0.0,0.0,0.0,0.0,0.0,0.0,0.0,0.0,0.0,0.0,0.0,0.0,0.0,0.0,0.0,0.0,0.0,0.0,0.0,0.0,0.0,0.0,0.0,0.0,0.0,0.0,0.0,0.0,0.0,0.0,0.0,0.0,0.0,0.0,0.0,6.1606,5.9345,0.0,0.0,0.0,0.0,0.0,0.0,0.0,0.0,0.0,0.0,0.0,0.0,0.0,0.0,0.0,0.0,0.0,0.0,0.0,0.0,0.0,0.0,0.0,0.0,0.0,0.0,0.0,0.0,0.0,0.0,0.0,0.0,0.0,0.0,0.0,0.0,0.0,0.0,0.0,0.0,5.8689,6.3327,6.6522,6.6522,6.6603,6.6641,6.6641,6.601,6.4023,6.039,5.8555,0.0,0.0,0.0,0.0,0.0,0.0,0.0,0.0,0.0,0.0,0.0,0.0,0.0,0.0,0.0,0.0,0.0,0.0,0.0,0.0,0.0,0.0,0.0,0.0,0.0,0.0,0.0,0.0,0.0,0.0,0.0,0.0,0.0,0.0,0.0,0.0,0.0,0.0,0.0,0.0,0.0,0.0,0.0,0.0,0.0,0.0,0.0,0.0,0.0,0.0,0.0,0.0,0.0,0.0,0.0,0.0,0.0,0.0,0.0,6.486,6.3128,0.0,0.0,0.0,0.0,0.0,0.0,0.0,0.0,0.0,0.0,0.0,0.0,0.0,0.0,0.0,0.0,0.0,0.0,0.0,0.0,0.0,0.0,0.0,0.0,0.0,0.0,0.0,0.0,0.0,0.0,0.0,0.0,0.0,0.0,0.0,0.0,0.0,0.0,0.0,0.0,5.9221,6.3468,6.6387,6.6387,6.6463,6.6503,6.6503,6.6163,6.4863,6.2203,6.0444,0.0,0.0,0.0,0.0,0.0,0.0,0.0,0.0,0.0,0.0,0.0,0.0,0.0,0.0,0.0,0.0,0.0,0.0,0.0,0.0,0.0,0.0,0.0,0.0,0.0,0.0,0.0,0.0,0.0,0.0,0.0,0.0,0.0,0.0,0.0,0.0,0.0,0.0,0.0,0.0,0.0,0.0,0.0,0.0,0.0,0.0,0.0,0.0,0.0,0.0,0.0,0.0,0.0,6.8982,6.9499,6.9536,7.0175,7.0434,7.0293,6.9928,6.8854,6.7289,6.6933,0.0,0.0,0.0,0.0,0.0,0.0,0.0,0.0,0.0,0.0,0.0,0.0,0.0,0.0,0.0,0.0,0.0,0.0,0.0,0.0,0.0,0.0,6.3782,6.4474,6.459,6.3855,6.1205,0.0,0.0,0.0,0.0,0.0,0.0,0.0,0.0,0.0,0.0,0.0,6.0021,6.3758,6.629,6.629,6.632,6.6418,6.6574,6.6484,6.5797,6.4345,6.262,6.0606,0.0,0.0,0.0,0.0,0.0,0.0,0.0,0.0,0.0,0.0,0.0,0.0,0.0,0.0,0.0,0.0,0.0,0.0,0.0,0.0,0.0,0.0,0.0,0.0,0.0,0.0,0.0,0.0,0.0,0.0,0.0,0.0,6.3817,6.5322,0.0,0.0,0.0,0.0,0.0,0.0,0.0,0.0,0.0,0.0,0.0,0.0,0.0,6.9048,6.9899,7.2163,7.335,7.3463,7.5682,7.6753,7.6753,7.6844,7.7243,7.7817,7.7077,0.0,6.9767,6.9022,0.0,0.0,0.0,0.0,0.0,0.0,0.0,0.0,0.0,0.0,0.0,0.0,0.0,0.0,0.0,0.0,0.0,0.0,0.0,0.0,0.0,0.0,6.9783,6.986,6.9386,6.8758,6.8334,6.3689,5.9549,5.9432,5.8856,5.7812,0.0,0.0,0.0,0.0,0.0,0.0,6.0586,6.3796,6.5955,6.5955,6.6059,6.6466,6.7202,6.6718,6.6303,6.6056,6.4422,6.2633,6.081,6.0075,0.0,0.0,0.0,0.0,0.0,0.0,0.0,0.0,0.0,0.0,0.0,0.0,0.0,0.0,0.0,0.0,0.0,0.0,0.0,0.0,0.0,0.0,0.0,0.0,0.0,0.0,0.0,0.0,0.0,6.5001,6.688,6.7835,6.8274,6.7467,0.0,0.0,0.0,0.0,0.0,0.0,0.0,0.0,0.0,7.1726,7.2538,7.3598,7.4901,7.6431,7.743,7.7883,7.9388,8.0121,8.0121,8.0612,8.074,8.0627,8.0272,7.8806,7.6512,7.4151,7.2296,7.0735,0.0,0.0,0.0,0.0,6.7725,6.8706,6.9821,7.0398,7.0744,7.1129,0.0,0.0,0.0,0.0,0.0,0.0,0.0,6.759,6.8898,7.0052,7.1168,7.2129,7.2091,7.186,7.186,6.9191,6.6095,6.3747,6.2211,6.0587,5.8392,5.797,0.0,0.0,0.0,6.1435,6.2781,6.5051,6.6744,6.7244,6.7369,6.7568,6.7915,6.768,6.7521,6.7511,6.6804,6.5858,6.4735,6.3464,6.2046,0.0,0.0,0.0,0.0,0.0,0.0,0.0,0.0,0.0,0.0,0.0,0.0,0.0,0.0,0.0,0.0,0.0,0.0,0.0,0.0,0.0,0.0,0.0,0.0,0.0,0.0,0.0,0.0,6.8484,7.0244,7.0779,7.2149,7.1597,0.0,0.0,0.0,0.0,0.0,0.0,7.2679,7.2983,7.4239,7.6731,7.7396,7.8496,8.0148,8.0735,8.1343,8.193,8.2554,8.2836,8.2836,8.3443,8.3405,8.2836,8.2836,8.2836,8.2554,7.8935,7.6382,7.4623,7.3289,7.2106,7.1243,7.1344,7.1776,7.2514,7.4207,7.4784,7.4822,7.5053,7.3514,7.1283,6.9821,0.0,0.0,0.0,0.0,6.9821,7.1706,7.236,7.2937,7.4437,7.463,7.4399,7.4207,7.3283,7.1475,6.7859,6.5974,6.4051,6.1281,6.0819,0.0,5.9704,6.1396,6.3358,6.5013,6.6513,6.7667,6.8321,6.8385,6.8513,6.8706,6.8552,6.8513,6.8744,6.8513,6.818,6.7669,6.6456,6.5095,6.367,0.0,0.0,0.0,0.0,0.0,0.0,0.0,0.0,0.0,0.0,0.0,0.0,0.0,0.0,0.0,0.0,0.0,0.0,0.0,0.0,0.0,0.0,0.0,0.0,0.0,0.0,0.0,0.0,0.0,7.4729,7.7483,0.0,0.0,0.0,0.0,7.3303,7.5432,7.7201,7.8047,7.8892,8.0507,8.3045,8.316,8.4006,8.5681,8.5719,8.5757,8.5834,8.5873,8.5873,8.5873,8.5911,8.5911,8.5873,8.5873,8.5873,8.5591,8.1858,7.9766,7.8897,7.8057,7.7541,7.7186,7.6346,7.7428,7.9208,7.8477,7.8246,7.8361,7.9208,7.6707,7.3206,7.2283,7.0283,0.0,0.0,7.1321,7.2591,7.5091,7.6361,7.7169,7.8054,7.7669,7.6861,7.6053,7.4591,7.2899,7.1014,6.9975,6.8321,6.4936,0.0,6.4051,6.3166,6.3858,6.5089,6.6744,6.7782,6.8359,6.8385,6.8385,6.8744,6.9552,6.8898,6.8744,6.959,6.8859,6.8398,6.8334,6.8392,6.7713,6.6225,6.464,0.0,0.0,0.0,0.0,0.0,0.0,0.0,0.0,0.0,0.0,0.0,0.0,0.0,0.0,0.0,0.0,0.0,0.0,0.0,0.0,0.0,0.0,0.0,0.0,0.0,0.0,0.0,0.0,7.8777,8.0898,0.0,7.7861,7.89,7.9131,7.7669,7.99,8.1939,8.3324,8.4209,8.5363,8.6824,8.6863,8.7171,8.7786,8.7786,8.7786,8.7786,8.7786,8.7786,8.7786,8.7786,8.7478,8.694,8.694,8.6632,8.5983,8.4649,8.3639,8.2759,8.1343,8.0761,8.063,8.0306,8.0712,8.1439,8.1708,8.1785,8.1554,8.0246,7.84,7.6476,7.5053,7.4399,7.4245,7.4861,7.563,7.6438,7.7361,7.7823,7.813,7.8438,7.8284,7.7977,7.7669,7.713,7.6207,7.4514,7.2168,6.9744,6.7436,6.7513,6.7205,6.5282,6.6628,6.8282,6.9398,7.0321,7.1052,7.1615,7.1168,7.0975,7.1283,7.0514,7.0129,7.0437,7.0167,7.0014,7.0014,6.9541,6.9174,6.8857,6.7169,6.4641,0.0,0.0,0.0,0.0,0.0,0.0,0.0,0.0,0.0,0.0,0.0,0.0,0.0,0.0,0.0,0.0,0.0,0.0,0.0,0.0,0.0,0.0,0.0,0.0,0.0,7.7624,8.0179,8.1369,8.3747,8.4324,8.1785,8.2824,8.3285,8.2439,8.4209,8.5786,8.6901,8.7517,8.8209,8.9094,8.8825,8.8825,8.9094,8.8825,8.8709,8.8709,8.8709,8.8709,8.8709,8.8709,8.8363,8.7825,8.7825,8.7561,8.7087,8.7087,8.6829,8.6219,8.4335,8.3593,8.3593,8.3593,8.3593,8.3632,8.3939,8.4055,8.3708,8.1747,8.0545,7.9696,7.8615,7.8461,7.8731,7.904,7.9442,7.9862,8.0131,8.0208,8.0208,8.0208,7.9785,7.9361,7.9361,7.89,7.8169,7.7053,7.4553,7.1975,7.0014,7.0167,6.986,6.7898,6.9283,7.0744,7.1283,7.2091,7.286,7.3437,7.2976,7.2629,7.2629,7.1552,7.1014,7.1321,7.0514,7.0206,7.0475,6.9436,6.8845,6.8935,6.7019,6.4905,6.2578,0.0,0.0,0.0,0.0,0.0,0.0,0.0,0.0,0.0,0.0,0.0,0.0,0.0,0.0,0.0,0.0,0.0,0.0,0.0,0.0,0.0,0.0,0.0,7.8646,8.1516,8.3378,8.2647,8.6242,8.7781,8.5318,8.7297,8.8414,8.7528,8.826,8.876,8.876,8.8799,8.9222,8.9975,8.9261,8.9222,9.0013,8.9222,8.8837,8.8799,8.8837,8.8837,8.8799,8.8799,8.8799,8.876,8.876,8.8845,8.9023,8.9023,8.9172,8.9164,8.7002,8.6165,8.6165,8.6126,8.6126,8.6011,8.5241,8.4972,8.4818,8.3949,8.3252,8.2759,8.2759,8.2139,8.1685,8.2487,8.2559,8.2563,8.3394,8.3625,8.3625,8.3609,8.2362,8.117,8.1131,7.9823,7.8592,7.8554,7.7246,7.5322,7.2745,7.2322,7.2014,7.1129,7.1706,0.0,7.2283,7.3053,7.363,7.363,7.3591,7.3591,7.3591,7.1975,7.1297,7.2105,6.9835,6.8834,6.9694,6.8091,6.7023,6.6569,6.4304,6.3594,6.4414,0.0,0.0,0.0,0.0,0.0,0.0,0.0,0.0,0.0,0.0,0.0,0.0,0.0,0.0,0.0,0.0,0.0,0.0,0.0,0.0,0.0,8.0909,8.2583,8.2263,8.3555,8.5452,8.7831,8.9135,8.963,8.9094,8.9648,8.9726,8.8921,8.9609,9.0075,9.0075,9.129,9.2066,9.2288,9.2066,9.2066,9.2288,9.2066,9.1628,9.1046,9.1667,9.1628,9.1007,9.1007,9.0697,9.0075,9.0075,8.9779,8.9304,8.9304,8.9341,8.9277,8.8041,8.7552,8.7474,8.6842,8.6609,8.6571,8.6338,8.626,8.6144,8.5261,8.4884,8.4638,8.4025,8.3675,8.3559,8.3792,8.3815,8.3755,8.3824,8.3799,8.3771,8.3634,8.3247,8.2747,8.2093,8.1593,8.09,7.9669,7.9054,7.7938,7.5399,7.4976,7.4476,7.3014,7.3476,7.4014,7.4014,7.5322,7.6245,7.6245,7.5707,7.5322,7.5322,7.3168,7.1737,7.1495,7.0231,6.967,7.0054,6.9597,6.9614,7.0243,6.7955,6.6875,0.0,0.0,0.0,0.0,0.0,0.0,0.0,0.0,0.0,0.0,0.0,0.0,0.0,0.0,0.0,0.0,0.0,0.0,0.0,0.0,0.0,0.0,8.4682,8.6601,8.7035,8.7513,8.8623,9.0713,9.1628,9.212,9.2226,9.2243,9.2048,9.1581,9.1971,9.2243,9.2243,9.3177,9.3722,9.3722,9.3722,9.3722,9.3722,9.3722,9.3488,9.3013,9.3488,9.3488,9.2974,9.2974,9.271,9.2243,9.2243,9.1825,9.1126,9.1126,9.0969,9.0584,0.0,0.0,0.0,0.0,8.7089,8.6817,8.6817,8.6817,8.6739,8.6194,8.6101,8.6092,8.5624,8.5474,8.5474,8.5474,8.5421,8.5296,8.5064,8.4982,8.4933,8.4705,8.4401,8.4016,8.3516,8.3093,8.2439,8.1093,8.0862,0.0,7.7977,7.7284,7.6592,7.5284,7.5784,7.6169,7.5822,7.6976,7.7784,7.7784,7.7361,7.7088,7.7163,7.4835,0.0,0.0,0.0,6.9772,6.9189,6.9212,0.0,0.0,0.0,0.0,0.0,6.8281,0.0,0.0,6.6015,6.5625,0.0,0.0,0.0,0.0,0.0,0.0,0.0,0.0,0.0,0.0,0.0,0.0,0.0,0.0,0.0,0.0,8.8233,9.0461,9.2051,9.2433,9.2464,9.2246,9.3608,9.4551,9.4575,9.4575,9.4575,9.4575,9.4575,9.4575,9.4575,9.4653,0.0,0.0,0.0,9.4731,9.4731,9.4731,9.4692,9.4575,9.4692,9.4653,9.4575,9.4575,9.4575,9.4575,9.4575,9.4238,9.3681,9.3681,9.3335,9.2538,9.0451,8.955,8.9355,8.8608,8.7751,8.7004,8.7004,0.0,0.0,8.6887,8.6991,8.7163,8.7163,8.7163,8.7163,8.7163,8.7003,8.6841,8.6627,8.6588,8.6492,8.6192,8.5581,8.5027,8.4939,8.4286,8.3478,8.2631,8.2448,8.2016,8.0515,7.9353,7.8361,7.7553,7.8015,7.8237,7.755,7.8166,7.8681,7.8686,7.87,0.0,7.8973,7.6746,7.5342,7.5326,7.2328,6.9891,6.8372,6.8546,6.8664,6.8669,6.894,7.0195,7.2422,7.2539,7.3437,7.4883,6.9258,6.8281,0.0,0.0,0.0,0.0,0.0,0.0,0.0,0.0,0.0,0.0,0.0,0.0,0.0,0.0,0.0,8.8579,9.1213,9.3387,9.4401,9.5731,9.5988,9.4427,9.4529,9.484,9.5022,9.5065,9.5065,9.5065,9.5065,9.5065,9.5065,9.5729,9.612,9.612,9.612,9.612,9.612,9.612,9.5768,9.5065,9.5768,0.0,9.5065,9.5065,9.5065,9.5065,9.5065,9.4992,9.488,9.488,9.4373,9.3476,9.1634,9.0495,8.9871,8.9675,8.9089,8.8347,8.8347,8.7918,8.7371,8.7371,8.7375,8.7418,8.7418,8.7418,0.0,8.7418,8.7376,8.7318,8.7068,8.6991,8.687,8.6529,8.63,8.5948,8.5081,8.4786,8.4401,8.3516,8.348,8.3502,8.3153,8.1123,7.9246,7.84,7.84,7.8479,7.8501,7.9272,7.983,8.0028,8.0046,8.0064,8.0106,7.8412,7.6819,7.5629,7.3757,7.2569,7.2218,7.2926,7.3318,7.3318,7.4023,7.4648,7.5156,7.5859,7.6719,7.7656,7.4375,7.3594,0.0,0.0,0.0,0.0,0.0,0.0,0.0,0.0,0.0,0.0,0.0,8.4361,8.6176,0.0,8.9945,9.2093,9.4333,9.5937,9.6406,9.7929,9.8319,9.6468,9.701,9.7606,9.7734,9.7734,9.7734,9.7734,9.7734,9.7578,9.7109,9.7929,9.8008,9.7148,9.7539,9.7539,9.7109,9.7109,9.6875,9.6445,9.7344,9.7304,9.6484,9.6914,9.6875,9.6445,9.6445,9.6211,9.582,9.539,9.4922,9.4453,9.3594,9.2187,9.0664,9.0664,9.0117,8.9336,8.9336,8.9101,8.875,8.875,8.8476,8.8086,8.8086,8.7812,8.75,8.75,8.75,8.7459,8.717,8.7104,8.7019,8.6719,8.6669,8.651,8.5974,8.586,8.5589,8.4711,8.4643,8.4592,8.4165,8.2965,8.174,8.0888,8.0733,8.0633,8.0291,8.0621,8.094,8.1057,8.1065,8.1102,8.1193,7.9743,7.8308,7.7128,7.5934,7.5234,7.5234,7.5664,7.6094,7.6523,7.6992,7.7617,7.8437,7.8906,7.9765,8.1015,7.9726,7.8633,0.0,0.0,0.0,0.0,0.0,0.0,0.0,8.4305,8.5058,8.5097,8.6483,8.8451,9.082,9.1953,9.3281,9.5586,9.7226,9.8203,9.8203,9.9726,10.0312,9.8867,9.9648,10.0312,10.0312,10.0312,10.0312,10.0312,10.0312,10.0,9.9297,9.9922,9.9648,9.8242,9.8906,9.8906,9.8203,9.8203,9.8203,9.8203,9.8906,9.8867,9.8242,9.8945,9.8867,9.8203,9.8047,9.7578,9.6914,9.6054,9.5586,9.5469,9.5469,9.4062,9.2031,9.1875,9.1133,9.0234,9.0234,9.0156,9.0,9.0,8.9531,8.8906,8.875,8.8242,8.7695,8.7539,8.75,8.7459,8.7228,8.7173,8.7108,8.6922,8.688,8.6864,8.6825,8.6817,8.6583,8.5891,8.5767,8.5602,8.4947,8.4903,8.4552,8.3423,8.3252,8.2995,8.2362,8.2253,8.2266,8.2338,8.2299,8.2312,8.2326,8.1007,7.9844,7.9023,7.8164,7.7773,7.793,7.793,7.8359,7.9219,7.9414,8.0156,8.1523,8.1679,8.2461,8.3867,8.3867,8.2734,7.9353,8.1011,8.3649,8.4552,8.667,8.8786,0.0,9.1237,9.2241,9.1675,9.2968,9.4491,9.5586,9.6445,9.7344,9.8398,9.9375,10.0,10.0,10.1484,10.25,10.2304,10.1094,10.0312,10.0312,10.0312,10.0312,10.0312,10.0312,10.0312,10.0195,10.0195,10.0195,10.0,10.0117,10.0117,10.0,10.0,10.0,10.0,10.0117,10.0117,10.0,10.0117,10.0117,9.9961,9.9179,9.8789,9.8633,9.7773,9.6992,9.6367,9.6367,9.5703,9.4687,9.3906,9.2578,9.1133,9.1133,9.0664,9.0,9.0,8.9922,8.9726,8.8945,8.8633,8.8437,8.7695,8.75,8.75,8.746,8.746,8.7376,8.7112,8.7087,8.7013,8.6857,8.6817,8.6778,8.6661,8.6799,8.6892,8.6814,8.6962,8.6455,8.4441,8.4155,8.4175,8.4269,8.4282,8.4356,8.4525,8.4527,8.4255,8.3475,8.2539,8.164,8.0781,7.9883,7.9765,8.0547,8.0586,8.0976,8.1875,8.2656,8.3125,8.332,8.4101,8.457,8.4765,8.4765,8.4609,8.4401,8.5989,8.7804,8.9274,9.1591,9.3631,9.4083,9.5924,9.7296,9.6484,9.8125,9.9648,9.9492,9.9726,10.0117,10.0508,10.0781,10.1211,10.1719,10.289,10.3711,10.3711,10.3008,10.2617,10.2617,10.2109,10.1797,10.1797,10.1797,10.1601,10.1094,10.1484,10.1289,10.0312,10.0781,10.0781,10.0312,10.0312,10.0312,10.0312,10.0781,10.0781,10.0312,10.0781,10.0781,10.0312,9.9922,9.9765,9.9726,9.9375,9.8711,9.7969,9.7969,9.7148,9.5781,9.4414,9.3437,9.2734,9.2226,9.1836,9.1523,9.1523,9.1172,9.0703,9.0312,8.9844,8.9375,8.9062,8.8945,8.8945,8.8945,8.8945,8.8945,8.8818,8.8385,8.8026,8.7918,8.7521,8.7209,8.7209,8.7275,8.7329,8.7329,8.7419,8.7185,8.6288,8.5729,8.5233,8.4827,8.4753,8.4797,8.4883,8.4883,8.4765,8.4375,8.4023,8.3672,8.3281,8.2929,8.289,8.3242,8.3281,8.3437,8.3828,8.4179,8.4609,8.5117,8.5469,8.5937,8.6406,8.6237,8.6181,8.7518,8.9841,9.1963,9.3592,9.6133,9.832,9.8554,10.039,10.1914,10.1289,10.2812,10.3984,10.3203,10.2812,10.2617,10.2383,10.25,10.2812,10.3203,10.3984,10.4609,10.4609,10.4297,10.4219,10.4219,10.3398,10.289,10.289,10.289,10.2617,10.1992,10.2617,10.2304,10.1094,10.1601,10.1719,10.1015,10.1015,10.1015,10.1015,10.1719,10.1601,10.1015,10.1719,10.1601,10.1015,10.0781,10.0703,10.0586,10.039,9.9922,9.9375,9.9375,9.8476,9.6992,9.5508,9.4648,9.4179,9.3554,9.332,9.332,9.332,9.2734,9.1953,9.1719,9.1054,9.0312,9.0078,9.0,9.0,9.0,9.0,9.0,9.0,8.9531,8.9062,8.9062,8.8398,8.7812,8.7812,8.7656,8.75,8.75,8.75,8.75,8.75,8.6953,8.6328,8.5703,8.5625,8.5625,8.5625,8.5625,8.5508,8.5273,8.5273,8.5156,8.4922,8.4883,8.5,8.5234,8.5273,8.5351,8.5625,8.5625,8.5897,8.6439,8.6439,8.6746,8.7318,8.7096,8.6991,8.7265,9.1836,9.6484,9.7344,10.0117,10.289,10.3789,10.5312,10.6484,10.6484,10.7187,10.7617,10.6719,10.5898,10.5117,10.4297,10.4804,10.5117,10.4297,10.4883,10.5508,10.5508,10.4687,10.4219,10.4219,10.3398,10.289,10.289,10.289,10.289,10.289,10.289,10.289,10.2812,10.2812,10.2812,10.2812,10.2812,10.2812,10.2812,10.2812,10.2812,10.2812,10.2812,10.2812,10.2812,10.1914,10.1601,10.1484,10.0586,10.0312,10.0312,10.0312,9.9726,9.8828,9.7929,9.6562,9.5156,9.5117,9.5117,9.5117,9.5117,9.4531,9.3672,9.2812,9.1953,9.1094,9.0234,9.0,9.0,9.0,9.0,9.0,9.0,8.9961,8.9961,8.9961,8.9297,8.8672,8.8672,8.8047,8.75,8.75,8.75,8.75,8.75,8.7461,8.7461,8.7422,8.7422,8.7422,8.7422,8.7422,8.707,8.6211,8.6172,8.5781,8.4961,8.4883,8.5273,8.6133,8.6172,8.6562,8.7383,8.7422,8.7296,8.7069,8.7069,8.7008,8.6833,8.6833,8.67,9.2304,9.5351,9.7929,10.0508,10.3711,10.6406,10.6719,10.8515,10.9804,10.8711,10.8203,10.7617,10.6211,10.5195,10.4414,10.3515,10.5,10.5781,10.4414,10.5898,10.6484,10.4804,10.4883,10.4609,10.3398,10.3086,10.289,10.289,10.289,10.289,10.289,10.289,10.289,10.289,10.289,10.289,10.289,10.289,10.289,10.289,10.289,10.289,10.289,10.289,10.289,10.289,10.2617,10.25,10.2383,10.2109,10.1719,10.1094,10.0508,9.9765,9.8906,9.8008,9.7344,9.6719,9.5586,9.5195,9.5195,9.5195,9.5,9.4726,9.4414,9.4101,9.3828,9.3515,9.3047,9.2578,9.2578,9.2148,9.1719,9.1719,9.1289,9.0859,9.0859,9.0195,8.957,8.957,8.9336,8.914,8.914,8.8672,8.8125,8.7578,8.75,8.75,8.75,8.75,8.75,8.75,8.75,8.7383,8.7109,8.707,8.6953,8.664,8.664,8.6758,8.7031,8.6899,8.6954,8.723,8.7087,8.6974,8.6916,8.6916,8.6887,8.6817,8.6651,8.6549,9.5195,9.7773,9.9844,10.3008,10.5898,10.8086,10.8398,11.0,11.1015,10.9609,10.8906,10.789,10.5898,10.4804,10.3906,10.3008,10.4804,10.5898,10.4804,10.6093,10.6484,10.4883,10.4609,10.4101,10.3008,10.289,10.289,10.289,10.289,10.289,10.289,10.289,10.289,10.289,10.289,10.289,10.289,10.289,10.289,10.289,10.289,10.289,10.289,10.289,10.289,10.289,10.289,10.289,10.289,10.289,10.2383,10.1484,10.1015,10.0,9.8984,9.8711,9.8242,9.7539,9.6484,9.6094,9.6094,9.6094,9.5898,9.5664,9.5664,9.5469,9.5195,9.5195,9.4804,9.4297,9.3984,9.3476,9.3008,9.2656,9.2187,9.1758,9.1758,9.1094,9.0469,9.0469,9.0195,9.0,9.0,8.9531,8.8867,8.8047,8.7929,8.7812,8.7539,8.75,8.75,8.75,8.75,8.75,8.75,8.75,8.75,8.75,8.7417,8.7372,8.7372,8.7104,8.7153,8.7459,8.7308,8.7357,8.7574,8.7264,8.7057,8.6998,8.6559,8.6373,9.6015,9.9179,10.2304,10.4883,10.6797,10.8281,10.9101,10.9883,11.0312,10.9414,10.9101,10.8203,10.5781,10.4609,10.3789,10.3008,10.4414,10.5586,10.5508,10.5586,10.5586,10.5508,10.4101,10.3086,10.3008,10.3008,10.289,10.289,10.289,10.289,10.289,10.289,10.289,10.289,10.289,10.289,10.289,10.289,10.289,10.289,10.289,10.289,10.289,10.289,10.289,10.289,10.289,10.289,10.289,10.289,10.2383,10.1719,10.1601,10.0586,9.9219,10.0,9.9258,9.7812,9.7812,9.7773,9.7695,9.7695,9.7187,9.6562,9.6562,9.5976,9.5312,9.5312,9.5312,9.5078,9.4258,9.3984,9.375,9.2851,9.2656,9.2656,9.2617,9.1953,9.1367,9.1367,9.0703,9.0117,9.0078,9.0078,8.9765,8.8906,8.8789,8.8476,8.7617,8.75,8.75,8.75,8.75,8.75,8.75,8.75,8.75,8.7539,8.7306,8.7135,8.7135,8.6987,8.7267,8.8075,8.8105,8.8399,8.8959,8.8146,8.7673,8.744,8.6632,8.6247,9.9062,10.1914,10.3906,10.5195,10.7187,10.8984,10.9218,10.9492,10.9414,10.8515,10.5781,10.3594,10.3594,10.2304,10.1601,10.2695,10.539,10.6914,10.5703,10.7109,10.7617,10.5703,10.5586,10.5195,10.3984,10.3906,10.3594,10.289,10.289,10.289,10.289,10.289,10.289,10.289,10.289,10.289,10.289,10.289,10.289,10.289,10.289,10.289,10.289,10.289,10.289,10.289,10.289,10.289,10.289,10.289,10.2812,10.25,10.1914,10.1289,10.0898,10.0508,10.0,9.9648,9.9648,9.8789,9.7695,9.7695,9.7578,9.7383,9.7383,9.7226,9.707,9.707,9.664,9.6133,9.5898,9.5351,9.4648,9.3789,9.3554,9.3398,9.2734,9.2422,9.2265,9.2265,9.2109,9.1719,9.1094,9.0976,9.0664,8.9804,8.9687,8.914,8.7695,8.75,8.75,8.75,8.75,8.75,8.75,8.7327,8.7492,8.8113,8.796,8.7861,8.7861,8.8225,8.8216,8.7801,8.8284,8.8637,8.8759,8.8528,8.8441,8.8363,8.8132,8.8017,10.1289,10.3398,10.5,10.5781,10.7109,10.8008,10.7187,10.6797,10.6015,10.4414,10.2109,10.0508,10.0586,10.039,10.0703,10.2109,10.4883,10.6797,10.6601,10.7812,10.8203,10.6797,10.6719,10.6211,10.4883,10.4414,10.3984,10.3515,10.3086,10.289,10.289,10.289,10.289,10.289,10.289,10.289,10.289,10.289,10.289,10.289,10.289,10.289,10.289,10.289,10.289,10.289,10.289,10.289,10.289,10.289,10.2695,10.2304,10.1797,10.1406,10.1015,10.0898,10.0586,10.039,10.0703,9.9726,9.8281,9.8281,9.8008,9.7695,9.7695,9.7695,9.7695,9.7695,9.7383,9.6953,9.6601,9.6133,9.5547,9.4687,9.4453,9.4336,9.3867,9.3437,9.3047,9.2656,9.2617,9.2422,9.1953,9.1875,9.1562,9.0703,9.0586,9.0077,8.8656,8.8551,8.8594,8.8594,8.8509,8.8459,8.8459,8.8223,8.8254,8.8761,8.8611,8.8505,8.8505,8.8752,8.8789,8.8673,8.9019,8.9402,8.9787,8.9402,8.9248,8.921,8.8863,8.8709,10.3086,10.4492,10.5781,10.6484,10.6719,10.6289,10.4687,10.3398,10.1914,9.9492,9.8633,9.8203,9.7773,9.8867,10.0312,10.1914,10.3906,10.6015,10.789,10.8086,10.8008,10.8008,10.7304,10.6601,10.5703,10.5,10.4414,10.4219,10.3515,10.3008,10.289,10.289,10.289,10.289,10.289,10.289,10.289,10.289,10.289,10.289,10.289,10.289,10.289,10.289,10.289,10.289,10.289,10.289,10.289,10.289,10.25,10.1797,10.1797,10.1289,10.0703,10.1484,10.1289,10.0781,10.1484,10.0586,9.914,9.9023,9.8398,9.7695,9.7695,9.7695,9.7695,9.7695,9.7695,9.7539,9.6836,9.664,9.6445,9.5586,9.5351,9.5351,9.5234,9.457,9.3787,9.3045,9.277,9.2727,9.2806,9.2767,9.2415,9.1673,9.1556,9.1152,9.0135,8.9974,8.9958,8.9916,8.975,8.9652,8.9652,8.9418,8.9323,8.9439,8.9251,8.9112,8.9112,8.9061,8.9325,8.9902,9.0017,9.0441,9.121,9.0556,9.021,9.0056,8.9479,8.9133,10.539,10.6289,10.6484,10.6719,10.6719,10.6406,10.5508,10.289,10.039,9.9258,9.6758,9.539,9.7344,9.7383,9.8828,10.3984,10.4609,10.5508,10.8593,10.8515,10.8008,10.8008,10.789,10.7383,10.6601,10.6406,10.5703,10.4297,10.4101,10.3711,10.289,10.289,10.289,10.289,10.289,10.289,10.289,10.289,10.289,10.289,10.289,10.289,10.289,10.289,10.289,10.289,10.289,10.289,10.289,10.289,10.2812,10.2695,10.2695,10.2617,10.25,10.2617,10.2617,10.25,10.2617,10.1484,9.9961,9.9219,9.8398,9.7695,9.7695,9.7695,9.7695,9.7695,9.7695,9.7656,9.7539,9.75,9.7304,9.6484,9.6289,9.6094,9.5351,9.4903,9.4583,9.4466,9.3716,9.3297,9.3959,9.3531,9.3032,9.2869,9.2869,9.255,9.1623,9.049,8.9671,8.9462,8.9372,8.9387,8.9387,8.9165,8.9382,9.0068,8.9894,8.9734,8.9734,9.0398,9.0479,8.9902,9.0633,9.1056,9.121,9.1787,9.1672,9.0979,9.1556,9.1441,10.6992,10.8008,10.8515,10.7617,10.6992,10.6015,10.3398,10.0508,9.7695,9.5469,9.3672,9.3047,9.4726,9.5859,9.7734,10.1484,10.25,10.3984,10.75,10.7617,10.7695,10.8593,10.8711,10.8281,10.75,10.6992,10.6406,10.5586,10.4687,10.3789,10.289,10.289,10.289,10.289,10.289,10.289,10.289,10.289,10.289,10.289,10.289,10.289,10.289,10.289,10.289,10.289,10.289,10.289,10.289,10.289,10.289,10.289,10.289,10.289,10.289,10.289,10.289,10.289,10.289,10.2109,10.0898,10.0508,9.914,9.7773,9.8242,9.8047,9.7773,9.8242,9.8047,9.7695,9.7695,9.7611,9.7435,9.7045,9.6855,9.6539,9.5642,9.5348,9.5133,9.4666,9.4193,9.3959,9.4348,9.4075,9.3803,9.3803,9.3803,9.3639,9.3115,9.2433,9.1654,9.0738,9.0537,9.0453,9.0453,9.0685,9.0813,9.0775,9.1484,9.171,9.1287,9.2056,9.2287,9.1902,9.2287,9.2518,9.2518,9.2903,9.2903,9.2518,9.2941,9.2903,10.8086,10.9101,10.9687,10.8086,10.7109,10.539,10.1211,9.832,9.5547,9.2265,9.1445,9.1562,9.2422,9.4414,9.6679,9.8906,10.0312,10.2383,10.6211,10.6601,10.7109,10.8789,10.8984,10.8789,10.8086,10.7383,10.6914,10.6719,10.5117,10.3789,10.289,10.289,10.289,10.289,10.289,10.289,10.289,10.289,10.289,10.289,10.289,10.289,10.289,10.289,10.289,10.289,10.289,10.289,10.289,10.289,10.289,10.289,10.289,10.289,10.289,10.289,10.289,10.289,10.2809,10.2182,10.1517,10.1392,9.9994,9.8398,9.9062,9.8632,9.8043,9.8746,9.8271,9.76,9.7795,9.7554,9.7327,9.7327,9.7138,9.6817,9.6147,9.5943,9.567,9.5009,9.4684,9.4602,9.4757,9.4641,9.4524,9.4524,9.4524,9.4404,9.4051,9.4022,9.3593,9.2416,9.1954,9.1779,9.1972,9.2299,9.2287,9.1787,9.2979,9.3403,9.2787,9.3364,9.371,9.371,9.371,9.371,9.371,9.3903,9.3864,9.371,9.3903,9.3864,10.8593,10.8711,10.8008,10.7109,10.6211,10.4687,10.1094,9.832,9.5742,9.3047,9.1836,9.1562,9.2422,9.3437,9.5469,9.9531,9.9648,10.1015,10.6015,10.6093,10.6211,10.789,10.8086,10.8086,10.8008,10.789,10.7617,10.6797,10.5117,10.3789,10.289,10.289,10.289,10.289,10.289,10.289,10.289,10.289,10.289,10.289,10.289,10.289,10.289,10.289,10.289,10.289,10.289,10.289,10.289,10.289,10.289,10.289,10.289,10.289,10.289,10.289,10.289,10.289,10.2608,10.1987,10.1188,10.0995,10.049,10.0117,10.0195,9.9438,9.8639,9.8717,9.7922,9.723,9.8047,9.7641,9.7048,9.7048,9.703,9.6973,9.6895,9.6699,9.6488,9.641,9.5618,9.5182,9.5991,9.5452,9.4951,9.4951,9.4951,9.4643,9.382,9.3743,9.3684,9.3564,9.2875,9.2704,9.3435,9.29,9.2787,9.3441,9.3595,9.3672,9.3595,9.3672,9.371,9.371,9.371,9.371,9.371,9.448,9.448,9.371,9.4518,9.4441,10.7304,10.8593,10.9101,10.7187,10.6484,10.5195,10.1211,9.832,9.5625,9.2461,9.1523,9.1406,9.1758,9.2539,9.3867,9.6094,9.6172,9.7383,10.1484,10.2187,10.3398,10.6211,10.6914,10.7383,10.789,10.8008,10.7617,10.6797,10.6093,10.5312,10.4492,10.3515,10.289,10.289,10.289,10.289,10.289,10.289,10.289,10.289,10.289,10.289,10.289,10.289,10.289,10.289,10.289,10.289,10.289,10.289,10.289,10.289,10.289,10.289,10.289,10.2714,10.2699,10.2608,10.2393,10.2016,10.1689,10.1593,10.1494,10.1306,10.0793,9.993,9.9281,9.9834,9.9263,9.8598,9.8948,9.867,9.8169,9.7446,9.731,9.717,9.6667,9.649,9.6415,9.6415,9.6068,9.5903,9.6249,9.6019,9.5788,9.5788,9.5788,9.5672,9.5326,9.5249,9.5249,9.5249,9.4057,9.3364,9.3672,9.3903,9.3903,9.371,9.4672,9.5018,9.448,9.498,9.5249,9.5249,9.5249,9.5249,9.5288,9.5595,9.5595,9.5288,9.5634,9.5595,10.6211,10.8008,10.8984,10.7187,10.6289,10.4883,10.0781,9.8125,9.5586,9.2344,9.1679,9.1679,9.1679,9.2187,9.289,9.375,9.4101,9.539,9.8554,9.9531,10.1094,10.4297,10.5,10.5703,10.7109,10.7695,10.7695,10.7109,10.6797,10.6484,10.5898,10.4219,10.3281,10.3281,10.3281,10.3203,10.289,10.289,10.289,10.289,10.289,10.289,10.289,10.289,10.289,10.289,10.289,10.289,10.289,10.2807,10.2803,10.2802,10.271,10.2702,10.2615,10.2493,10.2413,10.2309,10.209,10.1984,10.2012,10.1917,10.188,10.1686,10.1103,10.0388,9.9913,10.0507,10.0206,9.9616,9.9345,9.9391,9.9194,9.8132,9.7865,9.7711,9.7173,9.7057,9.7057,9.7057,9.7057,9.7057,9.7057,9.7057,9.7057,9.7057,9.7057,9.7057,9.7057,9.7057,9.7057,9.7057,9.5942,9.5018,9.4518,9.4788,9.4826,9.448,9.5634,9.6019,9.5403,9.598,9.6288,9.6288,9.6288,9.6288,9.6288,9.6557,9.6634,9.6673,9.6903,9.7057,10.5508,10.6719,10.6719,10.6719,10.5508,10.3281,9.9804,9.7695,9.5742,9.3125,9.2578,9.2578,9.2578,9.2578,9.289,9.375,9.4609,9.6094,9.8633,9.9023,10.0,10.2617,10.2187,10.2695,10.5312,10.6992,10.8008,10.8008,10.7187,10.6719,10.6719,10.5117,10.4219,10.4219,10.4219,10.3789,10.289,10.289,10.289,10.289,10.289,10.289,10.289,10.289,10.289,10.289,10.289,10.289,10.289,10.2605,10.248,10.2509,10.221,10.208,10.208,10.2119,10.2119,10.2119,10.1802,10.17,10.1718,10.1382,10.1289,10.1289,10.1289,10.0904,10.0514,10.0514,10.0298,9.9885,9.9038,9.9461,9.9885,9.8981,9.8788,9.8788,9.8788,9.875,9.875,9.875,9.875,9.875,9.875,9.875,9.875,9.875,9.875,9.875,9.875,9.875,9.875,9.875,9.875,9.8096,9.6403,9.548,9.5365,9.6211,9.6288,9.6288,9.6288,9.6288,9.6288,9.6288,9.6288,9.6288,9.6288,9.7096,9.748,9.7519,9.8365,9.875,10.0898,10.2695,10.3789,10.2617,10.2383,10.1797,9.9531,9.7695,9.5937,9.3906,9.3008,9.2617,9.2617,9.2617,9.289,9.375,9.414,9.5,9.6992,9.8281,9.9765,10.1797,10.3789,10.5586,10.7109,10.7695,10.8008,10.8008,10.7695,10.7304,10.6719,10.6211,10.539,10.4219,10.3594,10.3203,10.289,10.289,10.289,10.289,10.289,10.289,10.289,10.289,10.289,10.289,10.289,10.289,10.289,10.2807,10.2802,10.28,10.2705,10.2499,10.2393,10.2214,10.1995,10.1788,10.1495,10.1398,10.1419,10.1289,10.1289,10.1289,10.1289,10.1211,10.1013,10.1013,10.098,10.0904,10.0596,10.0712,10.0712,9.9865,9.9673,9.9519,9.8942,9.8788,9.8788,9.8788,9.8788,9.8788,9.8788,9.8788,9.8788,9.8788,9.8788,9.8788,9.8788,9.8788,9.8788,9.8788,9.8788,9.8596,9.8057,9.775,9.7711,9.798,9.8019,9.8019,9.8019,9.7442,9.7134,9.7134,9.7134,9.7134,9.7134,9.798,9.8404,9.8404,9.8673,9.8788,9.8711,10.0703,10.1797,10.1406,10.1211,10.0703,9.8906,9.7461,9.5898,9.3828,9.3242,9.3008,9.2656,9.2617,9.2773,9.332,9.3945,9.4765,9.5859,9.7187,9.8672,10.039,10.3398,10.5703,10.6914,10.7617,10.789,10.75,10.75,10.7109,10.6289,10.5898,10.5312,10.4219,10.3711,10.3203,10.289,10.289,10.289,10.289,10.289,10.289,10.289,10.289,10.289,10.289,10.289,10.289,0.0,10.2805,10.2707,10.2597,10.2514,10.2304,10.1989,10.1919,10.1686,10.1495,10.1404,10.1289,10.1289,10.1289,10.1289,10.1289,10.1289,10.1289,10.1289,10.1289,10.1289,10.1289,10.1289,10.1289,10.1212,10.0712,10.0596,10.0404,9.9865,9.975,9.975,9.975,9.975,9.975,9.975,9.975,9.975,9.975,9.975,9.975,9.975,9.975,9.975,9.975,9.975,9.975,9.975,9.9173,9.8788,9.8788,9.8788,9.8788,9.8788,9.8288,9.798,9.798,9.798,9.798,9.798,9.8865,9.9442,9.975,9.975,9.975,0.0,9.9804,10.0195,10.1914,10.1094,9.9492,9.789,9.6914,0.0,9.3203,9.3281,9.3554,9.2656,9.25,9.25,9.25,9.3906,9.5039,9.5117,9.6015,9.7383,9.9258,10.1601,10.3711,10.539,10.6914,10.75,10.6719,10.6601,10.6289,10.5508,10.4609,10.4219,10.4101,10.4101,10.3711,10.289,10.289,10.289,10.289,10.289,10.289,10.289,10.289,10.289,10.289,10.289,10.289,10.2889,10.2593,10.2295,10.209,10.1802,10.16,10.1289,10.1289,10.1308,10.1289,10.1289,10.1289,10.1289,10.1289,10.1289,10.1289,10.1289,10.1289,10.1289,10.1289,10.1289,10.1289,10.1289,10.1289,10.1289,10.1289,10.1289,10.1289,10.1289,10.1289,10.1289,10.1289,10.1289,10.1289,10.1289,10.1289,10.1289,10.1289,10.1289,10.1289,10.1289,10.1289,10.1289,10.1289,10.1289,10.1289,10.1289,9.9865,9.8981,9.8981,9.8981,9.8981,9.8981,9.8904,9.8904,9.8904,9.8904,9.8904,9.8981,9.9788,10.0596,10.1289,10.1289,10.1289,9.3476,0.0,9.5508,9.5898,9.6211,9.6289,0.0,9.5117,9.4336,9.3711,9.3242,9.2656,9.1758,9.1601,9.1601,9.1601,9.25,9.3437,9.4101,9.664,9.9804,10.3515,10.3906,10.4609,10.6289,10.6211,10.6015,10.5781,10.5781,10.539,10.4609,10.4297,10.3906,10.3203,10.3203,10.3086,10.289,10.289,10.289,10.289,10.289,10.289,10.289,10.289,10.289,10.289,10.2705,10.2597,10.259,10.2288,10.2205,10.211,10.2,10.1815,10.1587,10.1587,10.1487,10.1289,10.1289,10.1289,10.1289,10.1289,10.1289,10.1289,10.1289,10.1289,10.1289,10.1289,10.1289,10.1289,10.1289,10.1289,10.1289,10.1289,10.1289,10.1289,10.1289,10.1289,10.1289,10.1289,10.1289,10.1289,10.1289,10.1289,10.1289,10.1289,10.1289,10.1289,10.1289,10.1289,10.1289,10.1289,10.1289,10.1289,10.1289,10.0904,10.0712,10.0712,10.0712,10.0712,10.0712,10.0096,9.9788,9.9788,9.9788,10.0096,10.0712,10.0904,10.1096,10.1289,10.1289,10.1289,9.0898,9.2617,9.4101,9.4883,9.5469,9.5703,9.5273,9.4844,9.4258,9.3476,9.2929,9.2344,9.1445,9.0976,9.082,9.125,9.1947,9.3146,9.5216,9.7888,10.0898,10.4492,10.4492,10.4883,10.6484,10.6015,10.5312,10.4883,10.4883,10.4492,10.3711,10.3594,10.3398,10.289,10.289,10.289,10.289,10.289,10.289,10.289,10.289,10.289,10.289,10.2802,10.2714,10.271,10.2404,10.2295,10.2288,10.2205,10.2,10.1915,10.1915,10.1811,10.1478,10.1478,10.1398,10.1289,10.1289,10.1289,10.1289,10.1289,10.1289,10.1289,10.1289,10.1289,10.1289,10.1289,10.1289,10.1289,10.1289,10.1289,10.1289,10.1289,10.1289,10.1289,10.1289,10.1289,10.1289,10.1289,10.1289,10.1289,10.1289,10.1289,10.1289,10.1289,10.1289,10.1289,10.1289,10.1289,10.1289,10.1289,10.1289,10.1289,10.1289,10.1289,10.1289,10.1289,10.1289,10.1289,10.1289,10.0904,10.0712,10.0712,10.0712,10.0904,10.1289,10.1289,10.1289,10.1289,10.1289,10.1289,9.0078,9.2109,9.4219,9.5586,9.6094,9.6054,9.5039,9.4922,9.4531,9.2929,9.25,9.2148,9.125,9.0625,9.039,9.0974,9.1907,9.371,9.707,9.9061,10.1085,10.3819,10.4014,10.4483,10.6006,10.5504,10.4685,10.3982,10.3984,10.3711,10.289,10.289,10.289,10.289,10.289,10.289,10.289,10.289,10.289,10.289,10.2889,10.281,10.2809,10.2585,10.241,10.2398,10.2205,10.201,10.201,10.2006,10.1777,10.1611,10.1611,10.15,10.1289,10.1289,10.1289,10.1289,10.1289,10.1289,10.1289,10.1289,10.1289,10.1289,10.1289,10.1289,10.1289,10.1289,10.1289,10.1289,10.1289,10.1289,10.1289,10.1289,10.1289,10.1289,10.1289,10.1289,10.1289,10.1289,10.1289,10.1289,10.1289,10.1289,10.1289,10.1289,10.1289,10.1289,10.1289,10.1289,10.1289,10.1289,10.1289,10.1289,10.1289,10.1289,10.1289,10.1289,10.1289,10.1289,10.1289,10.1289,10.1289,10.1289,10.1289,10.1289,10.1289,10.1289,10.1289,10.1289,10.1289,10.1289,9.1562,9.3047,9.3789,9.332,9.4297,9.4961,9.3359,9.3554,9.3828,9.2812,9.1992,9.1211,9.0351,9.0703,9.0856,9.0062,9.2263,9.5015,9.7758,9.8999,10.0613,10.32,10.2888,10.2811,10.3793,10.3301,10.2898,10.2781,10.2997,10.3008,10.289,10.289,10.289,10.289,10.289,10.289,10.289,10.289,10.289,10.289,10.2702,10.2585,10.2581,10.2304,10.2205,10.2118,10.1905,10.1786,10.168,10.1478,10.14,10.1404,10.1404,10.1308,10.1289,10.1289,10.1289,10.1289,10.1289,10.1289,10.1289,10.1289,10.1289,10.1289,10.1289,10.1289,10.1289,10.1289,10.1289,10.1289,10.1289,10.1289,10.1289,10.1289,10.1289,10.1289,10.1289,10.1289,10.1289,10.1289,10.1289,10.1289,10.1289,10.1289,10.1289,10.1289,10.1289,10.1289,10.1289,10.1289,10.1289,10.1289,10.1289,10.1289,10.1289,10.1289,10.1289,10.1289,10.1289,10.1289,10.1289,10.1289,10.1289,10.1289,10.1289,10.1289,10.1289,10.1289,10.1289,10.1289,10.1289,10.1289,9.1562,9.289,9.3906,9.3984,9.4961,9.5586,9.4297,9.3945,9.3475,9.2013,9.1127,9.0386,8.9727,9.041,9.144,9.2567,9.4815,9.7012,9.859,9.9985,10.1487,10.3209,10.3015,10.3015,10.3404,10.2685,10.2304,10.2304,10.2386,10.2504,10.2504,10.2504,10.2504,10.2504,10.2504,10.2504,10.2504,10.2504,10.2499,10.2705,10.2392,10.2304,10.2304,10.2017,10.1905,10.1892,10.1587,10.1504,10.1487,10.1385,10.1289,10.1289,10.1289,10.1289,10.1289,10.1289,10.1289,10.1289,10.1289,10.1289,10.1289,10.1289,10.1289,10.1289,10.1289,10.1597,10.1904,10.1404,10.1289,10.1289,10.1289,10.1289,10.1289,10.1289,10.1289,10.1289,10.1289,10.1289,10.1404,10.1904,10.1597,10.1597,10.252,10.2289,10.202,10.202,10.202,10.1789,10.1404,10.1289,10.1289,10.1289,10.1289,10.1289,10.1289,10.1289,10.1289,10.1289,10.1289,10.1289,10.1289,10.1289,10.1289,10.1289,10.1289,10.1289,10.1289,10.1289,10.1289,10.1289,10.1789,10.202,9.1562,9.2734,9.4062,9.4726,9.5547,9.6133,9.5859,9.5076,9.4048,9.2745,9.1712,9.0917,9.0571,9.128,9.2749,9.5196,9.729,9.8802,9.9328,10.0896,10.2187,10.2808,10.2886,10.2886,10.2886,10.24,10.2017,10.2017,10.2119,10.211,10.211,10.211,10.211,10.211,10.211,10.211,10.211,10.201,10.2109,10.2386,10.2109,10.2017,10.2006,10.1705,10.1587,10.161,10.1421,10.1289,10.1289,10.1289,10.1289,10.1289,10.1289,10.1289,10.1289,10.1289,10.1289,10.1289,10.1289,10.1404,10.1597,10.1597,10.1712,10.1904,10.1904,10.2404,10.2712,10.1789,10.1597,10.1597,10.1404,10.1289,10.1289,10.1289,10.1289,10.1289,10.1289,10.152,10.1789,10.252,10.2212,10.2289,10.3712,10.3289,10.2904,10.2904,10.2904,10.2712,10.202,10.1904,10.1904,10.1904,10.1904,10.1904,10.1904,10.1904,10.1904,10.1904,10.1904,10.1904,10.1904,10.1904,10.1904,10.1904,10.1904,10.1789,10.1597,10.1597,10.1597,10.1597,10.2289,10.2712,9.2304,9.3203,9.3906,9.3984,9.4648,9.5664,9.7187,9.6693,9.6119,9.6812,9.5413,9.4055,9.4027,9.4556,9.5324,9.6356,9.845,9.996,10.0,10.0807,10.1404,10.1404,10.1519,10.1519,10.1519,10.1594,10.1705,10.1705,10.2,10.211,10.211,10.211,10.211,10.211,10.211,10.211,10.211,10.1906,10.188,10.2099,10.1919,10.1705,10.1691,10.149,10.1289,10.1289,10.1289,10.1289,10.1289,10.1289,10.1289,10.1289,10.1289,10.1289,10.1289,10.1289,10.1289,10.1289,10.1289,10.1789,10.252,10.252,10.3097,10.3712,10.3712,10.3789,10.3597,10.2789,10.252,10.2289,10.152,10.1289,10.1289,10.1289,10.1289,10.1289,10.1289,10.1904,10.252,10.2597,10.3212,10.3789,10.3905,10.3789,10.3789,10.3789,10.3789,10.3789,10.3712,10.3712,10.3712,10.3712,10.3712,10.3712,10.3712,10.3712,10.3712,10.3712,10.3712,10.3712,10.3712,10.3712,10.3712,10.3712,10.3712,10.3289,10.252,10.252,10.252,10.252,10.2597,10.302,9.1719,9.1945,9.2465,9.4066,9.4216,9.4451,9.6276,9.6804,9.6758,9.6186,9.5612,9.532,9.5711,9.625,9.7153,9.8559,9.9958,10.0789,10.0789,10.1096,10.1289,10.1289,10.1289,10.1289,10.1289,10.1421,10.149,10.149,10.1992,10.2399,10.2399,10.2902,10.3018,10.2399,10.2399,10.2206,10.1587,10.15,10.15,10.1587,10.15,10.149,10.1395,10.1289,10.1289,10.1289,10.1289,10.1289,10.1289,10.1289,10.1289,10.1404,10.1904,10.2097,10.2212,10.2712,10.2904,10.2904,10.2904,10.3097,10.3405,10.3405,10.3597,10.3905,10.3905,10.4212,10.4482,10.3597,10.3789,10.3712,10.1789,10.1289,10.1289,10.1289,10.1712,10.2097,10.2097,10.2789,10.3597,10.4097,10.3982,10.4212,10.529,10.4982,10.4597,10.4597,10.4597,10.4482,10.3982,10.3905,10.3905,10.3905,10.3905,10.3905,10.3905,10.4405,10.4597,10.4597,10.4212,10.3905,10.3905,10.3905,10.3905,10.3905,10.3905,10.3712,10.3405,10.3405,10.3405,10.3405,10.3905,10.4289,9.128,9.1038,9.137,9.3398,9.3538,9.38,9.6125,9.7115,9.7497,9.7328,9.6966,9.6617,9.6514,9.7294,9.8211,9.9135,10.0404,10.1289,10.1289,10.1289,10.1289,10.1289,10.1289,10.1289,10.1289,10.1289,10.1289,10.1289,10.1904,10.2212,10.2212,10.2789,10.2789,10.2212,10.2212,10.1904,10.1289,10.1289,10.1289,10.1289,10.1289,10.1289,10.1289,10.1289,10.1289,10.1289,10.1289,10.1289,10.1289,10.1289,10.1289,10.1404,10.2289,10.2597,10.2712,10.3597,10.3905,10.3905,10.3905,10.4097,10.4289,10.4289,10.4482,10.4713,10.4713,10.5097,10.529,10.4482,10.4713,10.4597,10.2597,10.2097,10.2097,10.2097,10.2597,10.2981,10.2981,10.3712,10.4405,10.4982,10.4905,10.5097,10.6213,10.5905,10.5482,10.5482,10.5482,10.529,10.4789,10.4713,10.4713,10.4713,10.4713,10.4713,10.4713,10.5213,10.5482,10.5482,10.4982,10.4713,10.4713,10.4713,10.4713,10.4713,10.4713,10.4597,10.4289,10.4289,10.4289,10.4289,10.4789,10.5213,9.1202,9.0788,9.0825,9.1702,9.2567,9.4067,9.721,9.7901,9.8651,10.1182,10.0209,9.8288,9.6634,9.7673,9.8519,9.7673,9.9673,10.1289,10.1289,10.1289,10.1289,10.1289,10.1289,10.1289,10.1289,10.1289,10.1289,10.1289,10.1289,10.1289,10.1289,10.1289,10.1289,10.1289,10.1289,10.1289,10.1289,10.1289,10.1289,10.1289,10.1289,10.1289,10.1289,10.1289,10.1289,10.1289,10.1289,10.1289,10.1289,10.1289,10.1289,10.1404,10.2289,10.2597,10.2712,10.3597,10.3905,10.3905,10.3905,10.4405,10.5097,10.5097,10.5713,10.6405,10.6405,10.6405,10.6213,10.5405,10.5097,10.4905,10.4097,10.3905,10.3905,10.3905,10.3905,10.3905,10.3905,10.4482,10.5097,10.5097,10.579,10.6405,10.6405,10.6405,10.6405,10.6405,10.6405,10.6405,10.6405,10.6405,10.6405,10.6405,10.6405,10.6405,10.6405,10.6405,10.6405,10.6405,10.6405,10.6405,10.6405,10.6405,10.6405,10.6405,10.6405,10.602,10.5097,10.5097,10.5097,10.5097,10.5097,10.5597,8.9407,8.9785,9.071,9.2172,9.3977,9.6072,9.8833,9.9111,9.9313,10.1105,10.0518,9.9558,9.9058,9.9365,9.9635,9.9365,10.0404,10.1289,10.1289,10.1289,10.1289,10.1289,10.1289,10.1289,10.1289,10.1904,10.2212,10.2212,10.3289,10.3982,10.3982,10.4597,10.4597,10.3982,10.3982,10.3712,10.3097,10.252,10.252,10.3097,10.1904,10.1289,10.1289,10.1289,10.1289,10.1289,10.1289,10.1289,10.1289,10.1289,10.1289,10.1404,10.2904,10.3482,10.3712,10.5097,10.5713,10.5713,10.5713,10.579,10.602,10.602,10.6213,10.6405,10.6405,10.6405,10.629,10.6097,10.602,10.602,10.5713,10.5713,10.5405,10.4212,10.4289,10.4713,10.4713,10.5405,10.602,10.602,10.6213,10.6405,10.6405,10.6405,10.6405,10.6405,10.6405,10.6405,10.6405,10.6405,10.6405,10.6405,10.6405,10.6597,10.729,10.729,10.7598,10.8098,10.7598,10.7021,10.6405,10.6405,10.6405,10.6405,10.6405,10.6597,10.6905,10.6905,10.7213,10.779,10.779,10.7905,9.0244,9.0652,9.1662,9.3694,9.4981,9.6519,9.9442,10.0087,10.0308,10.1116,10.0712,10.0096,10.0096,10.0096,10.0096,10.0096,10.0789,10.1289,10.1289,10.1597,10.1712,10.1289,10.1904,10.2097,10.1404,10.2097,10.252,10.2097,10.302,10.3597,10.3597,10.4405,10.4597,10.4097,10.4405,10.4212,10.3405,10.2904,10.2712,10.2904,10.2212,10.1597,10.1289,10.1289,10.1289,10.1289,10.1289,10.1289,10.1289,10.1712,10.1789,10.202,10.3712,10.4405,10.4482,10.5905,10.6405,10.6405,10.6405,10.6405,10.6405,10.6405,10.6405,10.6405,10.6405,10.6405,10.6405,10.6405,10.6405,10.6405,10.6405,10.6713,10.6597,10.5213,10.529,10.5597,10.5597,10.602,10.6405,10.6405,10.6405,10.6405,10.6405,10.6405,10.6405,10.6405,10.6405,10.6521,10.6905,10.6905,10.7021,10.7405,10.7405,10.7598,10.8098,10.8213,10.8406,10.8906,10.8406,10.7905,10.7405,10.679,10.6405,10.6405,10.6713,10.7213,10.7713,10.7982,10.8406,10.8906,10.8906,10.8906,9.2393,9.2659,9.3326,9.5788,9.6057,9.6519,9.9596,10.0981,10.152,10.1289,10.0712,10.0212,10.0212,10.0212,10.0212,10.0289,10.0904,10.1289,10.1404,10.202,10.2212,10.1404,10.2712,10.302,10.152,10.2097,10.2289,10.152,10.1597,10.1597,10.1597,10.252,10.2904,10.2904,10.3712,10.3712,10.2981,10.2789,10.2404,10.1712,10.2212,10.2097,10.1404,10.1404,10.1404,10.1289,10.1289,10.1289,10.1404,10.2212,10.2597,10.2789,10.4405,10.5097,10.5213,10.6097,10.6405,10.6405,10.6405,10.6405,10.6405,10.6405,10.6405,10.6405,10.6405,10.6405,10.6405,10.6405,10.6405,10.6405,10.6405,10.7021,10.7521,10.6713,10.6597,10.6597,10.6521,10.6597,10.6597,10.6597,10.6597,10.6521,10.6597,10.6521,10.6405,10.6405,10.6521,10.679,10.7598,10.779,10.8098,10.879,10.8906,10.8906,10.8983,10.8983,10.9098,10.9098,10.9098,10.8983,10.8983,10.7521,10.6597,10.6597,10.7405,10.779,10.7905,10.8713,10.9098,10.9098,10.9098,10.9098,9.0624,9.2604,9.4903,9.6788,9.9135,10.1212,10.1904,10.2712,10.2981,10.1597,10.1212,10.1019,10.1019,10.1019,10.1289,10.1981,10.1597,10.152,10.2212,10.1904,10.152,10.1289,10.1597,10.1712,10.1289,10.2097,10.252,10.2289,10.3482,10.4289,10.4289,10.5097,10.5597,10.5597,10.579,10.579,10.5597,10.4289,10.3789,10.4289,10.2404,10.1789,10.2289,10.2289,10.1904,10.1289,10.1289,10.1289,10.1404,10.2212,10.2597,10.2789,10.4405,10.5097,10.5213,10.6097,10.6405,10.6405,10.6405,10.6405,10.6405,10.6405,10.6405,10.6405,10.6405,10.6405,10.6405,10.6405,10.6405,10.6405,10.6405,10.7021,10.7713,10.7482,10.7905,10.8213,10.7598,10.7905,10.8406,10.8406,10.7905,10.7598,10.829,10.729,10.6405,10.6405,10.7021,10.7521,10.7713,10.829,10.8713,10.8906,10.8906,10.9213,10.9906,10.9906,11.0214,11.0906,11.0291,10.9906,10.9906,10.8906,10.8406,10.8406,10.8482,10.8983,10.9675,10.979,11.0291,11.0906,11.0906,11.0906,9.0812,9.3153,9.5595,9.8134,10.0712,10.252,10.2097,10.2981,10.3482,10.2212,10.1904,10.1789,10.1404,10.1597,10.2097,10.252,10.2212,10.2097,10.252,10.2212,10.1904,10.1904,10.2597,10.2981,10.2597,10.3289,10.3597,10.3289,10.3982,10.4482,10.4482,10.529,10.579,10.579,10.6213,10.6213,10.579,10.4482,10.3905,10.3905,10.2597,10.2212,10.2597,10.2212,10.1712,10.1289,10.1712,10.1904,10.202,10.2904,10.3405,10.3905,10.4789,10.5405,10.579,10.6213,10.6405,10.6405,10.6405,10.6405,10.6405,10.6405,10.6405,10.6405,10.6405,10.6405,10.6521,10.6905,10.7021,10.7098,10.7521,10.8213,10.879,10.8406,10.8598,10.879,10.8406,10.8598,10.8906,10.8906,10.8598,10.8406,10.879,10.8213,10.7598,10.7598,10.7982,10.8406,10.879,10.929,10.9713,11.0098,11.0098,11.0291,11.0791,11.0791,11.1021,11.1522,11.1098,11.0791,11.0791,11.0406,10.979,10.8906,10.929,10.9713,11.0214,11.0598,11.1098,11.1522,11.1522,11.1522,9.1159,9.3826,9.6403,9.9519,10.1481,10.2404,10.1712,10.2904,10.3789,10.2789,10.2597,10.2404,10.1904,10.2212,10.2712,10.2981,10.2904,10.2904,10.302,10.2904,10.2789,10.2597,10.3982,10.4597,10.3789,10.4405,10.4597,10.3982,10.3982,10.4097,10.4097,10.4905,10.529,10.529,10.602,10.602,10.5097,10.4289,10.3482,10.2597,10.2404,10.2404,10.2404,10.1597,10.1289,10.1289,10.2212,10.2597,10.2712,10.3712,10.4482,10.5097,10.529,10.579,10.6405,10.6405,10.6405,10.6405,10.6405,10.6405,10.6405,10.6405,10.6405,10.6405,10.6405,10.6521,10.679,10.7521,10.779,10.8098,10.8713,10.9483,10.9983,10.929,10.9213,10.929,10.9213,10.9213,10.929,10.929,10.929,10.929,10.8983,10.8983,10.9098,10.8906,10.8983,10.9406,11.0098,11.0291,11.0714,11.1406,11.1522,11.1522,11.1522,11.1522,11.1522,11.1522,11.1522,11.1522,11.1522,11.1522,11.0791,10.9406,11.0098,11.0406,11.0406,11.1098,11.1522,11.1522,11.1522,11.1598,8.9342,9.4172,9.875,10.0712,10.1904,10.2597,10.252,10.3712,10.4482,10.2904,10.2597,10.2789,10.3405,10.302,10.3097,10.4482,10.4212,10.3982,10.4713,10.4212,10.3405,10.2712,10.3482,10.3712,10.2904,10.3597,10.3982,10.3905,10.4482,10.4905,10.4905,10.579,10.6213,10.6213,10.629,10.602,10.5097,10.4289,10.3482,10.2597,10.1789,10.152,10.152,10.1404,10.1289,10.1289,10.2212,10.2597,10.2712,10.4289,10.4982,10.5213,10.5905,10.629,10.6405,10.6405,10.6405,10.6405,10.6405,10.6405,10.6405,10.6405,10.6405,10.6405,10.6405,10.6905,10.7598,10.7713,10.8213,10.879,10.8906,10.9483,11.0214,11.0098,11.0598,11.0906,11.0214,11.0598,11.1214,11.1214,11.1214,11.0714,10.9213,10.9483,10.979,10.8983,10.9483,11.0098,11.0214,11.0906,11.1406,11.1522,11.1522,11.1522,11.1522,11.1522,11.1522,11.1522,11.1522,11.1522,11.1522,11.1522,11.1406,11.1214,11.1291,11.1291,11.1291,11.1406,11.1522,11.1522,11.1522,11.1906,8.9325,9.498,9.9712,10.0404,10.1597,10.252,10.202,10.3212,10.4097,10.2904,10.2981,10.3289,10.3212,10.3597,10.4212,10.4982,10.4789,10.4713,10.5097,10.4405,10.3905,10.3982,10.4289,10.4597,10.4713,10.5097,10.529,10.529,10.5597,10.579,10.579,10.6213,10.6405,10.6405,10.5905,10.5482,10.5097,10.3789,10.2712,10.1904,10.152,10.1289,10.1289,10.1789,10.202,10.2097,10.2904,10.3597,10.4097,10.4789,10.5405,10.579,10.5713,10.602,10.6405,10.6405,10.6405,10.6405,10.6405,10.6405,10.6405,10.6405,10.6405,10.6405,10.6405,10.7021,10.779,10.8213,10.8983,10.9713,11.0214,11.0598,11.0906,11.0906,11.1214,11.1406,11.1021,11.1214,11.1522,11.1522,11.1522,11.1291,11.0521,11.0714,11.0791,11.0406,11.0714,11.0906,11.0906,11.1291,11.1522,11.1522,11.1522,11.1522,11.1522,11.1522,11.1522,11.1522,11.1522,11.1522,11.1522,11.1522,11.1522,11.1522,11.1522,11.1522,11.1522,11.1522,11.1714,11.2214,11.2214,11.2599,8.8594,9.3787,9.798,9.8634,10.0212,10.1481,10.1096,10.2289,10.3289,10.2404,10.3097,10.3712,10.3097,10.4097,10.5213,10.5405,10.5597,10.5713,10.5482,10.5097,10.4905,10.5097,10.529,10.5597,10.602,10.629,10.6405,10.6405,10.6405,10.6405,10.6405,10.6405,10.6405,10.6405,10.579,10.529,10.5097,10.3405,10.2212,10.1289,10.1289,10.1289,10.1289,10.2212,10.2712,10.2981,10.3789,10.4482,10.5097,10.529,10.579,10.629,10.5713,10.579,10.6405,10.6405,10.6405,10.6405,10.6405,10.6405,10.6405,10.6405,10.6521,10.6713,10.6521,10.729,10.8406,10.879,10.9713,11.0714,11.1291,11.1522,11.1522,11.1522,11.1522,11.1522,11.1522,11.1522,11.1522,11.1522,11.1522,11.1522,11.1522,11.1522,11.1522,11.1522,11.1522,11.1522,11.1522,11.1522,11.1522,11.1522,11.1522,11.1522,11.1522,11.1522,11.1522,11.1522,11.1714,11.1791,11.1791,11.1791,11.1791,11.1791,11.1598,11.1522,11.1522,11.1522,11.1906,11.2714,11.2714,11.3291,8.5863,8.8979,9.2249,9.4634,9.7134,9.9211,9.9981,10.1481,10.2404,10.152,10.2712,10.3905,10.3789,10.4482,10.5405,10.6213,10.7021,10.729,10.6405,10.7021,10.6905,10.529,10.579,10.602,10.5213,10.5905,10.6405,10.6405,10.6405,10.6405,10.6405,10.6405,10.6405,10.6405,10.6405,10.5905,10.5097,10.3405,10.2212,10.1289,10.1289,10.1289,10.1289,10.2212,10.3097,10.3905,10.4713,10.5097,10.5174,10.602,10.6405,10.6405,10.6405,10.6405,10.6405,10.6405,10.6405,10.6405,10.6405,10.6405,10.6405,10.6405,10.7021,10.7521,10.6713,10.8098,10.9906,10.9098,11.0098,11.1406,11.1522,11.1522,11.1522,11.1522,11.1522,11.1522,11.1522,11.1522,11.1522,11.1522,11.1522,11.1522,11.1522,11.1522,11.1522,11.1522,11.1522,11.1522,11.1522,11.1522,11.1522,11.1522,11.1522,11.1522,11.1522,11.1522,11.1522,11.1522,11.2214,11.2599,11.2599,11.2599,11.2599,11.2599,11.1906,11.1522,11.1522,11.1522,11.1906,11.2714,11.2714,11.3599,8.517,8.7786,9.0864,9.2903,9.5326,9.7557,9.8942,10.0596,10.1712,10.1404,10.2212,10.3097,10.3097,10.4212,10.5597,10.7021,10.7521,10.779,10.7982,10.779,10.7482,10.679,10.6597,10.629,10.602,10.6213,10.6405,10.6405,10.6905,10.7021,10.6405,10.6905,10.7021,10.6405,10.5905,10.4905,10.3482,10.2289,10.1597,10.1289,10.1904,10.2097,10.2212,10.3597,10.4405,10.4713,10.5597,10.5905,10.602,10.629,10.6405,10.6405,10.6405,10.6405,10.6405,10.6405,10.6405,10.6405,10.6405,10.679,10.7213,10.7213,10.779,10.8406,10.8098,10.8983,11.0098,10.979,11.0598,11.1522,11.1522,11.1522,11.1522,11.1522,11.1522,11.1522,11.1522,11.1522,11.1522,11.1522,11.1522,11.1522,11.1522,11.1522,11.1714,11.2214,11.1791,11.1714,11.2214,11.1791,11.1522,11.1522,11.1522,11.1522,11.1522,11.2022,11.2291,11.2291,11.3099,11.3483,11.3483,11.3022,11.2714,11.2714,11.1906,11.1791,11.2291,11.2291,11.2983,11.4407,11.4407,11.4984,8.3632,8.567,8.8325,9.0633,9.271,9.498,9.8096,9.9442,10.0289,10.1096,10.1789,10.2289,10.252,10.3712,10.529,10.7021,10.7713,10.829,10.879,10.8713,10.829,10.779,10.7213,10.6713,10.6405,10.6405,10.6405,10.6405,10.7213,10.7405,10.6905,10.7405,10.729,10.6405,10.5597,10.4405,10.302,10.2212,10.1597,10.1289,10.2212,10.2597,10.2712,10.4289,10.5097,10.5097,10.602,10.6405,10.6405,10.6405,10.6405,10.6405,10.6405,10.6405,10.6405,10.6405,10.6405,10.6405,10.6713,10.7213,10.7713,10.7982,10.8713,10.929,10.8983,10.9713,11.0598,11.0291,11.0791,11.1522,11.1522,11.1522,11.1522,11.1522,11.1522,11.1598,11.1791,11.1906,11.1906,11.1906,11.2099,11.2291,11.2291,11.2291,11.2522,11.3099,11.2714,11.2522,11.3099,11.2406,11.1906,11.1906,11.1714,11.1598,11.1906,11.2406,11.2791,11.3099,11.3984,11.4407,11.4407,11.3907,11.3599,11.3599,11.2522,11.2522,11.3599,11.2983,11.3599,11.5291,11.5291,11.5676,0.0,0.0,0.0,8.7709,8.9171,9.1325,9.7211,9.7942,9.8134,10.0712,10.1212,10.152,10.2404,10.3289,10.4405,10.6097,10.779,10.8906,10.8906,10.9598,10.9483,10.7905,10.7713,10.7405,10.6521,10.6405,10.6405,10.6405,10.7213,10.7713,10.7713,10.7713,10.729,10.6405,10.5597,10.4713,10.3905,10.302,10.2212,10.1289,10.2212,10.2597,10.2712,10.4405,10.5097,10.5213,10.602,10.6405,10.6405,10.6405,10.6405,10.6405,10.6405,10.6405,10.6405,10.6405,10.6405,10.6597,10.7405,10.779,10.7905,10.8713,10.9483,11.0098,10.9213,11.0214,11.1291,11.0483,11.0791,11.1522,11.1522,11.1522,11.1522,11.1522,11.1522,11.1714,11.2522,11.2714,11.2791,11.2714,11.3407,11.3984,11.3984,11.3984,11.3984,11.3984,11.3984,11.3984,11.3984,11.3291,11.2714,11.2714,11.2022,11.1906,11.2714,11.2791,11.3099,11.3984,11.4907,11.5291,11.5291,11.5291,11.5291,11.5291,11.3599,11.3599,11.5291,11.3599,11.3599,11.5291,11.5291,11.5792,8.0939,0.0,0.0,0.0,0.0,0.0,9.1556,9.4095,9.6249,9.8173,9.9558,10.0712,10.152,10.2404,10.3482,10.5213,10.6905,10.8213,10.879,10.9098,10.8906,10.779,10.7713,10.7405,10.6521,10.6405,10.6405,10.6405,10.7213,10.7713,10.7713,10.7713,10.729,10.6405,10.5597,10.4713,10.3905,10.302,10.2212,10.1289,10.2789,10.3482,10.3597,10.529,10.602,10.6097,10.629,10.6405,10.6405,10.6405,10.6405,10.6405,10.6405,10.6405,10.6521,10.7098,10.729,10.7482,10.829,10.8983,10.9483,10.979,11.0406,11.1098,11.0906,11.1098,11.1406,11.1214,11.1291,11.1522,11.1522,11.1522,11.1522,11.1522,11.1906,11.2406,11.2714,11.3714,11.4407,11.3791,11.3791,11.3984,11.3984,11.3984,11.4214,11.4791,11.4407,11.4214,11.4907,11.4214,11.3599,11.3599,11.3407,11.3407,11.3599,11.4214,11.4714,11.4907,11.5676,11.6176,11.6176,11.5599,11.5291,11.5291,11.4214,11.4214,11.5291,11.4214,11.4484,11.6176,11.6176,11.6292,8.0977,8.1093,8.1593,8.3632,0.0,0.0,9.0017,9.2249,9.4287,9.7403,9.9135,10.0289,10.1212,10.2289,10.3482,10.4405,10.602,10.7713,10.9213,10.9406,10.929,10.879,10.8406,10.7905,10.7021,10.6597,10.6405,10.6405,10.7213,10.779,10.8213,10.8213,10.779,10.7021,10.5713,10.4713,10.3905,10.302,10.2212,10.1289,10.3097,10.3905,10.3982,10.5597,10.6405,10.6405,10.6405,10.6405,10.6405,10.6405,10.6405,10.6405,10.6405,10.6405,10.6521,10.7405,10.7713,10.7905,10.8983,10.979,11.0291,11.0598,11.1098,11.1522,11.1522,11.1522,11.1522,11.1522,11.1522,11.1522,11.1522,11.1522,11.1522,11.1522,11.1906,11.2406,11.3099,11.3984,11.4714,11.4599,11.4791,11.4984,11.4984,11.4984,11.5215,11.5676,11.5407,11.5215,11.5676,11.5099,11.4484,11.4484,11.4214,11.4099,11.4484,11.4984,11.5407,11.5792,11.6176,11.6484,11.6484,11.5984,11.5792,11.5792,11.4984,11.4791,11.5291,11.4791,11.5215,11.6484,11.6484,11.6484,8.1054,8.1093,0.0,8.3901,8.3362,0.0,8.9979,9.1133,9.2249,9.6865,9.8711,9.9788,10.0596,10.202,10.3097,10.3212,10.4713,10.679,10.9483,10.9906,10.9983,10.9983,10.929,10.8482,10.7905,10.7098,10.6521,10.6521,10.729,10.7982,10.8713,10.879,10.8406,10.7713,10.6097,10.4905,10.3982,10.3212,10.2404,10.1597,10.3212,10.3905,10.4097,10.5713,10.6405,10.6405,10.6405,10.6405,10.6405,10.6405,10.6405,10.6405,10.6521,10.6521,10.6713,10.7598,10.7982,10.8213,10.979,11.0291,11.0483,11.1214,11.1522,11.1522,11.1522,11.1522,11.1522,11.1522,11.1522,11.1522,11.1522,11.1522,11.1522,11.1522,11.1598,11.2022,11.3483,11.3984,11.4407,11.5099,11.5907,11.6484,11.6484,11.6484,11.6484,11.6484,11.6484,11.6484,11.6484,11.5907,11.5407,11.5407,11.4714,11.4599,11.5407,11.5407,11.5676,11.6484,11.6484,11.6484,11.6484,11.6484,11.6484,11.6484,11.5792,11.5407,11.5407,11.5407,11.5792,11.6484,11.6484,11.6484,8.09,8.1093,8.1208,8.1708,8.2054,0.0,8.3978,8.6824,8.9633,9.1287,9.3941,9.6249,9.7134,9.7557,9.798,9.8634,10.0712,10.3712,10.7598,10.8213,10.8406,10.9098,10.8406,10.8098,10.8598,10.7905,10.7405,10.7405,10.7598,10.779,10.7905,10.7905,10.7905,10.7713,10.6713,10.5713,10.4905,10.4097,10.3597,10.3405,10.3712,10.4212,10.4905,10.5905,10.6405,10.6405,10.6405,10.6405,10.6405,10.6405,10.6405,10.6521,10.7213,10.7405,10.7598,10.9213,10.9713,10.9906,11.0906,11.1214,11.1291,11.1406,11.1522,11.1522,11.1522,11.1522,11.1522,11.1522,11.1522,11.1522,11.1522,11.1522,11.1522,11.1522,11.2022,11.2599,11.2906,11.4099,11.5099,11.5291,11.5907,11.6484,11.6484,11.6484,11.6484,11.6484,11.6484,11.6484,11.6484,11.6407,11.6292,11.6292,11.6099,11.6099,11.6292,11.6292,11.6292,11.6484,11.6484,11.6484,11.6484,11.6484,11.6484,11.6484,11.6292,11.6292,11.6292,11.6292,11.6292,11.6484,11.6484,11.6484,8.0977,8.1093,8.1208,8.1593,8.1708,0.0,0.0,8.5247,8.7286,8.8979,9.1325,9.3364,9.4249,9.5095,9.6057,9.7288,9.9635,10.2404,10.5405,10.6905,10.779,10.829,10.829,10.829,10.829,10.7905,10.7521,10.7098,10.7482,10.7713,10.7713,10.7713,10.7713,10.7713,10.6905,10.602,10.5097,10.4289,10.3712,10.3289,10.3712,10.4097,10.4482,10.579,10.6405,10.6405,10.6405,10.6405,10.6405,10.6405,10.6713,10.7021,10.7098,10.7598,10.8406,10.9213,10.979,11.0291,11.1214,11.1522,11.1522,11.1522,11.1522,11.1522,11.1522,11.1522,11.1522,11.1522,11.1522,11.1522,11.1522,11.1522,11.1522,11.1522,11.1791,11.2214,11.2599,11.3407,11.4291,11.5099,11.5599,11.5984,11.6407,11.6484,11.6484,11.6484,11.6484,11.6484,11.6484,11.6099,11.5907,11.5907,11.5907,11.5907,11.5907,11.6292,11.6484,11.6484,11.6484,11.6484,11.6484,11.6484,11.6484,11.6484,11.6484,11.6484,11.6484,11.6484,11.6484,11.6484,11.6484,11.6484,8.1593,8.1708,8.19,8.2208,8.2054,8.2247,0.0,0.0,0.0,8.7325,8.9056,9.0441,9.1133,9.2518,9.4018,9.5557,9.8211,10.0519,10.1789,10.4597,10.679,10.7598,10.779,10.7905,10.7905,10.7598,10.7213,10.6713,10.7021,10.729,10.7405,10.7405,10.7405,10.7405,10.679,10.6097,10.5405,10.4482,10.3789,10.3097,10.3789,10.4097,10.4212,10.5713,10.6405,10.6405,10.6405,10.6405,10.6405,10.6405,10.6905,10.7598,10.7098,10.779,10.9213,10.929,10.979,11.0598,11.1291,11.1522,11.1522,11.1522,11.1522,11.1522,11.1522,11.1522,11.1522,11.1522,11.1522,11.1522,11.1522,11.1522,11.1522,11.1522,11.1522,11.1714,11.2291,11.2599,11.3099,11.4484,11.4907,11.5407,11.6292,11.6484,11.6484,11.6484,11.6484,11.6484,11.6484,11.5792,11.5291,11.5291,11.5291,11.5291,11.5291,11.5984,11.6484,11.6484,11.6484,11.6484,11.6484,11.6484,11.6484,11.6484,11.6484,11.6484,11.6484,11.6484,11.6484,11.6484,11.6484,11.6484,8.3324,8.3862,8.4132,8.267,8.3401,8.3939,8.1977,0.0,8.4747,8.4286,0.0,8.6709,8.6824,0.0,0.0,8.9517,9.3056,9.5518,9.4941,9.9019,10.3405,10.7213,10.579,10.5597,10.8482,10.7405,10.679,10.7521,10.6213,10.5713,10.6521,10.6521,10.6521,10.6521,10.6521,10.6405,10.629,10.5405,10.4905,10.4789,10.4905,10.4982,10.4982,10.602,10.6405,10.6405,10.6405,10.6405,10.6405,10.6405,10.6905,10.779,10.8406,10.9213,11.0098,11.0906,11.1291,11.1406,11.1522,11.1522,11.1522,11.1522,11.1522,11.1522,11.1522,11.1522,11.1522,11.1522,11.1522,11.1522,11.1522,11.1522,11.1522,11.1522,11.1522,11.1522,11.1598,11.2214,11.2791,11.2983,11.3599,11.4599,11.6176,11.6484,11.6484,11.6484,11.6484,11.6484,11.6484,11.5792,11.5291,11.5291,11.5291,11.5291,11.5291,11.5984,11.6484,11.6484,11.6484,11.6484,11.6484,11.6484,11.6484,11.6484,11.6484,11.6484,11.6484,11.6484,11.6484,11.6484,11.6484,11.6484,8.4209,8.4632,8.4593,8.3362,8.3593,8.3708,8.217,8.2247,8.2593,8.2208,0.0,0.0,0.0,0.0,0.0,0.0,9.1095,9.3595,9.3672,9.6826,9.9942,10.2289,10.2904,10.4097,10.6482,10.5597,10.5482,10.679,10.5405,10.4982,10.629,10.5905,10.5905,10.6405,10.5905,10.5905,10.6405,10.5097,10.4405,10.4405,10.4905,10.4905,10.4405,10.579,10.6405,10.6405,10.6405,10.6405,10.6405,10.6405,10.6905,10.7713,10.8098,10.8713,10.9483,10.9906,11.0291,11.0791,11.1291,11.1522,11.1522,11.1522,11.1522,11.1522,11.1522,11.1522,11.1522,11.1522,11.1522,11.1522,11.1522,11.1522,11.1522,11.1522,11.1522,11.1522,11.1522,11.1791,11.2291,11.3291,11.3714,11.4484,11.6176,11.6099,11.5984,11.6407,11.6484,11.6292,11.5907,11.5099,11.4484,11.4484,11.4099,11.4214,11.5215,11.5599,11.5984,11.6484,11.6484,11.6484,11.6484,11.6484,11.6484,11.6484,11.6484,11.6484,11.6484,11.6484,11.6484,11.6484,11.6484,11.6484,8.5401,8.5747,8.5632,8.4286,8.3939,8.3593,8.2285,8.2054,8.2054,8.1823,8.2824,0.0,0.0,0.0,8.5978,8.7209,0.0,9.1902,9.2287,9.4518,9.6711,9.825,10.0712,10.2597,10.3597,10.3405,10.3789,10.5213,10.402,10.3789,10.529,10.5213,10.5213,10.5405,10.5213,10.529,10.5713,10.4713,10.4097,10.3905,10.4982,10.4982,10.4289,10.5713,10.6405,10.6405,10.6405,10.6405,10.6405,10.6405,10.679,10.729,10.729,10.7713,10.829,10.8713,10.9483,11.0291,11.0906,11.1291,11.1522,11.1522,11.1522,11.1522,11.1522,11.1522,11.1522,11.1522,11.1522,11.1522,11.1522,11.1522,11.1522,11.1522,11.1522,11.1522,11.1522,11.1522,11.1906,11.3099,11.3291,11.3791,11.5484,11.5676,11.5792,11.6407,11.6292,11.5984,11.5407,11.4484,11.3984,11.3984,11.3407,11.3714,11.5176,11.5291,11.5599,11.6407,11.6484,11.6484,11.6484,11.6484,11.6484,11.6484,11.6484,11.6484,11.6484,11.6484,11.6484,11.6484,11.6484,11.6484,8.7325,8.794,8.7979,8.5478,8.4863,8.4209,8.1708,8.3016,8.4555,8.367,8.5478,8.6978,8.6132,8.6709,0.0,0.0,8.8863,0.0,0.0,9.1056,9.3864,9.7134,9.9788,10.1096,10.0289,10.0904,10.1789,10.2712,10.1904,10.1789,10.2712,10.4212,10.4405,10.2789,10.4289,10.4713,10.3982,10.4713,10.4713,10.3905,10.5597,10.5905,10.5097,10.602,10.6405,10.6405,10.6405,10.6405,10.6405,10.6405,10.6405,10.6405,10.6405,10.6521,10.6713,10.829,10.9483,11.0214,11.0214,11.0791,11.1522,11.1522,11.1522,11.1522,11.1522,11.1522,11.1522,11.1522,11.1522,11.1522,11.1522,11.1522,11.1522,11.1522,11.1522,11.1522,11.1522,11.1522,11.1522,11.1598,11.1598,11.2099,11.3791,11.5407,11.6484,11.6484,11.5792,11.5291,11.5291,11.4484,11.3984,11.3984,11.3984,11.4291,11.5215,11.5291,11.5599,11.6407,11.6484,11.6484,11.6484,11.6484,11.6484,11.6484,11.6484,11.6484,11.6484,11.6484,11.6484,11.6484,11.6484,11.6484,8.9594,9.0133,8.9863,8.7902,8.6978,8.5901,8.3324,8.3862,8.4824,8.4516,8.6017,8.7325,8.7017,8.7209,0.0,0.0,0.0,0.0,0.0,8.944,9.121,9.4595,9.6749,9.8096,9.8365,9.9135,9.9981,10.0904,10.0096,10.0481,10.252,10.2597,10.2904,10.3405,10.3482,10.3789,10.4713,10.4405,10.4405,10.4713,10.5905,10.5905,10.5097,10.602,10.6405,10.6405,10.6405,10.6405,10.6405,10.6405,10.6405,10.6405,10.6405,10.6405,10.6521,10.7713,10.8598,10.9483,11.0714,11.1291,11.1522,11.1522,11.1522,11.1522,11.1522,11.1522,11.1522,11.1522,11.1522,11.1522,11.1522,11.1522,11.1522,11.1522,11.1522,11.1522,11.1522,11.1522,11.1714,11.2214,11.2291,11.2714,11.3791,11.4484,11.4984,11.5599,11.4984,11.4407,11.4407,11.4214,11.4214,11.4791,11.4291,11.4599,11.5984,11.6099,11.6176,11.6484,11.6484,11.6484,11.6484,11.6484,11.6484,11.6484,11.6484,11.6484,11.6484,11.6484,11.6484,11.6484,11.71,11.7407,9.1364,9.1864,9.1748,9.0402,8.9633,8.8632,8.6363,8.6978,8.794,8.7671,8.8671,8.9748,9.0056,8.9363,0.0,0.0,0.0,0.0,0.0,8.8479,8.9825,9.2903,9.4518,9.5826,9.698,9.7288,9.7788,9.8673,9.7942,9.8442,10.0712,10.1096,10.1712,10.2481,10.2904,10.3405,10.4212,10.4289,10.4597,10.5097,10.602,10.6097,10.5597,10.6097,10.6405,10.6405,10.6405,10.6405,10.6405,10.6405,10.6405,10.6405,10.6405,10.6405,10.6521,10.7021,10.7905,10.9098,11.0521,11.1214,11.1522,11.1522,11.1522,11.1522,11.1522,11.1522,11.1522,11.1522,11.1522,11.1522,11.1522,11.1522,11.1522,11.1522,11.1522,11.1522,11.1522,11.1522,11.1714,11.2214,11.2291,11.2522,11.3407,11.3291,11.3483,11.4714,11.4099,11.3599,11.3984,11.3714,11.3907,11.4714,11.4099,11.4099,11.5484,11.6176,11.6484,11.6484,11.6484,11.6484,11.6484,11.6484,11.6484,11.6484,11.6484,11.6484,11.6484,11.6484,11.6676,11.6984,11.7484,11.81]}]]